<?xml version="1.0" encoding="UTF-8" standalone="no" ?>
<gpx xmlns="http://www.topografix.com/GPX/1/1" xmlns:xsi="http://www.w3.org/2001/XMLSchema-instance" xsi:schemaLocation="http://www.topografix.com/GPX/1/1 http://www.topografix.com/GPX/1/1/gpx.xsd" version="1.1" creator="VisuGPX - https://www.visugpx.com">
  <metadata>
    <name>La Cadiere Bandol Le Brusc</name>
    <desc><![CDATA[Au départ de La Cadière, on rejoint Le chemin de l%u2019argile qui serpente au milieu des vignes puis le chemin de Fontanieu qui vous emmène sur les hauteurs, avant de rattraper la route de Bandol. Une fois à Bandol, on ne quittera plus le bord de mer.  Vous passerez devant différentes plages, qui vous inviteront à la baignade et au bronzage. Arrivés au petit port du Brusc, il ne vous restera plus que quelques mètres pour atteindre la magnifique presqu%u2019ile du Gaou. ]]></desc>
  </metadata>
  <trk>
    <name><![CDATA[La Cadière-d’Azur Cyclisme]]></name>
    <trkseg>
      <trkpt lat="43.19575" lon="5.75738">
        <ele>135.60000610352</ele>
        <time>2016-04-27T12:26:30.000Z</time>
      </trkpt>
      <trkpt lat="43.19566" lon="5.75734">
        <ele>134.19999694824</ele>
        <time>2016-04-27T12:27:05.000Z</time>
      </trkpt>
      <trkpt lat="43.19563" lon="5.75737">
        <ele>133.39999389648</ele>
        <time>2016-04-27T12:27:07.000Z</time>
      </trkpt>
      <trkpt lat="43.1954" lon="5.75756">
        <ele>127.59999847412</ele>
        <time>2016-04-27T12:27:15.000Z</time>
      </trkpt>
      <trkpt lat="43.19534" lon="5.75761">
        <ele>127</ele>
        <time>2016-04-27T12:27:17.000Z</time>
      </trkpt>
      <trkpt lat="43.19528" lon="5.75766">
        <ele>126.19999694824</ele>
        <time>2016-04-27T12:27:19.000Z</time>
      </trkpt>
      <trkpt lat="43.19527" lon="5.75772">
        <ele>126</ele>
        <time>2016-04-27T12:27:20.000Z</time>
      </trkpt>
      <trkpt lat="43.19526" lon="5.75778">
        <ele>125.80000305176</ele>
        <time>2016-04-27T12:27:21.000Z</time>
      </trkpt>
      <trkpt lat="43.19524" lon="5.75783">
        <ele>125.59999847412</ele>
        <time>2016-04-27T12:27:22.000Z</time>
      </trkpt>
      <trkpt lat="43.19523" lon="5.75793">
        <ele>125.40000152588</ele>
        <time>2016-04-27T12:27:24.000Z</time>
      </trkpt>
      <trkpt lat="43.19522" lon="5.75798">
        <ele>125.19999694824</ele>
        <time>2016-04-27T12:27:25.000Z</time>
      </trkpt>
      <trkpt lat="43.19519" lon="5.75803">
        <ele>124.80000305176</ele>
        <time>2016-04-27T12:27:26.000Z</time>
      </trkpt>
      <trkpt lat="43.19508" lon="5.75822">
        <ele>122.40000152588</ele>
        <time>2016-04-27T12:27:29.000Z</time>
      </trkpt>
      <trkpt lat="43.19502" lon="5.75829">
        <ele>121</ele>
        <time>2016-04-27T12:27:30.000Z</time>
      </trkpt>
      <trkpt lat="43.19495" lon="5.75865">
        <ele>117.80000305176</ele>
        <time>2016-04-27T12:27:33.000Z</time>
      </trkpt>
      <trkpt lat="43.19489" lon="5.75885">
        <ele>115.19999694824</ele>
        <time>2016-04-27T12:27:35.000Z</time>
      </trkpt>
      <trkpt lat="43.19478" lon="5.75895">
        <ele>112.80000305176</ele>
        <time>2016-04-27T12:27:37.000Z</time>
      </trkpt>
      <trkpt lat="43.19465" lon="5.75896">
        <ele>110.40000152588</ele>
        <time>2016-04-27T12:27:39.000Z</time>
      </trkpt>
      <trkpt lat="43.19459" lon="5.75894">
        <ele>109.40000152588</ele>
        <time>2016-04-27T12:27:40.000Z</time>
      </trkpt>
      <trkpt lat="43.19453" lon="5.75891">
        <ele>108.40000152588</ele>
        <time>2016-04-27T12:27:41.000Z</time>
      </trkpt>
      <trkpt lat="43.19445" lon="5.75883">
        <ele>107.40000152588</ele>
        <time>2016-04-27T12:27:43.000Z</time>
      </trkpt>
      <trkpt lat="43.19441" lon="5.75879">
        <ele>107</ele>
        <time>2016-04-27T12:27:44.000Z</time>
      </trkpt>
      <trkpt lat="43.1944" lon="5.75873">
        <ele>107.19999694824</ele>
        <time>2016-04-27T12:27:45.000Z</time>
      </trkpt>
      <trkpt lat="43.19438" lon="5.75868">
        <ele>107.40000152588</ele>
        <time>2016-04-27T12:27:46.000Z</time>
      </trkpt>
      <trkpt lat="43.19435" lon="5.75864">
        <ele>107.19999694824</ele>
        <time>2016-04-27T12:27:47.000Z</time>
      </trkpt>
      <trkpt lat="43.19427" lon="5.75855">
        <ele>106.40000152588</ele>
        <time>2016-04-27T12:27:49.000Z</time>
      </trkpt>
      <trkpt lat="43.19423" lon="5.75849">
        <ele>106</ele>
        <time>2016-04-27T12:27:50.000Z</time>
      </trkpt>
      <trkpt lat="43.1942" lon="5.75843">
        <ele>105.80000305176</ele>
        <time>2016-04-27T12:27:51.000Z</time>
      </trkpt>
      <trkpt lat="43.19419" lon="5.75819">
        <ele>107.40000152588</ele>
        <time>2016-04-27T12:27:54.000Z</time>
      </trkpt>
      <trkpt lat="43.19419" lon="5.75811">
        <ele>108.19999694824</ele>
        <time>2016-04-27T12:27:55.000Z</time>
      </trkpt>
      <trkpt lat="43.19418" lon="5.75766">
        <ele>109.19999694824</ele>
        <time>2016-04-27T12:28:00.000Z</time>
      </trkpt>
      <trkpt lat="43.19415" lon="5.75757">
        <ele>108.80000305176</ele>
        <time>2016-04-27T12:28:01.000Z</time>
      </trkpt>
      <trkpt lat="43.19405" lon="5.75741">
        <ele>107</ele>
        <time>2016-04-27T12:28:03.000Z</time>
      </trkpt>
      <trkpt lat="43.194" lon="5.75735">
        <ele>106.19999694824</ele>
        <time>2016-04-27T12:28:04.000Z</time>
      </trkpt>
      <trkpt lat="43.19384" lon="5.75716">
        <ele>103.19999694824</ele>
        <time>2016-04-27T12:28:07.000Z</time>
      </trkpt>
      <trkpt lat="43.19373" lon="5.75701">
        <ele>101.40000152588</ele>
        <time>2016-04-27T12:28:09.000Z</time>
      </trkpt>
      <trkpt lat="43.19368" lon="5.75692">
        <ele>100.80000305176</ele>
        <time>2016-04-27T12:28:10.000Z</time>
      </trkpt>
      <trkpt lat="43.19352" lon="5.75661">
        <ele>98.599998474121</ele>
        <time>2016-04-27T12:28:13.000Z</time>
      </trkpt>
      <trkpt lat="43.19336" lon="5.75629">
        <ele>97.800003051758</ele>
        <time>2016-04-27T12:28:16.000Z</time>
      </trkpt>
      <trkpt lat="43.19324" lon="5.75609">
        <ele>98.400001525879</ele>
        <time>2016-04-27T12:28:18.000Z</time>
      </trkpt>
      <trkpt lat="43.19308" lon="5.75582">
        <ele>98.800003051758</ele>
        <time>2016-04-27T12:28:21.000Z</time>
      </trkpt>
      <trkpt lat="43.19302" lon="5.75574">
        <ele>99</ele>
        <time>2016-04-27T12:28:22.000Z</time>
      </trkpt>
      <trkpt lat="43.19285" lon="5.75555">
        <ele>99</ele>
        <time>2016-04-27T12:28:25.000Z</time>
      </trkpt>
      <trkpt lat="43.19279" lon="5.75551">
        <ele>98.400001525879</ele>
        <time>2016-04-27T12:28:26.000Z</time>
      </trkpt>
      <trkpt lat="43.19271" lon="5.75551">
        <ele>97.800003051758</ele>
        <time>2016-04-27T12:28:27.000Z</time>
      </trkpt>
      <trkpt lat="43.19264" lon="5.75554">
        <ele>97.199996948242</ele>
        <time>2016-04-27T12:28:28.000Z</time>
      </trkpt>
      <trkpt lat="43.19257" lon="5.75558">
        <ele>96.599998474121</ele>
        <time>2016-04-27T12:28:29.000Z</time>
      </trkpt>
      <trkpt lat="43.1925" lon="5.75562">
        <ele>96</ele>
        <time>2016-04-27T12:28:30.000Z</time>
      </trkpt>
      <trkpt lat="43.19237" lon="5.75569">
        <ele>95</ele>
        <time>2016-04-27T12:28:32.000Z</time>
      </trkpt>
      <trkpt lat="43.19232" lon="5.75579">
        <ele>94.400001525879</ele>
        <time>2016-04-27T12:28:33.000Z</time>
      </trkpt>
      <trkpt lat="43.19226" lon="5.75586">
        <ele>93.800003051758</ele>
        <time>2016-04-27T12:28:34.000Z</time>
      </trkpt>
      <trkpt lat="43.19221" lon="5.75592">
        <ele>93.199996948242</ele>
        <time>2016-04-27T12:28:35.000Z</time>
      </trkpt>
      <trkpt lat="43.19217" lon="5.75598">
        <ele>93</ele>
        <time>2016-04-27T12:28:36.000Z</time>
      </trkpt>
      <trkpt lat="43.19212" lon="5.75614">
        <ele>93.400001525879</ele>
        <time>2016-04-27T12:28:38.000Z</time>
      </trkpt>
      <trkpt lat="43.19211" lon="5.75622">
        <ele>93.599998474121</ele>
        <time>2016-04-27T12:28:39.000Z</time>
      </trkpt>
      <trkpt lat="43.19208" lon="5.75637">
        <ele>94</ele>
        <time>2016-04-27T12:28:41.000Z</time>
      </trkpt>
      <trkpt lat="43.19202" lon="5.7565">
        <ele>94</ele>
        <time>2016-04-27T12:28:43.000Z</time>
      </trkpt>
      <trkpt lat="43.19179" lon="5.75689">
        <ele>94</ele>
        <time>2016-04-27T12:28:49.000Z</time>
      </trkpt>
      <trkpt lat="43.19145" lon="5.75733">
        <ele>91.199996948242</ele>
        <time>2016-04-27T12:28:56.000Z</time>
      </trkpt>
      <trkpt lat="43.19115" lon="5.75767">
        <ele>88.400001525879</ele>
        <time>2016-04-27T12:29:01.000Z</time>
      </trkpt>
      <trkpt lat="43.19103" lon="5.75781">
        <ele>87.599998474121</ele>
        <time>2016-04-27T12:29:03.000Z</time>
      </trkpt>
      <trkpt lat="43.19097" lon="5.75788">
        <ele>87.400001525879</ele>
        <time>2016-04-27T12:29:04.000Z</time>
      </trkpt>
      <trkpt lat="43.1909" lon="5.75794">
        <ele>86.599998474121</ele>
        <time>2016-04-27T12:29:05.000Z</time>
      </trkpt>
      <trkpt lat="43.19074" lon="5.75803">
        <ele>85</ele>
        <time>2016-04-27T12:29:07.000Z</time>
      </trkpt>
      <trkpt lat="43.19037" lon="5.75817">
        <ele>81.199996948242</ele>
        <time>2016-04-27T12:29:11.000Z</time>
      </trkpt>
      <trkpt lat="43.19027" lon="5.75822">
        <ele>80.400001525879</ele>
        <time>2016-04-27T12:29:12.000Z</time>
      </trkpt>
      <trkpt lat="43.19016" lon="5.75826">
        <ele>79.599998474121</ele>
        <time>2016-04-27T12:29:13.000Z</time>
      </trkpt>
      <trkpt lat="43.18994" lon="5.75834">
        <ele>78.800003051758</ele>
        <time>2016-04-27T12:29:15.000Z</time>
      </trkpt>
      <trkpt lat="43.18972" lon="5.75842">
        <ele>78</ele>
        <time>2016-04-27T12:29:17.000Z</time>
      </trkpt>
      <trkpt lat="43.1895" lon="5.75849">
        <ele>77.599998474121</ele>
        <time>2016-04-27T12:29:19.000Z</time>
      </trkpt>
      <trkpt lat="43.18931" lon="5.75859">
        <ele>77.400001525879</ele>
        <time>2016-04-27T12:29:21.000Z</time>
      </trkpt>
      <trkpt lat="43.18917" lon="5.75876">
        <ele>78.199996948242</ele>
        <time>2016-04-27T12:29:23.000Z</time>
      </trkpt>
      <trkpt lat="43.18911" lon="5.75884">
        <ele>77.800003051758</ele>
        <time>2016-04-27T12:29:24.000Z</time>
      </trkpt>
      <trkpt lat="43.18902" lon="5.75899">
        <ele>77.199996948242</ele>
        <time>2016-04-27T12:29:26.000Z</time>
      </trkpt>
      <trkpt lat="43.18896" lon="5.75904">
        <ele>77</ele>
        <time>2016-04-27T12:29:27.000Z</time>
      </trkpt>
      <trkpt lat="43.18879" lon="5.7591">
        <ele>76.599998474121</ele>
        <time>2016-04-27T12:29:30.000Z</time>
      </trkpt>
      <trkpt lat="43.18873" lon="5.7591">
        <ele>76.599998474121</ele>
        <time>2016-04-27T12:29:31.000Z</time>
      </trkpt>
      <trkpt lat="43.18826" lon="5.7591">
        <ele>77.599998474121</ele>
        <time>2016-04-27T12:29:39.000Z</time>
      </trkpt>
      <trkpt lat="43.18781" lon="5.75919">
        <ele>80</ele>
        <time>2016-04-27T12:29:47.000Z</time>
      </trkpt>
      <trkpt lat="43.18775" lon="5.75922">
        <ele>80.400001525879</ele>
        <time>2016-04-27T12:29:48.000Z</time>
      </trkpt>
      <trkpt lat="43.1877" lon="5.75925">
        <ele>80.800003051758</ele>
        <time>2016-04-27T12:29:49.000Z</time>
      </trkpt>
      <trkpt lat="43.18742" lon="5.75933">
        <ele>83.599998474121</ele>
        <time>2016-04-27T12:29:54.000Z</time>
      </trkpt>
      <trkpt lat="43.18726" lon="5.75935">
        <ele>85.400001525879</ele>
        <time>2016-04-27T12:29:57.000Z</time>
      </trkpt>
      <trkpt lat="43.18708" lon="5.7594">
        <ele>86.400001525879</ele>
        <time>2016-04-27T12:30:00.000Z</time>
      </trkpt>
      <trkpt lat="43.18702" lon="5.75943">
        <ele>86.599998474121</ele>
        <time>2016-04-27T12:30:01.000Z</time>
      </trkpt>
      <trkpt lat="43.18686" lon="5.75952">
        <ele>87.199996948242</ele>
        <time>2016-04-27T12:30:04.000Z</time>
      </trkpt>
      <trkpt lat="43.18663" lon="5.75965">
        <ele>88.599998474121</ele>
        <time>2016-04-27T12:30:08.000Z</time>
      </trkpt>
      <trkpt lat="43.18657" lon="5.75968">
        <ele>88.599998474121</ele>
        <time>2016-04-27T12:30:09.000Z</time>
      </trkpt>
      <trkpt lat="43.18652" lon="5.75971">
        <ele>88.599998474121</ele>
        <time>2016-04-27T12:30:10.000Z</time>
      </trkpt>
      <trkpt lat="43.18641" lon="5.75978">
        <ele>89</ele>
        <time>2016-04-27T12:30:12.000Z</time>
      </trkpt>
      <trkpt lat="43.18611" lon="5.76003">
        <ele>89</ele>
        <time>2016-04-27T12:30:18.000Z</time>
      </trkpt>
      <trkpt lat="43.18607" lon="5.76009">
        <ele>88.800003051758</ele>
        <time>2016-04-27T12:30:19.000Z</time>
      </trkpt>
      <trkpt lat="43.18581" lon="5.76046">
        <ele>87</ele>
        <time>2016-04-27T12:30:25.000Z</time>
      </trkpt>
      <trkpt lat="43.18559" lon="5.76092">
        <ele>84.199996948242</ele>
        <time>2016-04-27T12:30:31.000Z</time>
      </trkpt>
      <trkpt lat="43.18543" lon="5.76126">
        <ele>82</ele>
        <time>2016-04-27T12:30:35.000Z</time>
      </trkpt>
      <trkpt lat="43.1853" lon="5.76138">
        <ele>81.599998474121</ele>
        <time>2016-04-27T12:30:37.000Z</time>
      </trkpt>
      <trkpt lat="43.18513" lon="5.76149">
        <ele>81</ele>
        <time>2016-04-27T12:30:39.000Z</time>
      </trkpt>
      <trkpt lat="43.18495" lon="5.7616">
        <ele>81.599998474121</ele>
        <time>2016-04-27T12:30:41.000Z</time>
      </trkpt>
      <trkpt lat="43.18486" lon="5.76165">
        <ele>81.800003051758</ele>
        <time>2016-04-27T12:30:42.000Z</time>
      </trkpt>
      <trkpt lat="43.18461" lon="5.76181">
        <ele>82.800003051758</ele>
        <time>2016-04-27T12:30:45.000Z</time>
      </trkpt>
      <trkpt lat="43.18437" lon="5.76195">
        <ele>84</ele>
        <time>2016-04-27T12:30:48.000Z</time>
      </trkpt>
      <trkpt lat="43.18431" lon="5.76199">
        <ele>84.400001525879</ele>
        <time>2016-04-27T12:30:49.000Z</time>
      </trkpt>
      <trkpt lat="43.18401" lon="5.76211">
        <ele>85.400001525879</ele>
        <time>2016-04-27T12:30:54.000Z</time>
      </trkpt>
      <trkpt lat="43.1839" lon="5.76213">
        <ele>85.800003051758</ele>
        <time>2016-04-27T12:30:56.000Z</time>
      </trkpt>
      <trkpt lat="43.18373" lon="5.76211">
        <ele>86.800003051758</ele>
        <time>2016-04-27T12:30:59.000Z</time>
      </trkpt>
      <trkpt lat="43.18363" lon="5.76209">
        <ele>87.599998474121</ele>
        <time>2016-04-27T12:31:01.000Z</time>
      </trkpt>
      <trkpt lat="43.18352" lon="5.76208">
        <ele>88.199996948242</ele>
        <time>2016-04-27T12:31:03.000Z</time>
      </trkpt>
      <trkpt lat="43.18342" lon="5.76209">
        <ele>88.599998474121</ele>
        <time>2016-04-27T12:31:05.000Z</time>
      </trkpt>
      <trkpt lat="43.18337" lon="5.7621">
        <ele>89</ele>
        <time>2016-04-27T12:31:06.000Z</time>
      </trkpt>
      <trkpt lat="43.18331" lon="5.7621">
        <ele>89.199996948242</ele>
        <time>2016-04-27T12:31:07.000Z</time>
      </trkpt>
      <trkpt lat="43.18316" lon="5.76212">
        <ele>90.199996948242</ele>
        <time>2016-04-27T12:31:10.000Z</time>
      </trkpt>
      <trkpt lat="43.183" lon="5.76214">
        <ele>91</ele>
        <time>2016-04-27T12:31:13.000Z</time>
      </trkpt>
      <trkpt lat="43.18295" lon="5.76215">
        <ele>91.400001525879</ele>
        <time>2016-04-27T12:31:14.000Z</time>
      </trkpt>
      <trkpt lat="43.18268" lon="5.76218">
        <ele>92.800003051758</ele>
        <time>2016-04-27T12:31:19.000Z</time>
      </trkpt>
      <trkpt lat="43.18252" lon="5.76219">
        <ele>93.599998474121</ele>
        <time>2016-04-27T12:31:22.000Z</time>
      </trkpt>
      <trkpt lat="43.18246" lon="5.76219">
        <ele>94</ele>
        <time>2016-04-27T12:31:23.000Z</time>
      </trkpt>
      <trkpt lat="43.18214" lon="5.76215">
        <ele>96</ele>
        <time>2016-04-27T12:31:29.000Z</time>
      </trkpt>
      <trkpt lat="43.18208" lon="5.76215">
        <ele>96.400001525879</ele>
        <time>2016-04-27T12:31:30.000Z</time>
      </trkpt>
      <trkpt lat="43.18179" lon="5.76213">
        <ele>98</ele>
        <time>2016-04-27T12:31:35.000Z</time>
      </trkpt>
      <trkpt lat="43.18163" lon="5.76213">
        <ele>98.400001525879</ele>
        <time>2016-04-27T12:31:38.000Z</time>
      </trkpt>
      <trkpt lat="43.18137" lon="5.7622">
        <ele>99.599998474121</ele>
        <time>2016-04-27T12:31:43.000Z</time>
      </trkpt>
      <trkpt lat="43.18131" lon="5.76222">
        <ele>99.800003051758</ele>
        <time>2016-04-27T12:31:44.000Z</time>
      </trkpt>
      <trkpt lat="43.18116" lon="5.76225">
        <ele>100.40000152588</ele>
        <time>2016-04-27T12:31:47.000Z</time>
      </trkpt>
      <trkpt lat="43.18101" lon="5.76221">
        <ele>101.59999847412</ele>
        <time>2016-04-27T12:31:50.000Z</time>
      </trkpt>
      <trkpt lat="43.18096" lon="5.76221">
        <ele>102</ele>
        <time>2016-04-27T12:31:51.000Z</time>
      </trkpt>
      <trkpt lat="43.18091" lon="5.76221">
        <ele>102</ele>
        <time>2016-04-27T12:31:52.000Z</time>
      </trkpt>
      <trkpt lat="43.18077" lon="5.76222">
        <ele>101.80000305176</ele>
        <time>2016-04-27T12:31:55.000Z</time>
      </trkpt>
      <trkpt lat="43.18054" lon="5.7622">
        <ele>101.59999847412</ele>
        <time>2016-04-27T12:32:00.000Z</time>
      </trkpt>
      <trkpt lat="43.18049" lon="5.76218">
        <ele>101.80000305176</ele>
        <time>2016-04-27T12:32:01.000Z</time>
      </trkpt>
      <trkpt lat="43.18045" lon="5.76217">
        <ele>101.80000305176</ele>
        <time>2016-04-27T12:32:02.000Z</time>
      </trkpt>
      <trkpt lat="43.18041" lon="5.76215">
        <ele>102</ele>
        <time>2016-04-27T12:32:03.000Z</time>
      </trkpt>
      <trkpt lat="43.18024" lon="5.76206">
        <ele>102.59999847412</ele>
        <time>2016-04-27T12:32:07.000Z</time>
      </trkpt>
      <trkpt lat="43.18016" lon="5.76199">
        <ele>103.19999694824</ele>
        <time>2016-04-27T12:32:09.000Z</time>
      </trkpt>
      <trkpt lat="43.18006" lon="5.76192">
        <ele>104.80000305176</ele>
        <time>2016-04-27T12:32:11.000Z</time>
      </trkpt>
      <trkpt lat="43.17995" lon="5.76187">
        <ele>107.40000152588</ele>
        <time>2016-04-27T12:32:13.000Z</time>
      </trkpt>
      <trkpt lat="43.17989" lon="5.76186">
        <ele>108.59999847412</ele>
        <time>2016-04-27T12:32:14.000Z</time>
      </trkpt>
      <trkpt lat="43.17975" lon="5.76197">
        <ele>109</ele>
        <time>2016-04-27T12:32:17.000Z</time>
      </trkpt>
      <trkpt lat="43.17935" lon="5.76223">
        <ele>106.40000152588</ele>
        <time>2016-04-27T12:32:25.000Z</time>
      </trkpt>
      <trkpt lat="43.17906" lon="5.7624">
        <ele>107</ele>
        <time>2016-04-27T12:32:31.000Z</time>
      </trkpt>
      <trkpt lat="43.17892" lon="5.76248">
        <ele>107.59999847412</ele>
        <time>2016-04-27T12:32:34.000Z</time>
      </trkpt>
      <trkpt lat="43.17883" lon="5.76254">
        <ele>108</ele>
        <time>2016-04-27T12:32:36.000Z</time>
      </trkpt>
      <trkpt lat="43.17858" lon="5.76263">
        <ele>107.19999694824</ele>
        <time>2016-04-27T12:32:41.000Z</time>
      </trkpt>
      <trkpt lat="43.17853" lon="5.76263">
        <ele>107.59999847412</ele>
        <time>2016-04-27T12:32:42.000Z</time>
      </trkpt>
      <trkpt lat="43.17845" lon="5.76259">
        <ele>109</ele>
        <time>2016-04-27T12:32:44.000Z</time>
      </trkpt>
      <trkpt lat="43.1784" lon="5.76254">
        <ele>110.59999847412</ele>
        <time>2016-04-27T12:32:45.000Z</time>
      </trkpt>
      <trkpt lat="43.17833" lon="5.76245">
        <ele>114</ele>
        <time>2016-04-27T12:32:47.000Z</time>
      </trkpt>
      <trkpt lat="43.17819" lon="5.76227">
        <ele>120.40000152588</ele>
        <time>2016-04-27T12:32:51.000Z</time>
      </trkpt>
      <trkpt lat="43.17815" lon="5.76219">
        <ele>122.59999847412</ele>
        <time>2016-04-27T12:32:53.000Z</time>
      </trkpt>
      <trkpt lat="43.17811" lon="5.76212">
        <ele>124.80000305176</ele>
        <time>2016-04-27T12:32:56.000Z</time>
      </trkpt>
      <trkpt lat="43.17809" lon="5.7621">
        <ele>125.40000152588</ele>
        <time>2016-04-27T12:32:59.000Z</time>
      </trkpt>
      <trkpt lat="43.17806" lon="5.7621">
        <ele>125.80000305176</ele>
        <time>2016-04-27T12:33:14.000Z</time>
      </trkpt>
      <trkpt lat="43.17802" lon="5.76214">
        <ele>125.40000152588</ele>
        <time>2016-04-27T12:33:16.000Z</time>
      </trkpt>
      <trkpt lat="43.17795" lon="5.7622">
        <ele>125.40000152588</ele>
        <time>2016-04-27T12:33:19.000Z</time>
      </trkpt>
      <trkpt lat="43.17789" lon="5.76225">
        <ele>125</ele>
        <time>2016-04-27T12:33:21.000Z</time>
      </trkpt>
      <trkpt lat="43.17778" lon="5.76235">
        <ele>124.19999694824</ele>
        <time>2016-04-27T12:33:24.000Z</time>
      </trkpt>
      <trkpt lat="43.17775" lon="5.76239">
        <ele>123.59999847412</ele>
        <time>2016-04-27T12:33:25.000Z</time>
      </trkpt>
      <trkpt lat="43.17772" lon="5.76244">
        <ele>123</ele>
        <time>2016-04-27T12:33:26.000Z</time>
      </trkpt>
      <trkpt lat="43.17767" lon="5.76251">
        <ele>122</ele>
        <time>2016-04-27T12:33:28.000Z</time>
      </trkpt>
      <trkpt lat="43.17762" lon="5.76256">
        <ele>121.40000152588</ele>
        <time>2016-04-27T12:33:30.000Z</time>
      </trkpt>
      <trkpt lat="43.17757" lon="5.76259">
        <ele>121.40000152588</ele>
        <time>2016-04-27T12:33:32.000Z</time>
      </trkpt>
      <trkpt lat="43.17749" lon="5.76262">
        <ele>121.19999694824</ele>
        <time>2016-04-27T12:33:35.000Z</time>
      </trkpt>
      <trkpt lat="43.1773" lon="5.76269">
        <ele>121</ele>
        <time>2016-04-27T12:33:39.000Z</time>
      </trkpt>
      <trkpt lat="43.17724" lon="5.76271">
        <ele>121.40000152588</ele>
        <time>2016-04-27T12:33:40.000Z</time>
      </trkpt>
      <trkpt lat="43.17689" lon="5.76284">
        <ele>124</ele>
        <time>2016-04-27T12:33:47.000Z</time>
      </trkpt>
      <trkpt lat="43.17685" lon="5.76286">
        <ele>124.40000152588</ele>
        <time>2016-04-27T12:33:48.000Z</time>
      </trkpt>
      <trkpt lat="43.17655" lon="5.76303">
        <ele>123.59999847412</ele>
        <time>2016-04-27T12:33:54.000Z</time>
      </trkpt>
      <trkpt lat="43.17629" lon="5.76324">
        <ele>122.40000152588</ele>
        <time>2016-04-27T12:33:58.000Z</time>
      </trkpt>
      <trkpt lat="43.17622" lon="5.76329">
        <ele>122.19999694824</ele>
        <time>2016-04-27T12:33:59.000Z</time>
      </trkpt>
      <trkpt lat="43.1761" lon="5.7634">
        <ele>121.19999694824</ele>
        <time>2016-04-27T12:34:01.000Z</time>
      </trkpt>
      <trkpt lat="43.17587" lon="5.76358">
        <ele>119</ele>
        <time>2016-04-27T12:34:05.000Z</time>
      </trkpt>
      <trkpt lat="43.17571" lon="5.76364">
        <ele>117.80000305176</ele>
        <time>2016-04-27T12:34:09.000Z</time>
      </trkpt>
      <trkpt lat="43.17566" lon="5.76356">
        <ele>118.80000305176</ele>
        <time>2016-04-27T12:34:11.000Z</time>
      </trkpt>
      <trkpt lat="43.17564" lon="5.76349">
        <ele>119.80000305176</ele>
        <time>2016-04-27T12:34:12.000Z</time>
      </trkpt>
      <trkpt lat="43.17557" lon="5.76329">
        <ele>122.59999847412</ele>
        <time>2016-04-27T12:34:15.000Z</time>
      </trkpt>
      <trkpt lat="43.17547" lon="5.76299">
        <ele>126.59999847412</ele>
        <time>2016-04-27T12:34:20.000Z</time>
      </trkpt>
      <trkpt lat="43.17544" lon="5.76293">
        <ele>127.19999694824</ele>
        <time>2016-04-27T12:34:21.000Z</time>
      </trkpt>
      <trkpt lat="43.17539" lon="5.76283">
        <ele>128.39999389648</ele>
        <time>2016-04-27T12:34:23.000Z</time>
      </trkpt>
      <trkpt lat="43.17528" lon="5.76274">
        <ele>129.39999389648</ele>
        <time>2016-04-27T12:34:26.000Z</time>
      </trkpt>
      <trkpt lat="43.17514" lon="5.76275">
        <ele>128.80000305176</ele>
        <time>2016-04-27T12:34:29.000Z</time>
      </trkpt>
      <trkpt lat="43.17505" lon="5.76279">
        <ele>128.39999389648</ele>
        <time>2016-04-27T12:34:31.000Z</time>
      </trkpt>
      <trkpt lat="43.17495" lon="5.76283">
        <ele>127.80000305176</ele>
        <time>2016-04-27T12:34:33.000Z</time>
      </trkpt>
      <trkpt lat="43.17486" lon="5.76287">
        <ele>127.40000152588</ele>
        <time>2016-04-27T12:34:35.000Z</time>
      </trkpt>
      <trkpt lat="43.17475" lon="5.76291">
        <ele>127.40000152588</ele>
        <time>2016-04-27T12:34:37.000Z</time>
      </trkpt>
      <trkpt lat="43.17451" lon="5.76306">
        <ele>126.19999694824</ele>
        <time>2016-04-27T12:34:42.000Z</time>
      </trkpt>
      <trkpt lat="43.17426" lon="5.76331">
        <ele>123.59999847412</ele>
        <time>2016-04-27T12:34:48.000Z</time>
      </trkpt>
      <trkpt lat="43.17408" lon="5.76347">
        <ele>120</ele>
        <time>2016-04-27T12:34:52.000Z</time>
      </trkpt>
      <trkpt lat="43.17405" lon="5.7635">
        <ele>119.40000152588</ele>
        <time>2016-04-27T12:34:53.000Z</time>
      </trkpt>
      <trkpt lat="43.174" lon="5.76355">
        <ele>118.19999694824</ele>
        <time>2016-04-27T12:34:55.000Z</time>
      </trkpt>
      <trkpt lat="43.17396" lon="5.76358">
        <ele>117.80000305176</ele>
        <time>2016-04-27T12:34:56.000Z</time>
      </trkpt>
      <trkpt lat="43.17391" lon="5.7636">
        <ele>117.80000305176</ele>
        <time>2016-04-27T12:34:57.000Z</time>
      </trkpt>
      <trkpt lat="43.17385" lon="5.76363">
        <ele>117.80000305176</ele>
        <time>2016-04-27T12:34:58.000Z</time>
      </trkpt>
      <trkpt lat="43.17379" lon="5.76363">
        <ele>117.80000305176</ele>
        <time>2016-04-27T12:34:59.000Z</time>
      </trkpt>
      <trkpt lat="43.17368" lon="5.76364">
        <ele>118</ele>
        <time>2016-04-27T12:35:01.000Z</time>
      </trkpt>
      <trkpt lat="43.17357" lon="5.76367">
        <ele>118</ele>
        <time>2016-04-27T12:35:03.000Z</time>
      </trkpt>
      <trkpt lat="43.1735" lon="5.7637">
        <ele>118.19999694824</ele>
        <time>2016-04-27T12:35:05.000Z</time>
      </trkpt>
      <trkpt lat="43.17348" lon="5.76372">
        <ele>118.19999694824</ele>
        <time>2016-04-27T12:35:06.000Z</time>
      </trkpt>
      <trkpt lat="43.17342" lon="5.76377">
        <ele>117.80000305176</ele>
        <time>2016-04-27T12:35:08.000Z</time>
      </trkpt>
      <trkpt lat="43.17335" lon="5.7638">
        <ele>116.80000305176</ele>
        <time>2016-04-27T12:35:10.000Z</time>
      </trkpt>
      <trkpt lat="43.1733" lon="5.76384">
        <ele>116.40000152588</ele>
        <time>2016-04-27T12:35:11.000Z</time>
      </trkpt>
      <trkpt lat="43.17319" lon="5.76401">
        <ele>114.80000305176</ele>
        <time>2016-04-27T12:35:14.000Z</time>
      </trkpt>
      <trkpt lat="43.17315" lon="5.76408">
        <ele>114</ele>
        <time>2016-04-27T12:35:15.000Z</time>
      </trkpt>
      <trkpt lat="43.1731" lon="5.76415">
        <ele>113.40000152588</ele>
        <time>2016-04-27T12:35:16.000Z</time>
      </trkpt>
      <trkpt lat="43.17295" lon="5.76432">
        <ele>111.19999694824</ele>
        <time>2016-04-27T12:35:19.000Z</time>
      </trkpt>
      <trkpt lat="43.17289" lon="5.76437">
        <ele>110.59999847412</ele>
        <time>2016-04-27T12:35:20.000Z</time>
      </trkpt>
      <trkpt lat="43.17279" lon="5.76448">
        <ele>109.19999694824</ele>
        <time>2016-04-27T12:35:22.000Z</time>
      </trkpt>
      <trkpt lat="43.17274" lon="5.76453">
        <ele>108.59999847412</ele>
        <time>2016-04-27T12:35:23.000Z</time>
      </trkpt>
      <trkpt lat="43.17269" lon="5.76456">
        <ele>108.19999694824</ele>
        <time>2016-04-27T12:35:24.000Z</time>
      </trkpt>
      <trkpt lat="43.17264" lon="5.76459">
        <ele>107.59999847412</ele>
        <time>2016-04-27T12:35:25.000Z</time>
      </trkpt>
      <trkpt lat="43.17251" lon="5.76464">
        <ele>105.40000152588</ele>
        <time>2016-04-27T12:35:27.000Z</time>
      </trkpt>
      <trkpt lat="43.17244" lon="5.76467">
        <ele>105.59999847412</ele>
        <time>2016-04-27T12:35:28.000Z</time>
      </trkpt>
      <trkpt lat="43.17238" lon="5.7647">
        <ele>105.59999847412</ele>
        <time>2016-04-27T12:35:29.000Z</time>
      </trkpt>
      <trkpt lat="43.17225" lon="5.76477">
        <ele>105.59999847412</ele>
        <time>2016-04-27T12:35:31.000Z</time>
      </trkpt>
      <trkpt lat="43.17219" lon="5.76479">
        <ele>105.40000152588</ele>
        <time>2016-04-27T12:35:32.000Z</time>
      </trkpt>
      <trkpt lat="43.17214" lon="5.7648">
        <ele>105.19999694824</ele>
        <time>2016-04-27T12:35:33.000Z</time>
      </trkpt>
      <trkpt lat="43.1721" lon="5.76479">
        <ele>105</ele>
        <time>2016-04-27T12:35:34.000Z</time>
      </trkpt>
      <trkpt lat="43.17206" lon="5.76475">
        <ele>104.59999847412</ele>
        <time>2016-04-27T12:35:35.000Z</time>
      </trkpt>
      <trkpt lat="43.17203" lon="5.76471">
        <ele>104.19999694824</ele>
        <time>2016-04-27T12:35:36.000Z</time>
      </trkpt>
      <trkpt lat="43.17201" lon="5.76466">
        <ele>103.40000152588</ele>
        <time>2016-04-27T12:35:37.000Z</time>
      </trkpt>
      <trkpt lat="43.17197" lon="5.76456">
        <ele>101.80000305176</ele>
        <time>2016-04-27T12:35:39.000Z</time>
      </trkpt>
      <trkpt lat="43.17196" lon="5.7645">
        <ele>100.80000305176</ele>
        <time>2016-04-27T12:35:40.000Z</time>
      </trkpt>
      <trkpt lat="43.172" lon="5.76439">
        <ele>99.400001525879</ele>
        <time>2016-04-27T12:35:41.000Z</time>
      </trkpt>
      <trkpt lat="43.172" lon="5.76429">
        <ele>98</ele>
        <time>2016-04-27T12:35:42.000Z</time>
      </trkpt>
      <trkpt lat="43.17199" lon="5.76411">
        <ele>95.400001525879</ele>
        <time>2016-04-27T12:35:44.000Z</time>
      </trkpt>
      <trkpt lat="43.17197" lon="5.76396">
        <ele>94.800003051758</ele>
        <time>2016-04-27T12:35:46.000Z</time>
      </trkpt>
      <trkpt lat="43.17194" lon="5.76379">
        <ele>94.400001525879</ele>
        <time>2016-04-27T12:35:48.000Z</time>
      </trkpt>
      <trkpt lat="43.17192" lon="5.7637">
        <ele>94</ele>
        <time>2016-04-27T12:35:49.000Z</time>
      </trkpt>
      <trkpt lat="43.1719" lon="5.76361">
        <ele>93.599998474121</ele>
        <time>2016-04-27T12:35:50.000Z</time>
      </trkpt>
      <trkpt lat="43.17186" lon="5.76345">
        <ele>92.800003051758</ele>
        <time>2016-04-27T12:35:52.000Z</time>
      </trkpt>
      <trkpt lat="43.17182" lon="5.76338">
        <ele>92</ele>
        <time>2016-04-27T12:35:53.000Z</time>
      </trkpt>
      <trkpt lat="43.17178" lon="5.76332">
        <ele>91</ele>
        <time>2016-04-27T12:35:54.000Z</time>
      </trkpt>
      <trkpt lat="43.17174" lon="5.76327">
        <ele>90.599998474121</ele>
        <time>2016-04-27T12:35:55.000Z</time>
      </trkpt>
      <trkpt lat="43.17169" lon="5.76325">
        <ele>90.199996948242</ele>
        <time>2016-04-27T12:35:56.000Z</time>
      </trkpt>
      <trkpt lat="43.17164" lon="5.76324">
        <ele>89.599998474121</ele>
        <time>2016-04-27T12:35:57.000Z</time>
      </trkpt>
      <trkpt lat="43.17159" lon="5.76323">
        <ele>89.199996948242</ele>
        <time>2016-04-27T12:35:58.000Z</time>
      </trkpt>
      <trkpt lat="43.17154" lon="5.76323">
        <ele>88.599998474121</ele>
        <time>2016-04-27T12:35:59.000Z</time>
      </trkpt>
      <trkpt lat="43.17143" lon="5.76321">
        <ele>87.599998474121</ele>
        <time>2016-04-27T12:36:01.000Z</time>
      </trkpt>
      <trkpt lat="43.17137" lon="5.7632">
        <ele>87.199996948242</ele>
        <time>2016-04-27T12:36:02.000Z</time>
      </trkpt>
      <trkpt lat="43.17129" lon="5.7632">
        <ele>86.400001525879</ele>
        <time>2016-04-27T12:36:03.000Z</time>
      </trkpt>
      <trkpt lat="43.17111" lon="5.76318">
        <ele>84.599998474121</ele>
        <time>2016-04-27T12:36:05.000Z</time>
      </trkpt>
      <trkpt lat="43.17103" lon="5.76316">
        <ele>83.800003051758</ele>
        <time>2016-04-27T12:36:06.000Z</time>
      </trkpt>
      <trkpt lat="43.17096" lon="5.76314">
        <ele>82.800003051758</ele>
        <time>2016-04-27T12:36:07.000Z</time>
      </trkpt>
      <trkpt lat="43.17084" lon="5.76316">
        <ele>84.199996948242</ele>
        <time>2016-04-27T12:36:09.000Z</time>
      </trkpt>
      <trkpt lat="43.17077" lon="5.7633">
        <ele>84.800003051758</ele>
        <time>2016-04-27T12:36:11.000Z</time>
      </trkpt>
      <trkpt lat="43.17075" lon="5.76344">
        <ele>84.599998474121</ele>
        <time>2016-04-27T12:36:13.000Z</time>
      </trkpt>
      <trkpt lat="43.17075" lon="5.7635">
        <ele>84.400001525879</ele>
        <time>2016-04-27T12:36:14.000Z</time>
      </trkpt>
      <trkpt lat="43.17073" lon="5.76363">
        <ele>84.400001525879</ele>
        <time>2016-04-27T12:36:16.000Z</time>
      </trkpt>
      <trkpt lat="43.17069" lon="5.7637">
        <ele>84</ele>
        <time>2016-04-27T12:36:17.000Z</time>
      </trkpt>
      <trkpt lat="43.17061" lon="5.76389">
        <ele>83</ele>
        <time>2016-04-27T12:36:20.000Z</time>
      </trkpt>
      <trkpt lat="43.17059" lon="5.76396">
        <ele>83.599998474121</ele>
        <time>2016-04-27T12:36:21.000Z</time>
      </trkpt>
      <trkpt lat="43.17057" lon="5.76419">
        <ele>85.800003051758</ele>
        <time>2016-04-27T12:36:24.000Z</time>
      </trkpt>
      <trkpt lat="43.17057" lon="5.76427">
        <ele>86.400001525879</ele>
        <time>2016-04-27T12:36:25.000Z</time>
      </trkpt>
      <trkpt lat="43.17057" lon="5.76435">
        <ele>86.800003051758</ele>
        <time>2016-04-27T12:36:26.000Z</time>
      </trkpt>
      <trkpt lat="43.17056" lon="5.76443">
        <ele>86.199996948242</ele>
        <time>2016-04-27T12:36:27.000Z</time>
      </trkpt>
      <trkpt lat="43.17052" lon="5.76459">
        <ele>84.800003051758</ele>
        <time>2016-04-27T12:36:29.000Z</time>
      </trkpt>
      <trkpt lat="43.17049" lon="5.76467">
        <ele>84</ele>
        <time>2016-04-27T12:36:30.000Z</time>
      </trkpt>
      <trkpt lat="43.17042" lon="5.76482">
        <ele>84</ele>
        <time>2016-04-27T12:36:32.000Z</time>
      </trkpt>
      <trkpt lat="43.17032" lon="5.76495">
        <ele>83.599998474121</ele>
        <time>2016-04-27T12:36:34.000Z</time>
      </trkpt>
      <trkpt lat="43.17025" lon="5.76501">
        <ele>82</ele>
        <time>2016-04-27T12:36:35.000Z</time>
      </trkpt>
      <trkpt lat="43.17004" lon="5.76521">
        <ele>77.599998474121</ele>
        <time>2016-04-27T12:36:38.000Z</time>
      </trkpt>
      <trkpt lat="43.1699" lon="5.76534">
        <ele>76</ele>
        <time>2016-04-27T12:36:40.000Z</time>
      </trkpt>
      <trkpt lat="43.16977" lon="5.76546">
        <ele>73.199996948242</ele>
        <time>2016-04-27T12:36:42.000Z</time>
      </trkpt>
      <trkpt lat="43.16972" lon="5.76553">
        <ele>71.800003051758</ele>
        <time>2016-04-27T12:36:43.000Z</time>
      </trkpt>
      <trkpt lat="43.16967" lon="5.7656">
        <ele>71.400001525879</ele>
        <time>2016-04-27T12:36:44.000Z</time>
      </trkpt>
      <trkpt lat="43.16956" lon="5.76575">
        <ele>70.800003051758</ele>
        <time>2016-04-27T12:36:46.000Z</time>
      </trkpt>
      <trkpt lat="43.1695" lon="5.76584">
        <ele>69.800003051758</ele>
        <time>2016-04-27T12:36:47.000Z</time>
      </trkpt>
      <trkpt lat="43.16944" lon="5.76592">
        <ele>68.199996948242</ele>
        <time>2016-04-27T12:36:48.000Z</time>
      </trkpt>
      <trkpt lat="43.16931" lon="5.76606">
        <ele>65.199996948242</ele>
        <time>2016-04-27T12:36:50.000Z</time>
      </trkpt>
      <trkpt lat="43.16917" lon="5.76617">
        <ele>64.199996948242</ele>
        <time>2016-04-27T12:36:52.000Z</time>
      </trkpt>
      <trkpt lat="43.16903" lon="5.76629">
        <ele>62.200000762939</ele>
        <time>2016-04-27T12:36:54.000Z</time>
      </trkpt>
      <trkpt lat="43.16896" lon="5.76634">
        <ele>60.799999237061</ele>
        <time>2016-04-27T12:36:55.000Z</time>
      </trkpt>
      <trkpt lat="43.16883" lon="5.76649">
        <ele>59.599998474121</ele>
        <time>2016-04-27T12:36:57.000Z</time>
      </trkpt>
      <trkpt lat="43.16876" lon="5.76656">
        <ele>59.400001525879</ele>
        <time>2016-04-27T12:36:58.000Z</time>
      </trkpt>
      <trkpt lat="43.16869" lon="5.76663">
        <ele>59</ele>
        <time>2016-04-27T12:36:59.000Z</time>
      </trkpt>
      <trkpt lat="43.16856" lon="5.76677">
        <ele>57</ele>
        <time>2016-04-27T12:37:01.000Z</time>
      </trkpt>
      <trkpt lat="43.16845" lon="5.76692">
        <ele>55.400001525879</ele>
        <time>2016-04-27T12:37:03.000Z</time>
      </trkpt>
      <trkpt lat="43.16833" lon="5.76705">
        <ele>54.799999237061</ele>
        <time>2016-04-27T12:37:05.000Z</time>
      </trkpt>
      <trkpt lat="43.16823" lon="5.76714">
        <ele>53.200000762939</ele>
        <time>2016-04-27T12:37:07.000Z</time>
      </trkpt>
      <trkpt lat="43.16811" lon="5.76724">
        <ele>51</ele>
        <time>2016-04-27T12:37:09.000Z</time>
      </trkpt>
      <trkpt lat="43.16798" lon="5.76736">
        <ele>49.200000762939</ele>
        <time>2016-04-27T12:37:11.000Z</time>
      </trkpt>
      <trkpt lat="43.16785" lon="5.76748">
        <ele>47.599998474121</ele>
        <time>2016-04-27T12:37:13.000Z</time>
      </trkpt>
      <trkpt lat="43.16781" lon="5.76754">
        <ele>46.799999237061</ele>
        <time>2016-04-27T12:37:14.000Z</time>
      </trkpt>
      <trkpt lat="43.16777" lon="5.76761">
        <ele>46</ele>
        <time>2016-04-27T12:37:15.000Z</time>
      </trkpt>
      <trkpt lat="43.16768" lon="5.76772">
        <ele>44.799999237061</ele>
        <time>2016-04-27T12:37:17.000Z</time>
      </trkpt>
      <trkpt lat="43.16762" lon="5.76789">
        <ele>43.400001525879</ele>
        <time>2016-04-27T12:37:20.000Z</time>
      </trkpt>
      <trkpt lat="43.16763" lon="5.7681">
        <ele>43</ele>
        <time>2016-04-27T12:37:23.000Z</time>
      </trkpt>
      <trkpt lat="43.16762" lon="5.76816">
        <ele>42.799999237061</ele>
        <time>2016-04-27T12:37:24.000Z</time>
      </trkpt>
      <trkpt lat="43.16761" lon="5.76822">
        <ele>42.599998474121</ele>
        <time>2016-04-27T12:37:25.000Z</time>
      </trkpt>
      <trkpt lat="43.16743" lon="5.76875">
        <ele>40.799999237061</ele>
        <time>2016-04-27T12:37:36.000Z</time>
      </trkpt>
      <trkpt lat="43.16726" lon="5.76887">
        <ele>40.599998474121</ele>
        <time>2016-04-27T12:37:40.000Z</time>
      </trkpt>
      <trkpt lat="43.16718" lon="5.76885">
        <ele>40.400001525879</ele>
        <time>2016-04-27T12:37:42.000Z</time>
      </trkpt>
      <trkpt lat="43.16703" lon="5.76877">
        <ele>40.400001525879</ele>
        <time>2016-04-27T12:37:45.000Z</time>
      </trkpt>
      <trkpt lat="43.16676" lon="5.76861">
        <ele>40</ele>
        <time>2016-04-27T12:37:50.000Z</time>
      </trkpt>
      <trkpt lat="43.16659" lon="5.76851">
        <ele>39.799999237061</ele>
        <time>2016-04-27T12:37:53.000Z</time>
      </trkpt>
      <trkpt lat="43.16635" lon="5.76844">
        <ele>39.400001525879</ele>
        <time>2016-04-27T12:37:57.000Z</time>
      </trkpt>
      <trkpt lat="43.16622" lon="5.76843">
        <ele>40.200000762939</ele>
        <time>2016-04-27T12:37:59.000Z</time>
      </trkpt>
      <trkpt lat="43.16582" lon="5.76837">
        <ele>41.799999237061</ele>
        <time>2016-04-27T12:38:05.000Z</time>
      </trkpt>
      <trkpt lat="43.16563" lon="5.7683">
        <ele>41.599998474121</ele>
        <time>2016-04-27T12:38:08.000Z</time>
      </trkpt>
      <trkpt lat="43.1654" lon="5.76814">
        <ele>40.400001525879</ele>
        <time>2016-04-27T12:38:12.000Z</time>
      </trkpt>
      <trkpt lat="43.16535" lon="5.76809">
        <ele>40</ele>
        <time>2016-04-27T12:38:13.000Z</time>
      </trkpt>
      <trkpt lat="43.16513" lon="5.7678">
        <ele>40.599998474121</ele>
        <time>2016-04-27T12:38:18.000Z</time>
      </trkpt>
      <trkpt lat="43.16503" lon="5.76759">
        <ele>41.200000762939</ele>
        <time>2016-04-27T12:38:21.000Z</time>
      </trkpt>
      <trkpt lat="43.16498" lon="5.76744">
        <ele>41.599998474121</ele>
        <time>2016-04-27T12:38:23.000Z</time>
      </trkpt>
      <trkpt lat="43.16479" lon="5.76687">
        <ele>41.599998474121</ele>
        <time>2016-04-27T12:38:30.000Z</time>
      </trkpt>
      <trkpt lat="43.16477" lon="5.76679">
        <ele>41.599998474121</ele>
        <time>2016-04-27T12:38:31.000Z</time>
      </trkpt>
      <trkpt lat="43.16462" lon="5.76626">
        <ele>41</ele>
        <time>2016-04-27T12:38:38.000Z</time>
      </trkpt>
      <trkpt lat="43.16448" lon="5.7659">
        <ele>38.599998474121</ele>
        <time>2016-04-27T12:38:43.000Z</time>
      </trkpt>
      <trkpt lat="43.16424" lon="5.76548">
        <ele>36.400001525879</ele>
        <time>2016-04-27T12:38:49.000Z</time>
      </trkpt>
      <trkpt lat="43.16392" lon="5.76512">
        <ele>36.400001525879</ele>
        <time>2016-04-27T12:38:55.000Z</time>
      </trkpt>
      <trkpt lat="43.16385" lon="5.76507">
        <ele>36</ele>
        <time>2016-04-27T12:38:56.000Z</time>
      </trkpt>
      <trkpt lat="43.1635" lon="5.76474">
        <ele>35.400001525879</ele>
        <time>2016-04-27T12:39:01.000Z</time>
      </trkpt>
      <trkpt lat="43.16335" lon="5.76463">
        <ele>34.599998474121</ele>
        <time>2016-04-27T12:39:03.000Z</time>
      </trkpt>
      <trkpt lat="43.16327" lon="5.76459">
        <ele>34.400001525879</ele>
        <time>2016-04-27T12:39:04.000Z</time>
      </trkpt>
      <trkpt lat="43.16303" lon="5.76451">
        <ele>33.200000762939</ele>
        <time>2016-04-27T12:39:07.000Z</time>
      </trkpt>
      <trkpt lat="43.16249" lon="5.76444">
        <ele>30.799999237061</ele>
        <time>2016-04-27T12:39:14.000Z</time>
      </trkpt>
      <trkpt lat="43.16242" lon="5.76443">
        <ele>30.60000038147</ele>
        <time>2016-04-27T12:39:15.000Z</time>
      </trkpt>
      <trkpt lat="43.16213" lon="5.76437">
        <ele>29.60000038147</ele>
        <time>2016-04-27T12:39:19.000Z</time>
      </trkpt>
      <trkpt lat="43.16189" lon="5.76427">
        <ele>29</ele>
        <time>2016-04-27T12:39:23.000Z</time>
      </trkpt>
      <trkpt lat="43.16161" lon="5.76418">
        <ele>28</ele>
        <time>2016-04-27T12:39:27.000Z</time>
      </trkpt>
      <trkpt lat="43.16137" lon="5.76408">
        <ele>27.200000762939</ele>
        <time>2016-04-27T12:39:31.000Z</time>
      </trkpt>
      <trkpt lat="43.16099" lon="5.76383">
        <ele>26.799999237061</ele>
        <time>2016-04-27T12:39:38.000Z</time>
      </trkpt>
      <trkpt lat="43.16076" lon="5.7637">
        <ele>30.60000038147</ele>
        <time>2016-04-27T12:39:42.000Z</time>
      </trkpt>
      <trkpt lat="43.16051" lon="5.76363">
        <ele>33.200000762939</ele>
        <time>2016-04-27T12:39:46.000Z</time>
      </trkpt>
      <trkpt lat="43.1601" lon="5.76364">
        <ele>34.599998474121</ele>
        <time>2016-04-27T12:39:52.000Z</time>
      </trkpt>
      <trkpt lat="43.15976" lon="5.7638">
        <ele>37.799999237061</ele>
        <time>2016-04-27T12:39:57.000Z</time>
      </trkpt>
      <trkpt lat="43.15947" lon="5.76404">
        <ele>41.599998474121</ele>
        <time>2016-04-27T12:40:02.000Z</time>
      </trkpt>
      <trkpt lat="43.15938" lon="5.76417">
        <ele>40.400001525879</ele>
        <time>2016-04-27T12:40:04.000Z</time>
      </trkpt>
      <trkpt lat="43.15931" lon="5.76431">
        <ele>38.599998474121</ele>
        <time>2016-04-27T12:40:06.000Z</time>
      </trkpt>
      <trkpt lat="43.15908" lon="5.76479">
        <ele>31.60000038147</ele>
        <time>2016-04-27T12:40:13.000Z</time>
      </trkpt>
      <trkpt lat="43.15899" lon="5.76492">
        <ele>30.799999237061</ele>
        <time>2016-04-27T12:40:15.000Z</time>
      </trkpt>
      <trkpt lat="43.15879" lon="5.76505">
        <ele>30.200000762939</ele>
        <time>2016-04-27T12:40:18.000Z</time>
      </trkpt>
      <trkpt lat="43.15864" lon="5.76507">
        <ele>30.200000762939</ele>
        <time>2016-04-27T12:40:20.000Z</time>
      </trkpt>
      <trkpt lat="43.15847" lon="5.76508">
        <ele>30.39999961853</ele>
        <time>2016-04-27T12:40:22.000Z</time>
      </trkpt>
      <trkpt lat="43.15829" lon="5.76507">
        <ele>28.799999237061</ele>
        <time>2016-04-27T12:40:24.000Z</time>
      </trkpt>
      <trkpt lat="43.15811" lon="5.76502">
        <ele>27.200000762939</ele>
        <time>2016-04-27T12:40:26.000Z</time>
      </trkpt>
      <trkpt lat="43.15802" lon="5.76499">
        <ele>26.39999961853</ele>
        <time>2016-04-27T12:40:27.000Z</time>
      </trkpt>
      <trkpt lat="43.15774" lon="5.76485">
        <ele>24.60000038147</ele>
        <time>2016-04-27T12:40:30.000Z</time>
      </trkpt>
      <trkpt lat="43.15766" lon="5.76479">
        <ele>24.39999961853</ele>
        <time>2016-04-27T12:40:31.000Z</time>
      </trkpt>
      <trkpt lat="43.15748" lon="5.76468">
        <ele>24.200000762939</ele>
        <time>2016-04-27T12:40:33.000Z</time>
      </trkpt>
      <trkpt lat="43.15723" lon="5.76449">
        <ele>24.200000762939</ele>
        <time>2016-04-27T12:40:36.000Z</time>
      </trkpt>
      <trkpt lat="43.15698" lon="5.7643">
        <ele>24.200000762939</ele>
        <time>2016-04-27T12:40:39.000Z</time>
      </trkpt>
      <trkpt lat="43.15683" lon="5.76422">
        <ele>24.39999961853</ele>
        <time>2016-04-27T12:40:41.000Z</time>
      </trkpt>
      <trkpt lat="43.15675" lon="5.76419">
        <ele>24.200000762939</ele>
        <time>2016-04-27T12:40:42.000Z</time>
      </trkpt>
      <trkpt lat="43.15668" lon="5.76418">
        <ele>24</ele>
        <time>2016-04-27T12:40:43.000Z</time>
      </trkpt>
      <trkpt lat="43.15644" lon="5.76419">
        <ele>23.200000762939</ele>
        <time>2016-04-27T12:40:46.000Z</time>
      </trkpt>
      <trkpt lat="43.1563" lon="5.76419">
        <ele>22.60000038147</ele>
        <time>2016-04-27T12:40:48.000Z</time>
      </trkpt>
      <trkpt lat="43.15576" lon="5.76409">
        <ele>21</ele>
        <time>2016-04-27T12:40:56.000Z</time>
      </trkpt>
      <trkpt lat="43.15547" lon="5.76401">
        <ele>20.200000762939</ele>
        <time>2016-04-27T12:41:01.000Z</time>
      </trkpt>
      <trkpt lat="43.15534" lon="5.76398">
        <ele>19.799999237061</ele>
        <time>2016-04-27T12:41:03.000Z</time>
      </trkpt>
      <trkpt lat="43.15509" lon="5.76392">
        <ele>19.200000762939</ele>
        <time>2016-04-27T12:41:07.000Z</time>
      </trkpt>
      <trkpt lat="43.15466" lon="5.76381">
        <ele>18.799999237061</ele>
        <time>2016-04-27T12:41:14.000Z</time>
      </trkpt>
      <trkpt lat="43.15414" lon="5.76367">
        <ele>19.799999237061</ele>
        <time>2016-04-27T12:41:22.000Z</time>
      </trkpt>
      <trkpt lat="43.15375" lon="5.76361">
        <ele>20.799999237061</ele>
        <time>2016-04-27T12:41:28.000Z</time>
      </trkpt>
      <trkpt lat="43.15368" lon="5.76361">
        <ele>20.799999237061</ele>
        <time>2016-04-27T12:41:29.000Z</time>
      </trkpt>
      <trkpt lat="43.15362" lon="5.76361">
        <ele>21</ele>
        <time>2016-04-27T12:41:30.000Z</time>
      </trkpt>
      <trkpt lat="43.15349" lon="5.76359">
        <ele>21.200000762939</ele>
        <time>2016-04-27T12:41:32.000Z</time>
      </trkpt>
      <trkpt lat="43.15331" lon="5.76353">
        <ele>21.60000038147</ele>
        <time>2016-04-27T12:41:35.000Z</time>
      </trkpt>
      <trkpt lat="43.15313" lon="5.76347">
        <ele>22</ele>
        <time>2016-04-27T12:41:38.000Z</time>
      </trkpt>
      <trkpt lat="43.15299" lon="5.76345">
        <ele>22.200000762939</ele>
        <time>2016-04-27T12:41:40.000Z</time>
      </trkpt>
      <trkpt lat="43.15287" lon="5.76348">
        <ele>22.200000762939</ele>
        <time>2016-04-27T12:41:42.000Z</time>
      </trkpt>
      <trkpt lat="43.15273" lon="5.76352">
        <ele>22.200000762939</ele>
        <time>2016-04-27T12:41:44.000Z</time>
      </trkpt>
      <trkpt lat="43.15247" lon="5.76362">
        <ele>23.60000038147</ele>
        <time>2016-04-27T12:41:48.000Z</time>
      </trkpt>
      <trkpt lat="43.15207" lon="5.76386">
        <ele>22.799999237061</ele>
        <time>2016-04-27T12:41:54.000Z</time>
      </trkpt>
      <trkpt lat="43.15166" lon="5.76423">
        <ele>23.799999237061</ele>
        <time>2016-04-27T12:42:00.000Z</time>
      </trkpt>
      <trkpt lat="43.15153" lon="5.76435">
        <ele>24.39999961853</ele>
        <time>2016-04-27T12:42:02.000Z</time>
      </trkpt>
      <trkpt lat="43.15141" lon="5.76446">
        <ele>24.60000038147</ele>
        <time>2016-04-27T12:42:04.000Z</time>
      </trkpt>
      <trkpt lat="43.15114" lon="5.76463">
        <ele>24.60000038147</ele>
        <time>2016-04-27T12:42:08.000Z</time>
      </trkpt>
      <trkpt lat="43.15071" lon="5.76479">
        <ele>24.60000038147</ele>
        <time>2016-04-27T12:42:14.000Z</time>
      </trkpt>
      <trkpt lat="43.15056" lon="5.76483">
        <ele>24.39999961853</ele>
        <time>2016-04-27T12:42:16.000Z</time>
      </trkpt>
      <trkpt lat="43.15041" lon="5.76485">
        <ele>24</ele>
        <time>2016-04-27T12:42:18.000Z</time>
      </trkpt>
      <trkpt lat="43.15032" lon="5.76484">
        <ele>23.39999961853</ele>
        <time>2016-04-27T12:42:19.000Z</time>
      </trkpt>
      <trkpt lat="43.15024" lon="5.76481">
        <ele>22.799999237061</ele>
        <time>2016-04-27T12:42:20.000Z</time>
      </trkpt>
      <trkpt lat="43.15016" lon="5.76478">
        <ele>22.200000762939</ele>
        <time>2016-04-27T12:42:21.000Z</time>
      </trkpt>
      <trkpt lat="43.14981" lon="5.76466">
        <ele>19.799999237061</ele>
        <time>2016-04-27T12:42:26.000Z</time>
      </trkpt>
      <trkpt lat="43.14954" lon="5.76451">
        <ele>18.39999961853</ele>
        <time>2016-04-27T12:42:30.000Z</time>
      </trkpt>
      <trkpt lat="43.14948" lon="5.76445">
        <ele>18</ele>
        <time>2016-04-27T12:42:31.000Z</time>
      </trkpt>
      <trkpt lat="43.14928" lon="5.76418">
        <ele>16.799999237061</ele>
        <time>2016-04-27T12:42:35.000Z</time>
      </trkpt>
      <trkpt lat="43.14922" lon="5.76396">
        <ele>16.200000762939</ele>
        <time>2016-04-27T12:42:38.000Z</time>
      </trkpt>
      <trkpt lat="43.1492" lon="5.76388">
        <ele>16</ele>
        <time>2016-04-27T12:42:39.000Z</time>
      </trkpt>
      <trkpt lat="43.14914" lon="5.76361">
        <ele>18.799999237061</ele>
        <time>2016-04-27T12:42:43.000Z</time>
      </trkpt>
      <trkpt lat="43.14912" lon="5.76358">
        <ele>19</ele>
        <time>2016-04-27T12:42:44.000Z</time>
      </trkpt>
      <trkpt lat="43.14906" lon="5.7636">
        <ele>19.60000038147</ele>
        <time>2016-04-27T12:42:46.000Z</time>
      </trkpt>
      <trkpt lat="43.14889" lon="5.76384">
        <ele>16.200000762939</ele>
        <time>2016-04-27T12:42:50.000Z</time>
      </trkpt>
      <trkpt lat="43.14885" lon="5.7642">
        <ele>16.200000762939</ele>
        <time>2016-04-27T12:42:54.000Z</time>
      </trkpt>
      <trkpt lat="43.14868" lon="5.7644">
        <ele>16.200000762939</ele>
        <time>2016-04-27T12:42:57.000Z</time>
      </trkpt>
      <trkpt lat="43.14852" lon="5.76442">
        <ele>15.800000190735</ele>
        <time>2016-04-27T12:42:59.000Z</time>
      </trkpt>
      <trkpt lat="43.14844" lon="5.76443">
        <ele>15.60000038147</ele>
        <time>2016-04-27T12:43:00.000Z</time>
      </trkpt>
      <trkpt lat="43.14836" lon="5.76444">
        <ele>15.800000190735</ele>
        <time>2016-04-27T12:43:01.000Z</time>
      </trkpt>
      <trkpt lat="43.14798" lon="5.76448">
        <ele>15.199999809265</ele>
        <time>2016-04-27T12:43:06.000Z</time>
      </trkpt>
      <trkpt lat="43.14774" lon="5.76455">
        <ele>14</ele>
        <time>2016-04-27T12:43:09.000Z</time>
      </trkpt>
      <trkpt lat="43.14738" lon="5.76478">
        <ele>13.39999961853</ele>
        <time>2016-04-27T12:43:14.000Z</time>
      </trkpt>
      <trkpt lat="43.1469" lon="5.76511">
        <ele>13.39999961853</ele>
        <time>2016-04-27T12:43:21.000Z</time>
      </trkpt>
      <trkpt lat="43.1467" lon="5.76525">
        <ele>13.60000038147</ele>
        <time>2016-04-27T12:43:24.000Z</time>
      </trkpt>
      <trkpt lat="43.14634" lon="5.76558">
        <ele>15</ele>
        <time>2016-04-27T12:43:30.000Z</time>
      </trkpt>
      <trkpt lat="43.14606" lon="5.76601">
        <ele>15.39999961853</ele>
        <time>2016-04-27T12:43:36.000Z</time>
      </trkpt>
      <trkpt lat="43.14603" lon="5.7661">
        <ele>15</ele>
        <time>2016-04-27T12:43:37.000Z</time>
      </trkpt>
      <trkpt lat="43.14598" lon="5.76627">
        <ele>14.39999961853</ele>
        <time>2016-04-27T12:43:39.000Z</time>
      </trkpt>
      <trkpt lat="43.14595" lon="5.76637">
        <ele>14</ele>
        <time>2016-04-27T12:43:40.000Z</time>
      </trkpt>
      <trkpt lat="43.14583" lon="5.76685">
        <ele>14.199999809265</ele>
        <time>2016-04-27T12:43:45.000Z</time>
      </trkpt>
      <trkpt lat="43.14575" lon="5.76715">
        <ele>13.60000038147</ele>
        <time>2016-04-27T12:43:48.000Z</time>
      </trkpt>
      <trkpt lat="43.14566" lon="5.76733">
        <ele>13.39999961853</ele>
        <time>2016-04-27T12:43:50.000Z</time>
      </trkpt>
      <trkpt lat="43.14556" lon="5.76749">
        <ele>14.199999809265</ele>
        <time>2016-04-27T12:43:52.000Z</time>
      </trkpt>
      <trkpt lat="43.14538" lon="5.7677">
        <ele>14.199999809265</ele>
        <time>2016-04-27T12:43:55.000Z</time>
      </trkpt>
      <trkpt lat="43.14531" lon="5.76774">
        <ele>14</ele>
        <time>2016-04-27T12:43:56.000Z</time>
      </trkpt>
      <trkpt lat="43.1451" lon="5.76782">
        <ele>13.800000190735</ele>
        <time>2016-04-27T12:43:59.000Z</time>
      </trkpt>
      <trkpt lat="43.14502" lon="5.76785">
        <ele>13.199999809265</ele>
        <time>2016-04-27T12:44:00.000Z</time>
      </trkpt>
      <trkpt lat="43.14494" lon="5.76786">
        <ele>12.60000038147</ele>
        <time>2016-04-27T12:44:01.000Z</time>
      </trkpt>
      <trkpt lat="43.14471" lon="5.76781">
        <ele>12.60000038147</ele>
        <time>2016-04-27T12:44:04.000Z</time>
      </trkpt>
      <trkpt lat="43.14423" lon="5.76771">
        <ele>12.60000038147</ele>
        <time>2016-04-27T12:44:11.000Z</time>
      </trkpt>
      <trkpt lat="43.14417" lon="5.7677">
        <ele>12.39999961853</ele>
        <time>2016-04-27T12:44:12.000Z</time>
      </trkpt>
      <trkpt lat="43.14356" lon="5.76766">
        <ele>10.199999809265</ele>
        <time>2016-04-27T12:44:21.000Z</time>
      </trkpt>
      <trkpt lat="43.14305" lon="5.76773">
        <ele>17.39999961853</ele>
        <time>2016-04-27T12:44:29.000Z</time>
      </trkpt>
      <trkpt lat="43.14269" lon="5.76786">
        <ele>15.39999961853</ele>
        <time>2016-04-27T12:44:35.000Z</time>
      </trkpt>
      <trkpt lat="43.14258" lon="5.76794">
        <ele>14.800000190735</ele>
        <time>2016-04-27T12:44:37.000Z</time>
      </trkpt>
      <trkpt lat="43.14246" lon="5.76799">
        <ele>17.200000762939</ele>
        <time>2016-04-27T12:44:39.000Z</time>
      </trkpt>
      <trkpt lat="43.14239" lon="5.76798">
        <ele>19.39999961853</ele>
        <time>2016-04-27T12:44:40.000Z</time>
      </trkpt>
      <trkpt lat="43.14215" lon="5.76807">
        <ele>25.60000038147</ele>
        <time>2016-04-27T12:44:44.000Z</time>
      </trkpt>
      <trkpt lat="43.14201" lon="5.76826">
        <ele>28.799999237061</ele>
        <time>2016-04-27T12:44:47.000Z</time>
      </trkpt>
      <trkpt lat="43.14198" lon="5.76852">
        <ele>26</ele>
        <time>2016-04-27T12:44:50.000Z</time>
      </trkpt>
      <trkpt lat="43.14201" lon="5.7687">
        <ele>22.799999237061</ele>
        <time>2016-04-27T12:44:52.000Z</time>
      </trkpt>
      <trkpt lat="43.14199" lon="5.76889">
        <ele>20.60000038147</ele>
        <time>2016-04-27T12:44:54.000Z</time>
      </trkpt>
      <trkpt lat="43.14188" lon="5.76925">
        <ele>20.39999961853</ele>
        <time>2016-04-27T12:44:58.000Z</time>
      </trkpt>
      <trkpt lat="43.14183" lon="5.76943">
        <ele>19.200000762939</ele>
        <time>2016-04-27T12:45:00.000Z</time>
      </trkpt>
      <trkpt lat="43.14165" lon="5.76998">
        <ele>15.60000038147</ele>
        <time>2016-04-27T12:45:06.000Z</time>
      </trkpt>
      <trkpt lat="43.14138" lon="5.77065">
        <ele>13.39999961853</ele>
        <time>2016-04-27T12:45:14.000Z</time>
      </trkpt>
      <trkpt lat="43.14135" lon="5.77073">
        <ele>13.800000190735</ele>
        <time>2016-04-27T12:45:15.000Z</time>
      </trkpt>
      <trkpt lat="43.14103" lon="5.77133">
        <ele>7.5999999046326</ele>
        <time>2016-04-27T12:45:23.000Z</time>
      </trkpt>
      <trkpt lat="43.14097" lon="5.77138">
        <ele>7</ele>
        <time>2016-04-27T12:45:24.000Z</time>
      </trkpt>
      <trkpt lat="43.14077" lon="5.77147">
        <ele>7</ele>
        <time>2016-04-27T12:45:27.000Z</time>
      </trkpt>
      <trkpt lat="43.14061" lon="5.77148">
        <ele>7</ele>
        <time>2016-04-27T12:45:29.000Z</time>
      </trkpt>
      <trkpt lat="43.14045" lon="5.77142">
        <ele>7</ele>
        <time>2016-04-27T12:45:31.000Z</time>
      </trkpt>
      <trkpt lat="43.14037" lon="5.77139">
        <ele>7</ele>
        <time>2016-04-27T12:45:32.000Z</time>
      </trkpt>
      <trkpt lat="43.14025" lon="5.7713">
        <ele>7</ele>
        <time>2016-04-27T12:45:34.000Z</time>
      </trkpt>
      <trkpt lat="43.14021" lon="5.77123">
        <ele>7</ele>
        <time>2016-04-27T12:45:35.000Z</time>
      </trkpt>
      <trkpt lat="43.13994" lon="5.77076">
        <ele>6.1999998092651</ele>
        <time>2016-04-27T12:45:41.000Z</time>
      </trkpt>
      <trkpt lat="43.13972" lon="5.77017">
        <ele>5.5999999046326</ele>
        <time>2016-04-27T12:45:48.000Z</time>
      </trkpt>
      <trkpt lat="43.13957" lon="5.76965">
        <ele>6</ele>
        <time>2016-04-27T12:45:55.000Z</time>
      </trkpt>
      <trkpt lat="43.13955" lon="5.76961">
        <ele>5.8000001907349</ele>
        <time>2016-04-27T12:45:57.000Z</time>
      </trkpt>
      <trkpt lat="43.13954" lon="5.7696">
        <ele>5.8000001907349</ele>
        <time>2016-04-27T12:45:58.000Z</time>
      </trkpt>
      <trkpt lat="43.1395" lon="5.76957">
        <ele>5.4000000953674</ele>
        <time>2016-04-27T12:46:01.000Z</time>
      </trkpt>
      <trkpt lat="43.13948" lon="5.76959">
        <ele>5.4000000953674</ele>
        <time>2016-04-27T12:46:03.000Z</time>
      </trkpt>
      <trkpt lat="43.13947" lon="5.7696">
        <ele>5.1999998092651</ele>
        <time>2016-04-27T12:46:04.000Z</time>
      </trkpt>
      <trkpt lat="43.1394" lon="5.76978">
        <ele>4.8000001907349</ele>
        <time>2016-04-27T12:46:07.000Z</time>
      </trkpt>
      <trkpt lat="43.13938" lon="5.76987">
        <ele>4.4000000953674</ele>
        <time>2016-04-27T12:46:08.000Z</time>
      </trkpt>
      <trkpt lat="43.13927" lon="5.77022">
        <ele>3.4000000953674</ele>
        <time>2016-04-27T12:46:12.000Z</time>
      </trkpt>
      <trkpt lat="43.13909" lon="5.77093">
        <ele>2.5999999046326</ele>
        <time>2016-04-27T12:46:20.000Z</time>
      </trkpt>
      <trkpt lat="43.13902" lon="5.7712">
        <ele>2.2000000476837</ele>
        <time>2016-04-27T12:46:23.000Z</time>
      </trkpt>
      <trkpt lat="43.13894" lon="5.77145">
        <ele>1.6000000238419</ele>
        <time>2016-04-27T12:46:27.000Z</time>
      </trkpt>
      <trkpt lat="43.13892" lon="5.77151">
        <ele>1.7999999523163</ele>
        <time>2016-04-27T12:46:29.000Z</time>
      </trkpt>
      <trkpt lat="43.13891" lon="5.77151">
        <ele>1.7999999523163</ele>
        <time>2016-04-27T12:46:31.000Z</time>
      </trkpt>
      <trkpt lat="43.1389" lon="5.77158">
        <ele>2</ele>
        <time>2016-04-27T12:50:15.000Z</time>
      </trkpt>
      <trkpt lat="43.13889" lon="5.77167">
        <ele>2.2000000476837</ele>
        <time>2016-04-27T12:50:17.000Z</time>
      </trkpt>
      <trkpt lat="43.13883" lon="5.77195">
        <ele>2</ele>
        <time>2016-04-27T12:50:21.000Z</time>
      </trkpt>
      <trkpt lat="43.13866" lon="5.77251">
        <ele>2</ele>
        <time>2016-04-27T12:50:28.000Z</time>
      </trkpt>
      <trkpt lat="43.13845" lon="5.77326">
        <ele>3.4000000953674</ele>
        <time>2016-04-27T12:50:37.000Z</time>
      </trkpt>
      <trkpt lat="43.1382" lon="5.77398">
        <ele>5.1999998092651</ele>
        <time>2016-04-27T12:50:46.000Z</time>
      </trkpt>
      <trkpt lat="43.13816" lon="5.77405">
        <ele>5.8000001907349</ele>
        <time>2016-04-27T12:50:47.000Z</time>
      </trkpt>
      <trkpt lat="43.13788" lon="5.77476">
        <ele>6.4000000953674</ele>
        <time>2016-04-27T12:50:56.000Z</time>
      </trkpt>
      <trkpt lat="43.13784" lon="5.77484">
        <ele>6.1999998092651</ele>
        <time>2016-04-27T12:50:57.000Z</time>
      </trkpt>
      <trkpt lat="43.13752" lon="5.77553">
        <ele>7.4000000953674</ele>
        <time>2016-04-27T12:51:06.000Z</time>
      </trkpt>
      <trkpt lat="43.13748" lon="5.7756">
        <ele>7.8000001907349</ele>
        <time>2016-04-27T12:51:07.000Z</time>
      </trkpt>
      <trkpt lat="43.13733" lon="5.77588">
        <ele>10</ele>
        <time>2016-04-27T12:51:11.000Z</time>
      </trkpt>
      <trkpt lat="43.13708" lon="5.77628">
        <ele>10.800000190735</ele>
        <time>2016-04-27T12:51:17.000Z</time>
      </trkpt>
      <trkpt lat="43.13687" lon="5.77659">
        <ele>12</ele>
        <time>2016-04-27T12:51:22.000Z</time>
      </trkpt>
      <trkpt lat="43.13669" lon="5.77684">
        <ele>13.60000038147</ele>
        <time>2016-04-27T12:51:26.000Z</time>
      </trkpt>
      <trkpt lat="43.1366" lon="5.77696">
        <ele>14.60000038147</ele>
        <time>2016-04-27T12:51:28.000Z</time>
      </trkpt>
      <trkpt lat="43.13642" lon="5.77722">
        <ele>12.39999961853</ele>
        <time>2016-04-27T12:51:32.000Z</time>
      </trkpt>
      <trkpt lat="43.13615" lon="5.77759">
        <ele>12.199999809265</ele>
        <time>2016-04-27T12:51:38.000Z</time>
      </trkpt>
      <trkpt lat="43.13591" lon="5.77786">
        <ele>11.60000038147</ele>
        <time>2016-04-27T12:51:43.000Z</time>
      </trkpt>
      <trkpt lat="43.13576" lon="5.77803">
        <ele>11.39999961853</ele>
        <time>2016-04-27T12:51:46.000Z</time>
      </trkpt>
      <trkpt lat="43.13572" lon="5.77809">
        <ele>11.800000190735</ele>
        <time>2016-04-27T12:51:47.000Z</time>
      </trkpt>
      <trkpt lat="43.13556" lon="5.77835">
        <ele>15</ele>
        <time>2016-04-27T12:51:51.000Z</time>
      </trkpt>
      <trkpt lat="43.13548" lon="5.77848">
        <ele>16.39999961853</ele>
        <time>2016-04-27T12:51:53.000Z</time>
      </trkpt>
      <trkpt lat="43.13535" lon="5.77866">
        <ele>16.60000038147</ele>
        <time>2016-04-27T12:51:56.000Z</time>
      </trkpt>
      <trkpt lat="43.13516" lon="5.77888">
        <ele>16</ele>
        <time>2016-04-27T12:52:00.000Z</time>
      </trkpt>
      <trkpt lat="43.13473" lon="5.77924">
        <ele>17.39999961853</ele>
        <time>2016-04-27T12:52:08.000Z</time>
      </trkpt>
      <trkpt lat="43.13463" lon="5.77933">
        <ele>18.200000762939</ele>
        <time>2016-04-27T12:52:10.000Z</time>
      </trkpt>
      <trkpt lat="43.13431" lon="5.7796">
        <ele>21.60000038147</ele>
        <time>2016-04-27T12:52:16.000Z</time>
      </trkpt>
      <trkpt lat="43.1342" lon="5.77968">
        <ele>22.799999237061</ele>
        <time>2016-04-27T12:52:18.000Z</time>
      </trkpt>
      <trkpt lat="43.13405" lon="5.77981">
        <ele>22.200000762939</ele>
        <time>2016-04-27T12:52:21.000Z</time>
      </trkpt>
      <trkpt lat="43.13379" lon="5.78001">
        <ele>22</ele>
        <time>2016-04-27T12:52:26.000Z</time>
      </trkpt>
      <trkpt lat="43.13373" lon="5.78004">
        <ele>21.799999237061</ele>
        <time>2016-04-27T12:52:27.000Z</time>
      </trkpt>
      <trkpt lat="43.13367" lon="5.78007">
        <ele>21.799999237061</ele>
        <time>2016-04-27T12:52:28.000Z</time>
      </trkpt>
      <trkpt lat="43.13361" lon="5.7801">
        <ele>21.799999237061</ele>
        <time>2016-04-27T12:52:29.000Z</time>
      </trkpt>
      <trkpt lat="43.13338" lon="5.7802">
        <ele>23.200000762939</ele>
        <time>2016-04-27T12:52:33.000Z</time>
      </trkpt>
      <trkpt lat="43.13314" lon="5.7803">
        <ele>28.60000038147</ele>
        <time>2016-04-27T12:52:37.000Z</time>
      </trkpt>
      <trkpt lat="43.13302" lon="5.78034">
        <ele>27.799999237061</ele>
        <time>2016-04-27T12:52:39.000Z</time>
      </trkpt>
      <trkpt lat="43.13278" lon="5.78045">
        <ele>26.200000762939</ele>
        <time>2016-04-27T12:52:43.000Z</time>
      </trkpt>
      <trkpt lat="43.13255" lon="5.78056">
        <ele>24.39999961853</ele>
        <time>2016-04-27T12:52:47.000Z</time>
      </trkpt>
      <trkpt lat="43.13243" lon="5.78062">
        <ele>23.799999237061</ele>
        <time>2016-04-27T12:52:49.000Z</time>
      </trkpt>
      <trkpt lat="43.13232" lon="5.78069">
        <ele>23.200000762939</ele>
        <time>2016-04-27T12:52:51.000Z</time>
      </trkpt>
      <trkpt lat="43.13205" lon="5.78086">
        <ele>21.799999237061</ele>
        <time>2016-04-27T12:52:56.000Z</time>
      </trkpt>
      <trkpt lat="43.13188" lon="5.78096">
        <ele>21.39999961853</ele>
        <time>2016-04-27T12:52:59.000Z</time>
      </trkpt>
      <trkpt lat="43.13177" lon="5.78103">
        <ele>21</ele>
        <time>2016-04-27T12:53:01.000Z</time>
      </trkpt>
      <trkpt lat="43.13136" lon="5.78127">
        <ele>20</ele>
        <time>2016-04-27T12:53:08.000Z</time>
      </trkpt>
      <trkpt lat="43.13096" lon="5.78162">
        <ele>20</ele>
        <time>2016-04-27T12:53:15.000Z</time>
      </trkpt>
      <trkpt lat="43.13091" lon="5.78167">
        <ele>20.200000762939</ele>
        <time>2016-04-27T12:53:16.000Z</time>
      </trkpt>
      <trkpt lat="43.13063" lon="5.78192">
        <ele>21.60000038147</ele>
        <time>2016-04-27T12:53:21.000Z</time>
      </trkpt>
      <trkpt lat="43.13029" lon="5.78224">
        <ele>21.799999237061</ele>
        <time>2016-04-27T12:53:27.000Z</time>
      </trkpt>
      <trkpt lat="43.13013" lon="5.7824">
        <ele>21.200000762939</ele>
        <time>2016-04-27T12:53:30.000Z</time>
      </trkpt>
      <trkpt lat="43.12988" lon="5.78264">
        <ele>21.799999237061</ele>
        <time>2016-04-27T12:53:35.000Z</time>
      </trkpt>
      <trkpt lat="43.12979" lon="5.78273">
        <ele>22</ele>
        <time>2016-04-27T12:53:37.000Z</time>
      </trkpt>
      <trkpt lat="43.12964" lon="5.78287">
        <ele>23</ele>
        <time>2016-04-27T12:53:40.000Z</time>
      </trkpt>
      <trkpt lat="43.12945" lon="5.78307">
        <ele>24.39999961853</ele>
        <time>2016-04-27T12:53:44.000Z</time>
      </trkpt>
      <trkpt lat="43.12936" lon="5.78314">
        <ele>24.799999237061</ele>
        <time>2016-04-27T12:53:46.000Z</time>
      </trkpt>
      <trkpt lat="43.12931" lon="5.78314">
        <ele>24.39999961853</ele>
        <time>2016-04-27T12:53:47.000Z</time>
      </trkpt>
      <trkpt lat="43.12908" lon="5.78302">
        <ele>25</ele>
        <time>2016-04-27T12:53:51.000Z</time>
      </trkpt>
      <trkpt lat="43.12896" lon="5.78296">
        <ele>25.60000038147</ele>
        <time>2016-04-27T12:53:53.000Z</time>
      </trkpt>
      <trkpt lat="43.12885" lon="5.78287">
        <ele>25.799999237061</ele>
        <time>2016-04-27T12:53:55.000Z</time>
      </trkpt>
      <trkpt lat="43.12881" lon="5.78282">
        <ele>26</ele>
        <time>2016-04-27T12:53:56.000Z</time>
      </trkpt>
      <trkpt lat="43.12873" lon="5.78267">
        <ele>25.799999237061</ele>
        <time>2016-04-27T12:53:59.000Z</time>
      </trkpt>
      <trkpt lat="43.12871" lon="5.78262">
        <ele>25.799999237061</ele>
        <time>2016-04-27T12:54:00.000Z</time>
      </trkpt>
      <trkpt lat="43.12866" lon="5.78238">
        <ele>25</ele>
        <time>2016-04-27T12:54:05.000Z</time>
      </trkpt>
      <trkpt lat="43.1286" lon="5.78195">
        <ele>23</ele>
        <time>2016-04-27T12:54:13.000Z</time>
      </trkpt>
      <trkpt lat="43.12858" lon="5.78145">
        <ele>20.60000038147</ele>
        <time>2016-04-27T12:54:22.000Z</time>
      </trkpt>
      <trkpt lat="43.12855" lon="5.78092">
        <ele>18.799999237061</ele>
        <time>2016-04-27T12:54:31.000Z</time>
      </trkpt>
      <trkpt lat="43.12855" lon="5.78076">
        <ele>18.200000762939</ele>
        <time>2016-04-27T12:54:35.000Z</time>
      </trkpt>
      <trkpt lat="43.12856" lon="5.78072">
        <ele>18</ele>
        <time>2016-04-27T12:54:37.000Z</time>
      </trkpt>
      <trkpt lat="43.12854" lon="5.78062">
        <ele>17.799999237061</ele>
        <time>2016-04-27T12:54:42.000Z</time>
      </trkpt>
      <trkpt lat="43.12851" lon="5.78048">
        <ele>17.60000038147</ele>
        <time>2016-04-27T12:54:45.000Z</time>
      </trkpt>
      <trkpt lat="43.12851" lon="5.78043">
        <ele>17.60000038147</ele>
        <time>2016-04-27T12:54:46.000Z</time>
      </trkpt>
      <trkpt lat="43.1285" lon="5.78025">
        <ele>17.60000038147</ele>
        <time>2016-04-27T12:54:49.000Z</time>
      </trkpt>
      <trkpt lat="43.12851" lon="5.78006">
        <ele>17.200000762939</ele>
        <time>2016-04-27T12:54:52.000Z</time>
      </trkpt>
      <trkpt lat="43.12855" lon="5.77957">
        <ele>17</ele>
        <time>2016-04-27T12:54:58.000Z</time>
      </trkpt>
      <trkpt lat="43.12857" lon="5.77934">
        <ele>15.800000190735</ele>
        <time>2016-04-27T12:55:01.000Z</time>
      </trkpt>
      <trkpt lat="43.12856" lon="5.77919">
        <ele>15.199999809265</ele>
        <time>2016-04-27T12:55:03.000Z</time>
      </trkpt>
      <trkpt lat="43.12855" lon="5.77912">
        <ele>14.800000190735</ele>
        <time>2016-04-27T12:55:04.000Z</time>
      </trkpt>
      <trkpt lat="43.12847" lon="5.77893">
        <ele>14.199999809265</ele>
        <time>2016-04-27T12:55:08.000Z</time>
      </trkpt>
      <trkpt lat="43.12846" lon="5.77891">
        <ele>14</ele>
        <time>2016-04-27T12:55:09.000Z</time>
      </trkpt>
      <trkpt lat="43.12846" lon="5.77889">
        <ele>14</ele>
        <time>2016-04-27T12:55:10.000Z</time>
      </trkpt>
      <trkpt lat="43.12845" lon="5.77887">
        <ele>13.800000190735</ele>
        <time>2016-04-27T12:55:11.000Z</time>
      </trkpt>
      <trkpt lat="43.12844" lon="5.77886">
        <ele>13.60000038147</ele>
        <time>2016-04-27T12:55:12.000Z</time>
      </trkpt>
      <trkpt lat="43.12843" lon="5.77884">
        <ele>13.60000038147</ele>
        <time>2016-04-27T12:55:13.000Z</time>
      </trkpt>
      <trkpt lat="43.12842" lon="5.77882">
        <ele>13.60000038147</ele>
        <time>2016-04-27T12:55:14.000Z</time>
      </trkpt>
      <trkpt lat="43.12835" lon="5.7787">
        <ele>13</ele>
        <time>2016-04-27T12:55:18.000Z</time>
      </trkpt>
      <trkpt lat="43.12826" lon="5.77848">
        <ele>11.60000038147</ele>
        <time>2016-04-27T12:55:22.000Z</time>
      </trkpt>
      <trkpt lat="43.12823" lon="5.77841">
        <ele>11.39999961853</ele>
        <time>2016-04-27T12:55:23.000Z</time>
      </trkpt>
      <trkpt lat="43.12819" lon="5.77836">
        <ele>11.199999809265</ele>
        <time>2016-04-27T12:55:24.000Z</time>
      </trkpt>
      <trkpt lat="43.12817" lon="5.77831">
        <ele>11</ele>
        <time>2016-04-27T12:55:25.000Z</time>
      </trkpt>
      <trkpt lat="43.12806" lon="5.77806">
        <ele>9.3999996185303</ele>
        <time>2016-04-27T12:55:30.000Z</time>
      </trkpt>
      <trkpt lat="43.12802" lon="5.77798">
        <ele>10.199999809265</ele>
        <time>2016-04-27T12:55:32.000Z</time>
      </trkpt>
      <trkpt lat="43.12795" lon="5.77781">
        <ele>12.60000038147</ele>
        <time>2016-04-27T12:55:36.000Z</time>
      </trkpt>
      <trkpt lat="43.12792" lon="5.77772">
        <ele>13.60000038147</ele>
        <time>2016-04-27T12:55:38.000Z</time>
      </trkpt>
      <trkpt lat="43.1279" lon="5.77767">
        <ele>14.199999809265</ele>
        <time>2016-04-27T12:55:39.000Z</time>
      </trkpt>
      <trkpt lat="43.12784" lon="5.7775">
        <ele>16</ele>
        <time>2016-04-27T12:55:43.000Z</time>
      </trkpt>
      <trkpt lat="43.12783" lon="5.77746">
        <ele>16.60000038147</ele>
        <time>2016-04-27T12:55:44.000Z</time>
      </trkpt>
      <trkpt lat="43.1278" lon="5.77737">
        <ele>18</ele>
        <time>2016-04-27T12:55:46.000Z</time>
      </trkpt>
      <trkpt lat="43.12776" lon="5.77728">
        <ele>19.60000038147</ele>
        <time>2016-04-27T12:55:48.000Z</time>
      </trkpt>
      <trkpt lat="43.12774" lon="5.77723">
        <ele>20.39999961853</ele>
        <time>2016-04-27T12:55:49.000Z</time>
      </trkpt>
      <trkpt lat="43.1277" lon="5.77714">
        <ele>21.60000038147</ele>
        <time>2016-04-27T12:55:51.000Z</time>
      </trkpt>
      <trkpt lat="43.12765" lon="5.77706">
        <ele>21.39999961853</ele>
        <time>2016-04-27T12:55:53.000Z</time>
      </trkpt>
      <trkpt lat="43.12762" lon="5.77702">
        <ele>21.200000762939</ele>
        <time>2016-04-27T12:55:54.000Z</time>
      </trkpt>
      <trkpt lat="43.12747" lon="5.7768">
        <ele>20.799999237061</ele>
        <time>2016-04-27T12:55:59.000Z</time>
      </trkpt>
      <trkpt lat="43.12744" lon="5.77676">
        <ele>20.799999237061</ele>
        <time>2016-04-27T12:56:00.000Z</time>
      </trkpt>
      <trkpt lat="43.12724" lon="5.77648">
        <ele>20.200000762939</ele>
        <time>2016-04-27T12:56:07.000Z</time>
      </trkpt>
      <trkpt lat="43.12697" lon="5.77607">
        <ele>18</ele>
        <time>2016-04-27T12:56:15.000Z</time>
      </trkpt>
      <trkpt lat="43.12682" lon="5.77587">
        <ele>16.60000038147</ele>
        <time>2016-04-27T12:56:19.000Z</time>
      </trkpt>
      <trkpt lat="43.12669" lon="5.77572">
        <ele>16.60000038147</ele>
        <time>2016-04-27T12:56:22.000Z</time>
      </trkpt>
      <trkpt lat="43.12665" lon="5.77566">
        <ele>16.60000038147</ele>
        <time>2016-04-27T12:56:23.000Z</time>
      </trkpt>
      <trkpt lat="43.1265" lon="5.77547">
        <ele>17.60000038147</ele>
        <time>2016-04-27T12:56:27.000Z</time>
      </trkpt>
      <trkpt lat="43.12639" lon="5.77535">
        <ele>18.799999237061</ele>
        <time>2016-04-27T12:56:30.000Z</time>
      </trkpt>
      <trkpt lat="43.12627" lon="5.77521">
        <ele>20.200000762939</ele>
        <time>2016-04-27T12:56:34.000Z</time>
      </trkpt>
      <trkpt lat="43.12624" lon="5.77517">
        <ele>20.60000038147</ele>
        <time>2016-04-27T12:56:35.000Z</time>
      </trkpt>
      <trkpt lat="43.1262" lon="5.77513">
        <ele>21</ele>
        <time>2016-04-27T12:56:36.000Z</time>
      </trkpt>
      <trkpt lat="43.12617" lon="5.77509">
        <ele>21.39999961853</ele>
        <time>2016-04-27T12:56:37.000Z</time>
      </trkpt>
      <trkpt lat="43.12611" lon="5.775">
        <ele>22.200000762939</ele>
        <time>2016-04-27T12:56:39.000Z</time>
      </trkpt>
      <trkpt lat="43.12604" lon="5.77491">
        <ele>22.799999237061</ele>
        <time>2016-04-27T12:56:41.000Z</time>
      </trkpt>
      <trkpt lat="43.12593" lon="5.7748">
        <ele>24</ele>
        <time>2016-04-27T12:56:44.000Z</time>
      </trkpt>
      <trkpt lat="43.12589" lon="5.77479">
        <ele>24</ele>
        <time>2016-04-27T12:56:45.000Z</time>
      </trkpt>
      <trkpt lat="43.12575" lon="5.77478">
        <ele>23.799999237061</ele>
        <time>2016-04-27T12:56:48.000Z</time>
      </trkpt>
      <trkpt lat="43.1255" lon="5.77477">
        <ele>23.60000038147</ele>
        <time>2016-04-27T12:56:53.000Z</time>
      </trkpt>
      <trkpt lat="43.12539" lon="5.77477">
        <ele>23.39999961853</ele>
        <time>2016-04-27T12:56:55.000Z</time>
      </trkpt>
      <trkpt lat="43.12495" lon="5.77477">
        <ele>22.200000762939</ele>
        <time>2016-04-27T12:57:03.000Z</time>
      </trkpt>
      <trkpt lat="43.12484" lon="5.77483">
        <ele>21.799999237061</ele>
        <time>2016-04-27T12:57:07.000Z</time>
      </trkpt>
      <trkpt lat="43.12482" lon="5.77501">
        <ele>22.39999961853</ele>
        <time>2016-04-27T12:57:11.000Z</time>
      </trkpt>
      <trkpt lat="43.12483" lon="5.77509">
        <ele>22.799999237061</ele>
        <time>2016-04-27T12:57:12.000Z</time>
      </trkpt>
      <trkpt lat="43.12484" lon="5.77518">
        <ele>23.200000762939</ele>
        <time>2016-04-27T12:57:13.000Z</time>
      </trkpt>
      <trkpt lat="43.12485" lon="5.77534">
        <ele>23.799999237061</ele>
        <time>2016-04-27T12:57:15.000Z</time>
      </trkpt>
      <trkpt lat="43.12485" lon="5.7756">
        <ele>25</ele>
        <time>2016-04-27T12:57:19.000Z</time>
      </trkpt>
      <trkpt lat="43.12485" lon="5.77565">
        <ele>25</ele>
        <time>2016-04-27T12:57:20.000Z</time>
      </trkpt>
      <trkpt lat="43.12483" lon="5.77573">
        <ele>24.799999237061</ele>
        <time>2016-04-27T12:57:22.000Z</time>
      </trkpt>
      <trkpt lat="43.1248" lon="5.77575">
        <ele>24.60000038147</ele>
        <time>2016-04-27T12:57:23.000Z</time>
      </trkpt>
      <trkpt lat="43.12474" lon="5.77579">
        <ele>24.39999961853</ele>
        <time>2016-04-27T12:57:25.000Z</time>
      </trkpt>
      <trkpt lat="43.12459" lon="5.77589">
        <ele>23.799999237061</ele>
        <time>2016-04-27T12:57:29.000Z</time>
      </trkpt>
      <trkpt lat="43.12428" lon="5.77607">
        <ele>24.799999237061</ele>
        <time>2016-04-27T12:57:36.000Z</time>
      </trkpt>
      <trkpt lat="43.12397" lon="5.77627">
        <ele>22.39999961853</ele>
        <time>2016-04-27T12:57:42.000Z</time>
      </trkpt>
      <trkpt lat="43.12391" lon="5.77632">
        <ele>22</ele>
        <time>2016-04-27T12:57:43.000Z</time>
      </trkpt>
      <trkpt lat="43.12369" lon="5.77646">
        <ele>19.39999961853</ele>
        <time>2016-04-27T12:57:47.000Z</time>
      </trkpt>
      <trkpt lat="43.1235" lon="5.77661">
        <ele>17.39999961853</ele>
        <time>2016-04-27T12:57:51.000Z</time>
      </trkpt>
      <trkpt lat="43.12339" lon="5.77671">
        <ele>16.200000762939</ele>
        <time>2016-04-27T12:57:54.000Z</time>
      </trkpt>
      <trkpt lat="43.12325" lon="5.77679">
        <ele>13.800000190735</ele>
        <time>2016-04-27T12:57:57.000Z</time>
      </trkpt>
      <trkpt lat="43.12313" lon="5.77684">
        <ele>11.800000190735</ele>
        <time>2016-04-27T12:57:59.000Z</time>
      </trkpt>
      <trkpt lat="43.12307" lon="5.77687">
        <ele>10.800000190735</ele>
        <time>2016-04-27T12:58:00.000Z</time>
      </trkpt>
      <trkpt lat="43.12301" lon="5.77691">
        <ele>10.199999809265</ele>
        <time>2016-04-27T12:58:01.000Z</time>
      </trkpt>
      <trkpt lat="43.12296" lon="5.77696">
        <ele>9.6000003814697</ele>
        <time>2016-04-27T12:58:02.000Z</time>
      </trkpt>
      <trkpt lat="43.12287" lon="5.77708">
        <ele>8.6000003814697</ele>
        <time>2016-04-27T12:58:04.000Z</time>
      </trkpt>
      <trkpt lat="43.12281" lon="5.77715">
        <ele>7.8000001907349</ele>
        <time>2016-04-27T12:58:06.000Z</time>
      </trkpt>
      <trkpt lat="43.12277" lon="5.77718">
        <ele>7.1999998092651</ele>
        <time>2016-04-27T12:58:08.000Z</time>
      </trkpt>
      <trkpt lat="43.12273" lon="5.7772">
        <ele>6.8000001907349</ele>
        <time>2016-04-27T12:58:10.000Z</time>
      </trkpt>
      <trkpt lat="43.12271" lon="5.7772">
        <ele>6.4000000953674</ele>
        <time>2016-04-27T12:58:12.000Z</time>
      </trkpt>
      <trkpt lat="43.12267" lon="5.7772">
        <ele>6</ele>
        <time>2016-04-27T12:58:36.000Z</time>
      </trkpt>
      <trkpt lat="43.12263" lon="5.77723">
        <ele>5.4000000953674</ele>
        <time>2016-04-27T12:58:39.000Z</time>
      </trkpt>
      <trkpt lat="43.12257" lon="5.77727">
        <ele>6</ele>
        <time>2016-04-27T12:58:42.000Z</time>
      </trkpt>
      <trkpt lat="43.12254" lon="5.77728">
        <ele>6.8000001907349</ele>
        <time>2016-04-27T12:58:43.000Z</time>
      </trkpt>
      <trkpt lat="43.12239" lon="5.77733">
        <ele>10.199999809265</ele>
        <time>2016-04-27T12:58:46.000Z</time>
      </trkpt>
      <trkpt lat="43.1223" lon="5.77736">
        <ele>12.199999809265</ele>
        <time>2016-04-27T12:58:48.000Z</time>
      </trkpt>
      <trkpt lat="43.12215" lon="5.77742">
        <ele>15.800000190735</ele>
        <time>2016-04-27T12:58:52.000Z</time>
      </trkpt>
      <trkpt lat="43.12203" lon="5.77743">
        <ele>18.39999961853</ele>
        <time>2016-04-27T12:58:55.000Z</time>
      </trkpt>
      <trkpt lat="43.12196" lon="5.77739">
        <ele>19.60000038147</ele>
        <time>2016-04-27T12:58:57.000Z</time>
      </trkpt>
      <trkpt lat="43.12189" lon="5.77733">
        <ele>20.39999961853</ele>
        <time>2016-04-27T12:58:59.000Z</time>
      </trkpt>
      <trkpt lat="43.12186" lon="5.7773">
        <ele>20.799999237061</ele>
        <time>2016-04-27T12:59:00.000Z</time>
      </trkpt>
      <trkpt lat="43.12183" lon="5.77725">
        <ele>21</ele>
        <time>2016-04-27T12:59:01.000Z</time>
      </trkpt>
      <trkpt lat="43.12176" lon="5.77712">
        <ele>20.799999237061</ele>
        <time>2016-04-27T12:59:04.000Z</time>
      </trkpt>
      <trkpt lat="43.12169" lon="5.77699">
        <ele>20</ele>
        <time>2016-04-27T12:59:07.000Z</time>
      </trkpt>
      <trkpt lat="43.12164" lon="5.77691">
        <ele>19.60000038147</ele>
        <time>2016-04-27T12:59:09.000Z</time>
      </trkpt>
      <trkpt lat="43.12159" lon="5.77683">
        <ele>19.200000762939</ele>
        <time>2016-04-27T12:59:11.000Z</time>
      </trkpt>
      <trkpt lat="43.12154" lon="5.77676">
        <ele>18.799999237061</ele>
        <time>2016-04-27T12:59:13.000Z</time>
      </trkpt>
      <trkpt lat="43.12149" lon="5.7767">
        <ele>18.39999961853</ele>
        <time>2016-04-27T12:59:15.000Z</time>
      </trkpt>
      <trkpt lat="43.12144" lon="5.77664">
        <ele>18.39999961853</ele>
        <time>2016-04-27T12:59:17.000Z</time>
      </trkpt>
      <trkpt lat="43.1214" lon="5.77661">
        <ele>18.60000038147</ele>
        <time>2016-04-27T12:59:18.000Z</time>
      </trkpt>
      <trkpt lat="43.12132" lon="5.77658">
        <ele>19</ele>
        <time>2016-04-27T12:59:20.000Z</time>
      </trkpt>
      <trkpt lat="43.12119" lon="5.77657">
        <ele>20.39999961853</ele>
        <time>2016-04-27T12:59:23.000Z</time>
      </trkpt>
      <trkpt lat="43.12105" lon="5.77659">
        <ele>22.200000762939</ele>
        <time>2016-04-27T12:59:26.000Z</time>
      </trkpt>
      <trkpt lat="43.12088" lon="5.7766">
        <ele>23.200000762939</ele>
        <time>2016-04-27T12:59:30.000Z</time>
      </trkpt>
      <trkpt lat="43.1208" lon="5.77662">
        <ele>23.200000762939</ele>
        <time>2016-04-27T12:59:32.000Z</time>
      </trkpt>
      <trkpt lat="43.12051" lon="5.77668">
        <ele>23.200000762939</ele>
        <time>2016-04-27T12:59:38.000Z</time>
      </trkpt>
      <trkpt lat="43.12041" lon="5.7767">
        <ele>23.200000762939</ele>
        <time>2016-04-27T12:59:40.000Z</time>
      </trkpt>
      <trkpt lat="43.12018" lon="5.77678">
        <ele>22.60000038147</ele>
        <time>2016-04-27T12:59:44.000Z</time>
      </trkpt>
      <trkpt lat="43.12001" lon="5.77691">
        <ele>24.39999961853</ele>
        <time>2016-04-27T12:59:48.000Z</time>
      </trkpt>
      <trkpt lat="43.11998" lon="5.77694">
        <ele>25.200000762939</ele>
        <time>2016-04-27T12:59:49.000Z</time>
      </trkpt>
      <trkpt lat="43.11978" lon="5.77722">
        <ele>24.39999961853</ele>
        <time>2016-04-27T12:59:56.000Z</time>
      </trkpt>
      <trkpt lat="43.11957" lon="5.77748">
        <ele>25</ele>
        <time>2016-04-27T13:00:02.000Z</time>
      </trkpt>
      <trkpt lat="43.11935" lon="5.77774">
        <ele>24.39999961853</ele>
        <time>2016-04-27T13:00:07.000Z</time>
      </trkpt>
      <trkpt lat="43.11929" lon="5.77778">
        <ele>24.200000762939</ele>
        <time>2016-04-27T13:00:08.000Z</time>
      </trkpt>
      <trkpt lat="43.11911" lon="5.77784">
        <ele>25.39999961853</ele>
        <time>2016-04-27T13:00:11.000Z</time>
      </trkpt>
      <trkpt lat="43.11905" lon="5.77784">
        <ele>25.799999237061</ele>
        <time>2016-04-27T13:00:12.000Z</time>
      </trkpt>
      <trkpt lat="43.11894" lon="5.77781">
        <ele>25.799999237061</ele>
        <time>2016-04-27T13:00:14.000Z</time>
      </trkpt>
      <trkpt lat="43.11884" lon="5.77775">
        <ele>26</ele>
        <time>2016-04-27T13:00:16.000Z</time>
      </trkpt>
      <trkpt lat="43.1187" lon="5.77775">
        <ele>26</ele>
        <time>2016-04-27T13:00:19.000Z</time>
      </trkpt>
      <trkpt lat="43.11866" lon="5.77776">
        <ele>26</ele>
        <time>2016-04-27T13:00:20.000Z</time>
      </trkpt>
      <trkpt lat="43.11849" lon="5.77773">
        <ele>26.200000762939</ele>
        <time>2016-04-27T13:00:24.000Z</time>
      </trkpt>
      <trkpt lat="43.11834" lon="5.77767">
        <ele>25.799999237061</ele>
        <time>2016-04-27T13:00:28.000Z</time>
      </trkpt>
      <trkpt lat="43.11819" lon="5.77761">
        <ele>25.200000762939</ele>
        <time>2016-04-27T13:00:32.000Z</time>
      </trkpt>
      <trkpt lat="43.11812" lon="5.77759">
        <ele>24.799999237061</ele>
        <time>2016-04-27T13:00:34.000Z</time>
      </trkpt>
      <trkpt lat="43.11802" lon="5.77755">
        <ele>24.200000762939</ele>
        <time>2016-04-27T13:00:37.000Z</time>
      </trkpt>
      <trkpt lat="43.11795" lon="5.77752">
        <ele>24</ele>
        <time>2016-04-27T13:00:39.000Z</time>
      </trkpt>
      <trkpt lat="43.11791" lon="5.77751">
        <ele>23.799999237061</ele>
        <time>2016-04-27T13:00:40.000Z</time>
      </trkpt>
      <trkpt lat="43.11776" lon="5.77746">
        <ele>24</ele>
        <time>2016-04-27T13:00:44.000Z</time>
      </trkpt>
      <trkpt lat="43.11769" lon="5.77747">
        <ele>24.200000762939</ele>
        <time>2016-04-27T13:00:46.000Z</time>
      </trkpt>
      <trkpt lat="43.1176" lon="5.77756">
        <ele>25</ele>
        <time>2016-04-27T13:00:49.000Z</time>
      </trkpt>
      <trkpt lat="43.1175" lon="5.77785">
        <ele>25</ele>
        <time>2016-04-27T13:00:55.000Z</time>
      </trkpt>
      <trkpt lat="43.11743" lon="5.77805">
        <ele>25</ele>
        <time>2016-04-27T13:00:59.000Z</time>
      </trkpt>
      <trkpt lat="43.11737" lon="5.7782">
        <ele>24.799999237061</ele>
        <time>2016-04-27T13:01:02.000Z</time>
      </trkpt>
      <trkpt lat="43.11733" lon="5.7783">
        <ele>24.799999237061</ele>
        <time>2016-04-27T13:01:04.000Z</time>
      </trkpt>
      <trkpt lat="43.11729" lon="5.7784">
        <ele>24.39999961853</ele>
        <time>2016-04-27T13:01:06.000Z</time>
      </trkpt>
      <trkpt lat="43.11722" lon="5.77855">
        <ele>24</ele>
        <time>2016-04-27T13:01:09.000Z</time>
      </trkpt>
      <trkpt lat="43.11716" lon="5.77871">
        <ele>24</ele>
        <time>2016-04-27T13:01:12.000Z</time>
      </trkpt>
      <trkpt lat="43.11713" lon="5.77881">
        <ele>24.200000762939</ele>
        <time>2016-04-27T13:01:14.000Z</time>
      </trkpt>
      <trkpt lat="43.11711" lon="5.77887">
        <ele>24.200000762939</ele>
        <time>2016-04-27T13:01:15.000Z</time>
      </trkpt>
      <trkpt lat="43.11708" lon="5.77904">
        <ele>24</ele>
        <time>2016-04-27T13:01:18.000Z</time>
      </trkpt>
      <trkpt lat="43.11708" lon="5.77917">
        <ele>24.200000762939</ele>
        <time>2016-04-27T13:01:20.000Z</time>
      </trkpt>
      <trkpt lat="43.11708" lon="5.77923">
        <ele>24.200000762939</ele>
        <time>2016-04-27T13:01:21.000Z</time>
      </trkpt>
      <trkpt lat="43.1171" lon="5.77935">
        <ele>24.39999961853</ele>
        <time>2016-04-27T13:01:23.000Z</time>
      </trkpt>
      <trkpt lat="43.11714" lon="5.77946">
        <ele>25</ele>
        <time>2016-04-27T13:01:25.000Z</time>
      </trkpt>
      <trkpt lat="43.11716" lon="5.77951">
        <ele>25.200000762939</ele>
        <time>2016-04-27T13:01:26.000Z</time>
      </trkpt>
      <trkpt lat="43.11726" lon="5.77971">
        <ele>26.799999237061</ele>
        <time>2016-04-27T13:01:29.000Z</time>
      </trkpt>
      <trkpt lat="43.11746" lon="5.78012">
        <ele>31.799999237061</ele>
        <time>2016-04-27T13:01:34.000Z</time>
      </trkpt>
      <trkpt lat="43.11749" lon="5.78018">
        <ele>32.599998474121</ele>
        <time>2016-04-27T13:01:35.000Z</time>
      </trkpt>
      <trkpt lat="43.11751" lon="5.78024">
        <ele>33.200000762939</ele>
        <time>2016-04-27T13:01:36.000Z</time>
      </trkpt>
      <trkpt lat="43.11752" lon="5.7803">
        <ele>33.599998474121</ele>
        <time>2016-04-27T13:01:37.000Z</time>
      </trkpt>
      <trkpt lat="43.11752" lon="5.78036">
        <ele>33.799999237061</ele>
        <time>2016-04-27T13:01:38.000Z</time>
      </trkpt>
      <trkpt lat="43.11749" lon="5.78046">
        <ele>33.400001525879</ele>
        <time>2016-04-27T13:01:40.000Z</time>
      </trkpt>
      <trkpt lat="43.11746" lon="5.78051">
        <ele>32.799999237061</ele>
        <time>2016-04-27T13:01:41.000Z</time>
      </trkpt>
      <trkpt lat="43.11743" lon="5.78057">
        <ele>32.200000762939</ele>
        <time>2016-04-27T13:01:42.000Z</time>
      </trkpt>
      <trkpt lat="43.11729" lon="5.78085">
        <ele>30</ele>
        <time>2016-04-27T13:01:47.000Z</time>
      </trkpt>
      <trkpt lat="43.11717" lon="5.78108">
        <ele>27.39999961853</ele>
        <time>2016-04-27T13:01:52.000Z</time>
      </trkpt>
      <trkpt lat="43.11716" lon="5.78112">
        <ele>27</ele>
        <time>2016-04-27T13:01:53.000Z</time>
      </trkpt>
      <trkpt lat="43.11721" lon="5.78133">
        <ele>28.200000762939</ele>
        <time>2016-04-27T13:01:57.000Z</time>
      </trkpt>
      <trkpt lat="43.11725" lon="5.78153">
        <ele>29.60000038147</ele>
        <time>2016-04-27T13:02:01.000Z</time>
      </trkpt>
      <trkpt lat="43.11726" lon="5.78159">
        <ele>30</ele>
        <time>2016-04-27T13:02:02.000Z</time>
      </trkpt>
      <trkpt lat="43.11725" lon="5.7817">
        <ele>30.200000762939</ele>
        <time>2016-04-27T13:02:04.000Z</time>
      </trkpt>
      <trkpt lat="43.11724" lon="5.78188">
        <ele>30.200000762939</ele>
        <time>2016-04-27T13:02:07.000Z</time>
      </trkpt>
      <trkpt lat="43.11723" lon="5.78218">
        <ele>30.60000038147</ele>
        <time>2016-04-27T13:02:12.000Z</time>
      </trkpt>
      <trkpt lat="43.11722" lon="5.78236">
        <ele>29.39999961853</ele>
        <time>2016-04-27T13:02:15.000Z</time>
      </trkpt>
      <trkpt lat="43.11721" lon="5.78264">
        <ele>26.60000038147</ele>
        <time>2016-04-27T13:02:20.000Z</time>
      </trkpt>
      <trkpt lat="43.11719" lon="5.78277">
        <ele>26</ele>
        <time>2016-04-27T13:02:22.000Z</time>
      </trkpt>
      <trkpt lat="43.11709" lon="5.7832">
        <ele>22.799999237061</ele>
        <time>2016-04-27T13:02:28.000Z</time>
      </trkpt>
      <trkpt lat="43.11706" lon="5.78333">
        <ele>21.799999237061</ele>
        <time>2016-04-27T13:02:30.000Z</time>
      </trkpt>
      <trkpt lat="43.11702" lon="5.78348">
        <ele>21</ele>
        <time>2016-04-27T13:02:32.000Z</time>
      </trkpt>
      <trkpt lat="43.11699" lon="5.78361">
        <ele>20.200000762939</ele>
        <time>2016-04-27T13:02:34.000Z</time>
      </trkpt>
      <trkpt lat="43.11695" lon="5.78375">
        <ele>19.39999961853</ele>
        <time>2016-04-27T13:02:36.000Z</time>
      </trkpt>
      <trkpt lat="43.11692" lon="5.78388">
        <ele>18.60000038147</ele>
        <time>2016-04-27T13:02:38.000Z</time>
      </trkpt>
      <trkpt lat="43.11689" lon="5.78402">
        <ele>18.39999961853</ele>
        <time>2016-04-27T13:02:40.000Z</time>
      </trkpt>
      <trkpt lat="43.11688" lon="5.78407">
        <ele>18.39999961853</ele>
        <time>2016-04-27T13:02:41.000Z</time>
      </trkpt>
      <trkpt lat="43.11686" lon="5.78412">
        <ele>18.200000762939</ele>
        <time>2016-04-27T13:02:42.000Z</time>
      </trkpt>
      <trkpt lat="43.11684" lon="5.78417">
        <ele>18</ele>
        <time>2016-04-27T13:02:43.000Z</time>
      </trkpt>
      <trkpt lat="43.11679" lon="5.78425">
        <ele>17.200000762939</ele>
        <time>2016-04-27T13:02:45.000Z</time>
      </trkpt>
      <trkpt lat="43.11671" lon="5.78431">
        <ele>17.200000762939</ele>
        <time>2016-04-27T13:02:47.000Z</time>
      </trkpt>
      <trkpt lat="43.11662" lon="5.78433">
        <ele>17.200000762939</ele>
        <time>2016-04-27T13:02:49.000Z</time>
      </trkpt>
      <trkpt lat="43.11655" lon="5.78434">
        <ele>17.39999961853</ele>
        <time>2016-04-27T13:02:51.000Z</time>
      </trkpt>
      <trkpt lat="43.11652" lon="5.78434">
        <ele>17.39999961853</ele>
        <time>2016-04-27T13:02:52.000Z</time>
      </trkpt>
      <trkpt lat="43.11649" lon="5.78436">
        <ele>17.39999961853</ele>
        <time>2016-04-27T13:02:54.000Z</time>
      </trkpt>
      <trkpt lat="43.11648" lon="5.78437">
        <ele>17.60000038147</ele>
        <time>2016-04-27T13:02:55.000Z</time>
      </trkpt>
      <trkpt lat="43.11647" lon="5.78447">
        <ele>17.60000038147</ele>
        <time>2016-04-27T13:02:59.000Z</time>
      </trkpt>
      <trkpt lat="43.11647" lon="5.7845">
        <ele>17.60000038147</ele>
        <time>2016-04-27T13:03:00.000Z</time>
      </trkpt>
      <trkpt lat="43.11644" lon="5.78474">
        <ele>18</ele>
        <time>2016-04-27T13:03:09.000Z</time>
      </trkpt>
      <trkpt lat="43.11643" lon="5.78477">
        <ele>18</ele>
        <time>2016-04-27T13:03:10.000Z</time>
      </trkpt>
      <trkpt lat="43.11637" lon="5.78505">
        <ele>18</ele>
        <time>2016-04-27T13:03:19.000Z</time>
      </trkpt>
      <trkpt lat="43.11634" lon="5.78523">
        <ele>18</ele>
        <time>2016-04-27T13:03:25.000Z</time>
      </trkpt>
      <trkpt lat="43.11632" lon="5.78531">
        <ele>18</ele>
        <time>2016-04-27T13:03:28.000Z</time>
      </trkpt>
      <trkpt lat="43.11629" lon="5.7855">
        <ele>18</ele>
        <time>2016-04-27T13:03:37.000Z</time>
      </trkpt>
      <trkpt lat="43.11628" lon="5.78555">
        <ele>17.39999961853</ele>
        <time>2016-04-27T13:03:53.000Z</time>
      </trkpt>
      <trkpt lat="43.11625" lon="5.78563">
        <ele>17.200000762939</ele>
        <time>2016-04-27T13:03:56.000Z</time>
      </trkpt>
      <trkpt lat="43.11624" lon="5.78581">
        <ele>17</ele>
        <time>2016-04-27T13:04:03.000Z</time>
      </trkpt>
      <trkpt lat="43.11623" lon="5.78583">
        <ele>17</ele>
        <time>2016-04-27T13:04:21.000Z</time>
      </trkpt>
      <trkpt lat="43.11624" lon="5.78571">
        <ele>17.200000762939</ele>
        <time>2016-04-27T13:04:25.000Z</time>
      </trkpt>
      <trkpt lat="43.11625" lon="5.78568">
        <ele>17.200000762939</ele>
        <time>2016-04-27T13:04:26.000Z</time>
      </trkpt>
      <trkpt lat="43.11631" lon="5.78548">
        <ele>18</ele>
        <time>2016-04-27T13:04:32.000Z</time>
      </trkpt>
      <trkpt lat="43.11632" lon="5.78541">
        <ele>18</ele>
        <time>2016-04-27T13:04:34.000Z</time>
      </trkpt>
      <trkpt lat="43.11634" lon="5.78527">
        <ele>18</ele>
        <time>2016-04-27T13:04:38.000Z</time>
      </trkpt>
      <trkpt lat="43.11635" lon="5.78519">
        <ele>18</ele>
        <time>2016-04-27T13:04:40.000Z</time>
      </trkpt>
      <trkpt lat="43.11637" lon="5.78504">
        <ele>18</ele>
        <time>2016-04-27T13:04:44.000Z</time>
      </trkpt>
      <trkpt lat="43.11641" lon="5.78483">
        <ele>18</ele>
        <time>2016-04-27T13:04:50.000Z</time>
      </trkpt>
      <trkpt lat="43.11647" lon="5.78443">
        <ele>17.60000038147</ele>
        <time>2016-04-27T13:04:58.000Z</time>
      </trkpt>
      <trkpt lat="43.1165" lon="5.78436">
        <ele>17.39999961853</ele>
        <time>2016-04-27T13:05:02.000Z</time>
      </trkpt>
      <trkpt lat="43.11658" lon="5.78437">
        <ele>17.39999961853</ele>
        <time>2016-04-27T13:05:05.000Z</time>
      </trkpt>
      <trkpt lat="43.11661" lon="5.78437">
        <ele>17.39999961853</ele>
        <time>2016-04-27T13:05:06.000Z</time>
      </trkpt>
      <trkpt lat="43.1167" lon="5.7843">
        <ele>17</ele>
        <time>2016-04-27T13:05:09.000Z</time>
      </trkpt>
      <trkpt lat="43.11673" lon="5.78427">
        <ele>17</ele>
        <time>2016-04-27T13:05:10.000Z</time>
      </trkpt>
      <trkpt lat="43.11682" lon="5.7842">
        <ele>17.60000038147</ele>
        <time>2016-04-27T13:05:13.000Z</time>
      </trkpt>
      <trkpt lat="43.11695" lon="5.78414">
        <ele>19.60000038147</ele>
        <time>2016-04-27T13:05:17.000Z</time>
      </trkpt>
      <trkpt lat="43.11709" lon="5.78407">
        <ele>22</ele>
        <time>2016-04-27T13:05:21.000Z</time>
      </trkpt>
      <trkpt lat="43.11724" lon="5.78399">
        <ele>24.60000038147</ele>
        <time>2016-04-27T13:05:25.000Z</time>
      </trkpt>
      <trkpt lat="43.11732" lon="5.78395">
        <ele>26</ele>
        <time>2016-04-27T13:05:27.000Z</time>
      </trkpt>
      <trkpt lat="43.11743" lon="5.78389">
        <ele>27.799999237061</ele>
        <time>2016-04-27T13:05:30.000Z</time>
      </trkpt>
      <trkpt lat="43.11754" lon="5.78383">
        <ele>29.799999237061</ele>
        <time>2016-04-27T13:05:33.000Z</time>
      </trkpt>
      <trkpt lat="43.11757" lon="5.78381">
        <ele>30.60000038147</ele>
        <time>2016-04-27T13:05:34.000Z</time>
      </trkpt>
      <trkpt lat="43.11765" lon="5.78378">
        <ele>31.799999237061</ele>
        <time>2016-04-27T13:05:36.000Z</time>
      </trkpt>
      <trkpt lat="43.11772" lon="5.78374">
        <ele>32.799999237061</ele>
        <time>2016-04-27T13:05:38.000Z</time>
      </trkpt>
      <trkpt lat="43.11779" lon="5.78371">
        <ele>33.799999237061</ele>
        <time>2016-04-27T13:05:40.000Z</time>
      </trkpt>
      <trkpt lat="43.11786" lon="5.78367">
        <ele>34.799999237061</ele>
        <time>2016-04-27T13:05:42.000Z</time>
      </trkpt>
      <trkpt lat="43.11789" lon="5.78364">
        <ele>35.400001525879</ele>
        <time>2016-04-27T13:05:43.000Z</time>
      </trkpt>
      <trkpt lat="43.11798" lon="5.78356">
        <ele>36.799999237061</ele>
        <time>2016-04-27T13:05:46.000Z</time>
      </trkpt>
      <trkpt lat="43.11803" lon="5.78349">
        <ele>37.599998474121</ele>
        <time>2016-04-27T13:05:48.000Z</time>
      </trkpt>
      <trkpt lat="43.11806" lon="5.7834">
        <ele>38</ele>
        <time>2016-04-27T13:05:50.000Z</time>
      </trkpt>
      <trkpt lat="43.11806" lon="5.78325">
        <ele>38.200000762939</ele>
        <time>2016-04-27T13:05:53.000Z</time>
      </trkpt>
      <trkpt lat="43.11804" lon="5.7831">
        <ele>38.200000762939</ele>
        <time>2016-04-27T13:05:56.000Z</time>
      </trkpt>
      <trkpt lat="43.11802" lon="5.78295">
        <ele>38.799999237061</ele>
        <time>2016-04-27T13:05:59.000Z</time>
      </trkpt>
      <trkpt lat="43.11799" lon="5.78281">
        <ele>39.599998474121</ele>
        <time>2016-04-27T13:06:02.000Z</time>
      </trkpt>
      <trkpt lat="43.11797" lon="5.78272">
        <ele>40.200000762939</ele>
        <time>2016-04-27T13:06:04.000Z</time>
      </trkpt>
      <trkpt lat="43.11794" lon="5.78264">
        <ele>40.799999237061</ele>
        <time>2016-04-27T13:06:06.000Z</time>
      </trkpt>
      <trkpt lat="43.11793" lon="5.7826">
        <ele>40.799999237061</ele>
        <time>2016-04-27T13:06:07.000Z</time>
      </trkpt>
      <trkpt lat="43.11781" lon="5.78249">
        <ele>40.799999237061</ele>
        <time>2016-04-27T13:06:12.000Z</time>
      </trkpt>
      <trkpt lat="43.11766" lon="5.78249">
        <ele>39.200000762939</ele>
        <time>2016-04-27T13:06:16.000Z</time>
      </trkpt>
      <trkpt lat="43.11757" lon="5.78251">
        <ele>37.799999237061</ele>
        <time>2016-04-27T13:06:18.000Z</time>
      </trkpt>
      <trkpt lat="43.11733" lon="5.78254">
        <ele>30.799999237061</ele>
        <time>2016-04-27T13:06:25.000Z</time>
      </trkpt>
      <trkpt lat="43.11725" lon="5.78252">
        <ele>28.60000038147</ele>
        <time>2016-04-27T13:06:29.000Z</time>
      </trkpt>
      <trkpt lat="43.11724" lon="5.78251">
        <ele>28.60000038147</ele>
        <time>2016-04-27T13:06:30.000Z</time>
      </trkpt>
      <trkpt lat="43.11724" lon="5.78249">
        <ele>28.60000038147</ele>
        <time>2016-04-27T13:06:31.000Z</time>
      </trkpt>
      <trkpt lat="43.11724" lon="5.78236">
        <ele>29.799999237061</ele>
        <time>2016-04-27T13:06:34.000Z</time>
      </trkpt>
      <trkpt lat="43.11725" lon="5.78231">
        <ele>30.39999961853</ele>
        <time>2016-04-27T13:06:35.000Z</time>
      </trkpt>
      <trkpt lat="43.11729" lon="5.78193">
        <ele>31.60000038147</ele>
        <time>2016-04-27T13:06:43.000Z</time>
      </trkpt>
      <trkpt lat="43.11731" lon="5.78161">
        <ele>31.39999961853</ele>
        <time>2016-04-27T13:06:50.000Z</time>
      </trkpt>
      <trkpt lat="43.11733" lon="5.78155">
        <ele>31.799999237061</ele>
        <time>2016-04-27T13:06:52.000Z</time>
      </trkpt>
      <trkpt lat="43.11735" lon="5.78153">
        <ele>32.200000762939</ele>
        <time>2016-04-27T13:06:53.000Z</time>
      </trkpt>
      <trkpt lat="43.11737" lon="5.78153">
        <ele>33</ele>
        <time>2016-04-27T13:06:54.000Z</time>
      </trkpt>
      <trkpt lat="43.11748" lon="5.78154">
        <ele>36</ele>
        <time>2016-04-27T13:06:57.000Z</time>
      </trkpt>
      <trkpt lat="43.11759" lon="5.78155">
        <ele>39.200000762939</ele>
        <time>2016-04-27T13:07:00.000Z</time>
      </trkpt>
      <trkpt lat="43.11776" lon="5.78155">
        <ele>40.799999237061</ele>
        <time>2016-04-27T13:07:04.000Z</time>
      </trkpt>
      <trkpt lat="43.11785" lon="5.78154">
        <ele>41.599998474121</ele>
        <time>2016-04-27T13:07:06.000Z</time>
      </trkpt>
      <trkpt lat="43.11789" lon="5.78153">
        <ele>42.200000762939</ele>
        <time>2016-04-27T13:07:07.000Z</time>
      </trkpt>
      <trkpt lat="43.11794" lon="5.78153">
        <ele>42.599998474121</ele>
        <time>2016-04-27T13:07:08.000Z</time>
      </trkpt>
      <trkpt lat="43.11802" lon="5.78152">
        <ele>43.599998474121</ele>
        <time>2016-04-27T13:07:10.000Z</time>
      </trkpt>
      <trkpt lat="43.1181" lon="5.78152">
        <ele>44.400001525879</ele>
        <time>2016-04-27T13:07:12.000Z</time>
      </trkpt>
      <trkpt lat="43.11819" lon="5.78152">
        <ele>45.400001525879</ele>
        <time>2016-04-27T13:07:14.000Z</time>
      </trkpt>
      <trkpt lat="43.11823" lon="5.78153">
        <ele>45.799999237061</ele>
        <time>2016-04-27T13:07:15.000Z</time>
      </trkpt>
      <trkpt lat="43.11833" lon="5.78153">
        <ele>46.799999237061</ele>
        <time>2016-04-27T13:07:17.000Z</time>
      </trkpt>
      <trkpt lat="43.11847" lon="5.78154">
        <ele>48</ele>
        <time>2016-04-27T13:07:20.000Z</time>
      </trkpt>
      <trkpt lat="43.1186" lon="5.78154">
        <ele>48.200000762939</ele>
        <time>2016-04-27T13:07:23.000Z</time>
      </trkpt>
      <trkpt lat="43.11865" lon="5.78155">
        <ele>48.400001525879</ele>
        <time>2016-04-27T13:07:24.000Z</time>
      </trkpt>
      <trkpt lat="43.11873" lon="5.78158">
        <ele>48.400001525879</ele>
        <time>2016-04-27T13:07:26.000Z</time>
      </trkpt>
      <trkpt lat="43.11876" lon="5.78162">
        <ele>48.400001525879</ele>
        <time>2016-04-27T13:07:27.000Z</time>
      </trkpt>
      <trkpt lat="43.11881" lon="5.78186">
        <ele>48.400001525879</ele>
        <time>2016-04-27T13:07:31.000Z</time>
      </trkpt>
      <trkpt lat="43.11882" lon="5.78193">
        <ele>48.400001525879</ele>
        <time>2016-04-27T13:07:32.000Z</time>
      </trkpt>
      <trkpt lat="43.11886" lon="5.7823">
        <ele>47.799999237061</ele>
        <time>2016-04-27T13:07:37.000Z</time>
      </trkpt>
      <trkpt lat="43.11891" lon="5.78276">
        <ele>44.599998474121</ele>
        <time>2016-04-27T13:07:42.000Z</time>
      </trkpt>
      <trkpt lat="43.11898" lon="5.78328">
        <ele>41.799999237061</ele>
        <time>2016-04-27T13:07:47.000Z</time>
      </trkpt>
      <trkpt lat="43.11899" lon="5.78338">
        <ele>41.400001525879</ele>
        <time>2016-04-27T13:07:48.000Z</time>
      </trkpt>
      <trkpt lat="43.11901" lon="5.78358">
        <ele>40.799999237061</ele>
        <time>2016-04-27T13:07:50.000Z</time>
      </trkpt>
      <trkpt lat="43.11901" lon="5.78377">
        <ele>40.400001525879</ele>
        <time>2016-04-27T13:07:52.000Z</time>
      </trkpt>
      <trkpt lat="43.119" lon="5.78385">
        <ele>40.400001525879</ele>
        <time>2016-04-27T13:07:53.000Z</time>
      </trkpt>
      <trkpt lat="43.11898" lon="5.78393">
        <ele>40.200000762939</ele>
        <time>2016-04-27T13:07:54.000Z</time>
      </trkpt>
      <trkpt lat="43.11892" lon="5.78409">
        <ele>39.599998474121</ele>
        <time>2016-04-27T13:07:56.000Z</time>
      </trkpt>
      <trkpt lat="43.11888" lon="5.78416">
        <ele>39.400001525879</ele>
        <time>2016-04-27T13:07:57.000Z</time>
      </trkpt>
      <trkpt lat="43.11881" lon="5.78431">
        <ele>39</ele>
        <time>2016-04-27T13:07:59.000Z</time>
      </trkpt>
      <trkpt lat="43.11866" lon="5.78464">
        <ele>38.599998474121</ele>
        <time>2016-04-27T13:08:03.000Z</time>
      </trkpt>
      <trkpt lat="43.11862" lon="5.78472">
        <ele>38.599998474121</ele>
        <time>2016-04-27T13:08:04.000Z</time>
      </trkpt>
      <trkpt lat="43.11856" lon="5.78489">
        <ele>38.400001525879</ele>
        <time>2016-04-27T13:08:06.000Z</time>
      </trkpt>
      <trkpt lat="43.11854" lon="5.78498">
        <ele>38.400001525879</ele>
        <time>2016-04-27T13:08:07.000Z</time>
      </trkpt>
      <trkpt lat="43.11853" lon="5.78515">
        <ele>38.200000762939</ele>
        <time>2016-04-27T13:08:09.000Z</time>
      </trkpt>
      <trkpt lat="43.11857" lon="5.78541">
        <ele>37.599998474121</ele>
        <time>2016-04-27T13:08:12.000Z</time>
      </trkpt>
      <trkpt lat="43.1186" lon="5.7855">
        <ele>37.400001525879</ele>
        <time>2016-04-27T13:08:13.000Z</time>
      </trkpt>
      <trkpt lat="43.11876" lon="5.78595">
        <ele>38</ele>
        <time>2016-04-27T13:08:18.000Z</time>
      </trkpt>
      <trkpt lat="43.1188" lon="5.78603">
        <ele>37.799999237061</ele>
        <time>2016-04-27T13:08:19.000Z</time>
      </trkpt>
      <trkpt lat="43.11891" lon="5.78636">
        <ele>37.599998474121</ele>
        <time>2016-04-27T13:08:23.000Z</time>
      </trkpt>
      <trkpt lat="43.1189" lon="5.78644">
        <ele>37.799999237061</ele>
        <time>2016-04-27T13:08:24.000Z</time>
      </trkpt>
      <trkpt lat="43.11886" lon="5.78649">
        <ele>38.200000762939</ele>
        <time>2016-04-27T13:08:25.000Z</time>
      </trkpt>
      <trkpt lat="43.11878" lon="5.78657">
        <ele>38.599998474121</ele>
        <time>2016-04-27T13:08:27.000Z</time>
      </trkpt>
      <trkpt lat="43.11845" lon="5.7869">
        <ele>37.599998474121</ele>
        <time>2016-04-27T13:08:35.000Z</time>
      </trkpt>
      <trkpt lat="43.1182" lon="5.78723">
        <ele>34.599998474121</ele>
        <time>2016-04-27T13:08:40.000Z</time>
      </trkpt>
      <trkpt lat="43.11809" lon="5.78737">
        <ele>34</ele>
        <time>2016-04-27T13:08:42.000Z</time>
      </trkpt>
      <trkpt lat="43.11796" lon="5.78753">
        <ele>33</ele>
        <time>2016-04-27T13:08:45.000Z</time>
      </trkpt>
      <trkpt lat="43.11792" lon="5.78757">
        <ele>32.599998474121</ele>
        <time>2016-04-27T13:08:46.000Z</time>
      </trkpt>
      <trkpt lat="43.11788" lon="5.78757">
        <ele>32</ele>
        <time>2016-04-27T13:08:47.000Z</time>
      </trkpt>
      <trkpt lat="43.11783" lon="5.78756">
        <ele>31.200000762939</ele>
        <time>2016-04-27T13:08:48.000Z</time>
      </trkpt>
      <trkpt lat="43.1178" lon="5.7875">
        <ele>30.39999961853</ele>
        <time>2016-04-27T13:08:49.000Z</time>
      </trkpt>
      <trkpt lat="43.11777" lon="5.78743">
        <ele>29.60000038147</ele>
        <time>2016-04-27T13:08:50.000Z</time>
      </trkpt>
      <trkpt lat="43.11774" lon="5.78736">
        <ele>28.799999237061</ele>
        <time>2016-04-27T13:08:51.000Z</time>
      </trkpt>
      <trkpt lat="43.11765" lon="5.78708">
        <ele>27</ele>
        <time>2016-04-27T13:08:55.000Z</time>
      </trkpt>
      <trkpt lat="43.11754" lon="5.78706">
        <ele>25.39999961853</ele>
        <time>2016-04-27T13:08:58.000Z</time>
      </trkpt>
      <trkpt lat="43.11749" lon="5.78709">
        <ele>24.799999237061</ele>
        <time>2016-04-27T13:08:59.000Z</time>
      </trkpt>
      <trkpt lat="43.11744" lon="5.78713">
        <ele>23.799999237061</ele>
        <time>2016-04-27T13:09:00.000Z</time>
      </trkpt>
      <trkpt lat="43.11733" lon="5.7872">
        <ele>21.60000038147</ele>
        <time>2016-04-27T13:09:02.000Z</time>
      </trkpt>
      <trkpt lat="43.1172" lon="5.7873">
        <ele>19.39999961853</ele>
        <time>2016-04-27T13:09:04.000Z</time>
      </trkpt>
      <trkpt lat="43.1171" lon="5.78747">
        <ele>18.39999961853</ele>
        <time>2016-04-27T13:09:06.000Z</time>
      </trkpt>
      <trkpt lat="43.11703" lon="5.78761">
        <ele>17.200000762939</ele>
        <time>2016-04-27T13:09:08.000Z</time>
      </trkpt>
      <trkpt lat="43.11699" lon="5.78766">
        <ele>16.60000038147</ele>
        <time>2016-04-27T13:09:09.000Z</time>
      </trkpt>
      <trkpt lat="43.11695" lon="5.78769">
        <ele>15.60000038147</ele>
        <time>2016-04-27T13:09:10.000Z</time>
      </trkpt>
      <trkpt lat="43.11685" lon="5.78773">
        <ele>13.60000038147</ele>
        <time>2016-04-27T13:09:12.000Z</time>
      </trkpt>
      <trkpt lat="43.1168" lon="5.78775">
        <ele>12.60000038147</ele>
        <time>2016-04-27T13:09:13.000Z</time>
      </trkpt>
      <trkpt lat="43.11675" lon="5.78777">
        <ele>12</ele>
        <time>2016-04-27T13:09:14.000Z</time>
      </trkpt>
      <trkpt lat="43.11672" lon="5.78779">
        <ele>12</ele>
        <time>2016-04-27T13:09:15.000Z</time>
      </trkpt>
      <trkpt lat="43.1167" lon="5.78783">
        <ele>12</ele>
        <time>2016-04-27T13:09:16.000Z</time>
      </trkpt>
      <trkpt lat="43.11668" lon="5.78793">
        <ele>12</ele>
        <time>2016-04-27T13:09:18.000Z</time>
      </trkpt>
      <trkpt lat="43.11667" lon="5.78808">
        <ele>12.39999961853</ele>
        <time>2016-04-27T13:09:21.000Z</time>
      </trkpt>
      <trkpt lat="43.11666" lon="5.78821">
        <ele>13</ele>
        <time>2016-04-27T13:09:24.000Z</time>
      </trkpt>
      <trkpt lat="43.11662" lon="5.78859">
        <ele>15</ele>
        <time>2016-04-27T13:09:33.000Z</time>
      </trkpt>
      <trkpt lat="43.11655" lon="5.78898">
        <ele>16</ele>
        <time>2016-04-27T13:09:40.000Z</time>
      </trkpt>
      <trkpt lat="43.11641" lon="5.78938">
        <ele>17.799999237061</ele>
        <time>2016-04-27T13:09:47.000Z</time>
      </trkpt>
      <trkpt lat="43.11635" lon="5.78963">
        <ele>14.60000038147</ele>
        <time>2016-04-27T13:09:51.000Z</time>
      </trkpt>
      <trkpt lat="43.11632" lon="5.78981">
        <ele>13.60000038147</ele>
        <time>2016-04-27T13:09:54.000Z</time>
      </trkpt>
      <trkpt lat="43.11624" lon="5.79013">
        <ele>14</ele>
        <time>2016-04-27T13:10:00.000Z</time>
      </trkpt>
      <trkpt lat="43.11625" lon="5.79018">
        <ele>14.39999961853</ele>
        <time>2016-04-27T13:10:01.000Z</time>
      </trkpt>
      <trkpt lat="43.11627" lon="5.79027">
        <ele>15.39999961853</ele>
        <time>2016-04-27T13:10:03.000Z</time>
      </trkpt>
      <trkpt lat="43.11628" lon="5.79038">
        <ele>16.200000762939</ele>
        <time>2016-04-27T13:10:05.000Z</time>
      </trkpt>
      <trkpt lat="43.11628" lon="5.79051">
        <ele>17.200000762939</ele>
        <time>2016-04-27T13:10:07.000Z</time>
      </trkpt>
      <trkpt lat="43.11628" lon="5.79057">
        <ele>17.39999961853</ele>
        <time>2016-04-27T13:10:08.000Z</time>
      </trkpt>
      <trkpt lat="43.11627" lon="5.79081">
        <ele>16.799999237061</ele>
        <time>2016-04-27T13:10:12.000Z</time>
      </trkpt>
      <trkpt lat="43.11624" lon="5.79111">
        <ele>16.799999237061</ele>
        <time>2016-04-27T13:10:17.000Z</time>
      </trkpt>
      <trkpt lat="43.11622" lon="5.79151">
        <ele>16.60000038147</ele>
        <time>2016-04-27T13:10:23.000Z</time>
      </trkpt>
      <trkpt lat="43.11621" lon="5.79165">
        <ele>15.60000038147</ele>
        <time>2016-04-27T13:10:25.000Z</time>
      </trkpt>
      <trkpt lat="43.11619" lon="5.79208">
        <ele>14.60000038147</ele>
        <time>2016-04-27T13:10:31.000Z</time>
      </trkpt>
      <trkpt lat="43.11619" lon="5.79215">
        <ele>14.39999961853</ele>
        <time>2016-04-27T13:10:32.000Z</time>
      </trkpt>
      <trkpt lat="43.11615" lon="5.79266">
        <ele>14</ele>
        <time>2016-04-27T13:10:39.000Z</time>
      </trkpt>
      <trkpt lat="43.11614" lon="5.79274">
        <ele>14.199999809265</ele>
        <time>2016-04-27T13:10:40.000Z</time>
      </trkpt>
      <trkpt lat="43.11613" lon="5.79321">
        <ele>14</ele>
        <time>2016-04-27T13:10:46.000Z</time>
      </trkpt>
      <trkpt lat="43.11612" lon="5.79361">
        <ele>14</ele>
        <time>2016-04-27T13:10:51.000Z</time>
      </trkpt>
      <trkpt lat="43.11614" lon="5.79392">
        <ele>13.800000190735</ele>
        <time>2016-04-27T13:10:55.000Z</time>
      </trkpt>
      <trkpt lat="43.11621" lon="5.79443">
        <ele>14.39999961853</ele>
        <time>2016-04-27T13:11:02.000Z</time>
      </trkpt>
      <trkpt lat="43.11623" lon="5.79449">
        <ele>14.39999961853</ele>
        <time>2016-04-27T13:11:03.000Z</time>
      </trkpt>
      <trkpt lat="43.11626" lon="5.79456">
        <ele>14.60000038147</ele>
        <time>2016-04-27T13:11:04.000Z</time>
      </trkpt>
      <trkpt lat="43.11635" lon="5.79481">
        <ele>14.39999961853</ele>
        <time>2016-04-27T13:11:08.000Z</time>
      </trkpt>
      <trkpt lat="43.11642" lon="5.79501">
        <ele>14</ele>
        <time>2016-04-27T13:11:11.000Z</time>
      </trkpt>
      <trkpt lat="43.11655" lon="5.79536">
        <ele>13.39999961853</ele>
        <time>2016-04-27T13:11:16.000Z</time>
      </trkpt>
      <trkpt lat="43.11676" lon="5.79593">
        <ele>13.60000038147</ele>
        <time>2016-04-27T13:11:24.000Z</time>
      </trkpt>
      <trkpt lat="43.11688" lon="5.79648">
        <ele>14.39999961853</ele>
        <time>2016-04-27T13:11:31.000Z</time>
      </trkpt>
      <trkpt lat="43.1169" lon="5.79656">
        <ele>14.39999961853</ele>
        <time>2016-04-27T13:11:32.000Z</time>
      </trkpt>
      <trkpt lat="43.11705" lon="5.79705">
        <ele>14.60000038147</ele>
        <time>2016-04-27T13:11:38.000Z</time>
      </trkpt>
      <trkpt lat="43.11711" lon="5.79723">
        <ele>14.60000038147</ele>
        <time>2016-04-27T13:11:40.000Z</time>
      </trkpt>
      <trkpt lat="43.11722" lon="5.79753">
        <ele>13</ele>
        <time>2016-04-27T13:11:44.000Z</time>
      </trkpt>
      <trkpt lat="43.11729" lon="5.79774">
        <ele>12</ele>
        <time>2016-04-27T13:11:47.000Z</time>
      </trkpt>
      <trkpt lat="43.11734" lon="5.79795">
        <ele>12</ele>
        <time>2016-04-27T13:11:50.000Z</time>
      </trkpt>
      <trkpt lat="43.11734" lon="5.7981">
        <ele>12</ele>
        <time>2016-04-27T13:11:52.000Z</time>
      </trkpt>
      <trkpt lat="43.11735" lon="5.7985">
        <ele>11.60000038147</ele>
        <time>2016-04-27T13:11:57.000Z</time>
      </trkpt>
      <trkpt lat="43.11737" lon="5.79875">
        <ele>10.199999809265</ele>
        <time>2016-04-27T13:12:01.000Z</time>
      </trkpt>
      <trkpt lat="43.11739" lon="5.79896">
        <ele>8.8000001907349</ele>
        <time>2016-04-27T13:12:04.000Z</time>
      </trkpt>
      <trkpt lat="43.11743" lon="5.79917">
        <ele>8.1999998092651</ele>
        <time>2016-04-27T13:12:07.000Z</time>
      </trkpt>
      <trkpt lat="43.11744" lon="5.79924">
        <ele>8</ele>
        <time>2016-04-27T13:12:08.000Z</time>
      </trkpt>
      <trkpt lat="43.11755" lon="5.79968">
        <ele>6.1999998092651</ele>
        <time>2016-04-27T13:12:15.000Z</time>
      </trkpt>
      <trkpt lat="43.11758" lon="5.79977">
        <ele>5.8000001907349</ele>
        <time>2016-04-27T13:12:18.000Z</time>
      </trkpt>
      <trkpt lat="43.11759" lon="5.79979">
        <ele>5.8000001907349</ele>
        <time>2016-04-27T13:12:19.000Z</time>
      </trkpt>
      <trkpt lat="43.11763" lon="5.79997">
        <ele>5.1999998092651</ele>
        <time>2016-04-27T13:12:25.000Z</time>
      </trkpt>
      <trkpt lat="43.11766" lon="5.80002">
        <ele>5.1999998092651</ele>
        <time>2016-04-27T13:12:27.000Z</time>
      </trkpt>
      <trkpt lat="43.11771" lon="5.80012">
        <ele>5</ele>
        <time>2016-04-27T13:12:31.000Z</time>
      </trkpt>
      <trkpt lat="43.11773" lon="5.80016">
        <ele>5</ele>
        <time>2016-04-27T13:12:32.000Z</time>
      </trkpt>
      <trkpt lat="43.11777" lon="5.8003">
        <ele>4.5999999046326</ele>
        <time>2016-04-27T13:12:36.000Z</time>
      </trkpt>
      <trkpt lat="43.11785" lon="5.80061">
        <ele>4.1999998092651</ele>
        <time>2016-04-27T13:12:43.000Z</time>
      </trkpt>
      <trkpt lat="43.11781" lon="5.801">
        <ele>4</ele>
        <time>2016-04-27T13:12:51.000Z</time>
      </trkpt>
      <trkpt lat="43.11779" lon="5.80149">
        <ele>3.5999999046326</ele>
        <time>2016-04-27T13:13:00.000Z</time>
      </trkpt>
      <trkpt lat="43.11779" lon="5.80165">
        <ele>3.7999999523163</ele>
        <time>2016-04-27T13:13:03.000Z</time>
      </trkpt>
      <trkpt lat="43.11776" lon="5.80191">
        <ele>3.4000000953674</ele>
        <time>2016-04-27T13:13:08.000Z</time>
      </trkpt>
      <trkpt lat="43.11765" lon="5.8024">
        <ele>2.7999999523163</ele>
        <time>2016-04-27T13:13:18.000Z</time>
      </trkpt>
      <trkpt lat="43.11756" lon="5.80266">
        <ele>3.4000000953674</ele>
        <time>2016-04-27T13:13:24.000Z</time>
      </trkpt>
      <trkpt lat="43.11747" lon="5.80298">
        <ele>4.4000000953674</ele>
        <time>2016-04-27T13:13:30.000Z</time>
      </trkpt>
      <trkpt lat="43.11743" lon="5.8032">
        <ele>4.8000001907349</ele>
        <time>2016-04-27T13:13:34.000Z</time>
      </trkpt>
      <trkpt lat="43.11739" lon="5.80337">
        <ele>4.8000001907349</ele>
        <time>2016-04-27T13:13:37.000Z</time>
      </trkpt>
      <trkpt lat="43.11735" lon="5.80353">
        <ele>5</ele>
        <time>2016-04-27T13:13:40.000Z</time>
      </trkpt>
      <trkpt lat="43.11726" lon="5.80366">
        <ele>5</ele>
        <time>2016-04-27T13:13:43.000Z</time>
      </trkpt>
      <trkpt lat="43.11708" lon="5.80392">
        <ele>4.8000001907349</ele>
        <time>2016-04-27T13:13:49.000Z</time>
      </trkpt>
      <trkpt lat="43.11688" lon="5.80425">
        <ele>4.5999999046326</ele>
        <time>2016-04-27T13:13:56.000Z</time>
      </trkpt>
      <trkpt lat="43.11668" lon="5.80473">
        <ele>4.8000001907349</ele>
        <time>2016-04-27T13:14:05.000Z</time>
      </trkpt>
      <trkpt lat="43.11651" lon="5.80525">
        <ele>4.5999999046326</ele>
        <time>2016-04-27T13:14:14.000Z</time>
      </trkpt>
      <trkpt lat="43.11635" lon="5.80566">
        <ele>4.4000000953674</ele>
        <time>2016-04-27T13:14:22.000Z</time>
      </trkpt>
      <trkpt lat="43.11626" lon="5.8059">
        <ele>4</ele>
        <time>2016-04-27T13:14:27.000Z</time>
      </trkpt>
      <trkpt lat="43.11624" lon="5.80595">
        <ele>3.7999999523163</ele>
        <time>2016-04-27T13:14:29.000Z</time>
      </trkpt>
      <trkpt lat="43.1162" lon="5.80598">
        <ele>3.5999999046326</ele>
        <time>2016-04-27T13:14:34.000Z</time>
      </trkpt>
      <trkpt lat="43.11614" lon="5.80605">
        <ele>3.4000000953674</ele>
        <time>2016-04-27T13:14:36.000Z</time>
      </trkpt>
      <trkpt lat="43.11609" lon="5.80626">
        <ele>2.5999999046326</ele>
        <time>2016-04-27T13:14:39.000Z</time>
      </trkpt>
      <trkpt lat="43.11602" lon="5.80658">
        <ele>2.2000000476837</ele>
        <time>2016-04-27T13:14:43.000Z</time>
      </trkpt>
      <trkpt lat="43.11587" lon="5.80716">
        <ele>2</ele>
        <time>2016-04-27T13:14:51.000Z</time>
      </trkpt>
      <trkpt lat="43.1157" lon="5.80773">
        <ele>2</ele>
        <time>2016-04-27T13:15:00.000Z</time>
      </trkpt>
      <trkpt lat="43.11554" lon="5.80826">
        <ele>2.5999999046326</ele>
        <time>2016-04-27T13:15:08.000Z</time>
      </trkpt>
      <trkpt lat="43.11551" lon="5.80833">
        <ele>2.5999999046326</ele>
        <time>2016-04-27T13:15:09.000Z</time>
      </trkpt>
      <trkpt lat="43.11542" lon="5.80853">
        <ele>3</ele>
        <time>2016-04-27T13:15:12.000Z</time>
      </trkpt>
      <trkpt lat="43.11535" lon="5.80865">
        <ele>3.4000000953674</ele>
        <time>2016-04-27T13:15:14.000Z</time>
      </trkpt>
      <trkpt lat="43.11519" lon="5.80888">
        <ele>4</ele>
        <time>2016-04-27T13:15:18.000Z</time>
      </trkpt>
      <trkpt lat="43.11509" lon="5.80893">
        <ele>4</ele>
        <time>2016-04-27T13:15:20.000Z</time>
      </trkpt>
      <trkpt lat="43.11489" lon="5.80909">
        <ele>4</ele>
        <time>2016-04-27T13:15:24.000Z</time>
      </trkpt>
      <trkpt lat="43.11447" lon="5.80949">
        <ele>5</ele>
        <time>2016-04-27T13:15:34.000Z</time>
      </trkpt>
      <trkpt lat="43.11428" lon="5.80968">
        <ele>5.8000001907349</ele>
        <time>2016-04-27T13:15:38.000Z</time>
      </trkpt>
      <trkpt lat="43.11404" lon="5.8099">
        <ele>4.1999998092651</ele>
        <time>2016-04-27T13:15:43.000Z</time>
      </trkpt>
      <trkpt lat="43.11362" lon="5.81031">
        <ele>3</ele>
        <time>2016-04-27T13:15:52.000Z</time>
      </trkpt>
      <trkpt lat="43.11353" lon="5.8104">
        <ele>3.4000000953674</ele>
        <time>2016-04-27T13:15:54.000Z</time>
      </trkpt>
      <trkpt lat="43.11349" lon="5.81044">
        <ele>3.5999999046326</ele>
        <time>2016-04-27T13:15:55.000Z</time>
      </trkpt>
      <trkpt lat="43.11345" lon="5.81047">
        <ele>3.5999999046326</ele>
        <time>2016-04-27T13:15:56.000Z</time>
      </trkpt>
      <trkpt lat="43.11335" lon="5.81057">
        <ele>3.7999999523163</ele>
        <time>2016-04-27T13:15:59.000Z</time>
      </trkpt>
      <trkpt lat="43.11332" lon="5.81061">
        <ele>3.7999999523163</ele>
        <time>2016-04-27T13:16:00.000Z</time>
      </trkpt>
      <trkpt lat="43.11328" lon="5.81064">
        <ele>3.5999999046326</ele>
        <time>2016-04-27T13:16:01.000Z</time>
      </trkpt>
      <trkpt lat="43.11319" lon="5.81071">
        <ele>3.5999999046326</ele>
        <time>2016-04-27T13:16:03.000Z</time>
      </trkpt>
      <trkpt lat="43.1131" lon="5.8108">
        <ele>3.4000000953674</ele>
        <time>2016-04-27T13:16:05.000Z</time>
      </trkpt>
      <trkpt lat="43.11289" lon="5.81101">
        <ele>3.2000000476837</ele>
        <time>2016-04-27T13:16:10.000Z</time>
      </trkpt>
      <trkpt lat="43.11282" lon="5.8111">
        <ele>3</ele>
        <time>2016-04-27T13:16:12.000Z</time>
      </trkpt>
      <trkpt lat="43.11279" lon="5.81116">
        <ele>3.2000000476837</ele>
        <time>2016-04-27T13:16:13.000Z</time>
      </trkpt>
      <trkpt lat="43.11273" lon="5.81127">
        <ele>3.2000000476837</ele>
        <time>2016-04-27T13:16:15.000Z</time>
      </trkpt>
      <trkpt lat="43.11264" lon="5.81134">
        <ele>3</ele>
        <time>2016-04-27T13:16:17.000Z</time>
      </trkpt>
      <trkpt lat="43.1123" lon="5.81156">
        <ele>2.2000000476837</ele>
        <time>2016-04-27T13:16:24.000Z</time>
      </trkpt>
      <trkpt lat="43.11181" lon="5.81181">
        <ele>2.5999999046326</ele>
        <time>2016-04-27T13:16:33.000Z</time>
      </trkpt>
      <trkpt lat="43.11132" lon="5.81206">
        <ele>3.7999999523163</ele>
        <time>2016-04-27T13:16:42.000Z</time>
      </trkpt>
      <trkpt lat="43.11127" lon="5.81209">
        <ele>3.5999999046326</ele>
        <time>2016-04-27T13:16:43.000Z</time>
      </trkpt>
      <trkpt lat="43.11077" lon="5.81235">
        <ele>3.5999999046326</ele>
        <time>2016-04-27T13:16:52.000Z</time>
      </trkpt>
      <trkpt lat="43.11023" lon="5.81263">
        <ele>4.1999998092651</ele>
        <time>2016-04-27T13:17:02.000Z</time>
      </trkpt>
      <trkpt lat="43.10976" lon="5.81288">
        <ele>4.1999998092651</ele>
        <time>2016-04-27T13:17:11.000Z</time>
      </trkpt>
      <trkpt lat="43.10935" lon="5.81308">
        <ele>5.1999998092651</ele>
        <time>2016-04-27T13:17:19.000Z</time>
      </trkpt>
      <trkpt lat="43.10885" lon="5.81332">
        <ele>7.1999998092651</ele>
        <time>2016-04-27T13:17:29.000Z</time>
      </trkpt>
      <trkpt lat="43.10844" lon="5.81349">
        <ele>7</ele>
        <time>2016-04-27T13:17:37.000Z</time>
      </trkpt>
      <trkpt lat="43.10799" lon="5.81373">
        <ele>7.4000000953674</ele>
        <time>2016-04-27T13:17:46.000Z</time>
      </trkpt>
      <trkpt lat="43.10753" lon="5.81396">
        <ele>8</ele>
        <time>2016-04-27T13:17:55.000Z</time>
      </trkpt>
      <trkpt lat="43.10748" lon="5.81398">
        <ele>7.8000001907349</ele>
        <time>2016-04-27T13:17:56.000Z</time>
      </trkpt>
      <trkpt lat="43.10728" lon="5.81408">
        <ele>7.1999998092651</ele>
        <time>2016-04-27T13:18:00.000Z</time>
      </trkpt>
      <trkpt lat="43.10712" lon="5.8141">
        <ele>6.4000000953674</ele>
        <time>2016-04-27T13:18:03.000Z</time>
      </trkpt>
      <trkpt lat="43.10687" lon="5.81409">
        <ele>4.8000001907349</ele>
        <time>2016-04-27T13:18:08.000Z</time>
      </trkpt>
      <trkpt lat="43.10678" lon="5.81406">
        <ele>4.1999998092651</ele>
        <time>2016-04-27T13:18:10.000Z</time>
      </trkpt>
      <trkpt lat="43.10664" lon="5.81404">
        <ele>4.5999999046326</ele>
        <time>2016-04-27T13:18:13.000Z</time>
      </trkpt>
      <trkpt lat="43.10653" lon="5.81406">
        <ele>5.1999998092651</ele>
        <time>2016-04-27T13:18:16.000Z</time>
      </trkpt>
      <trkpt lat="43.10642" lon="5.81406">
        <ele>5.8000001907349</ele>
        <time>2016-04-27T13:18:19.000Z</time>
      </trkpt>
      <trkpt lat="43.10633" lon="5.81402">
        <ele>6</ele>
        <time>2016-04-27T13:18:21.000Z</time>
      </trkpt>
      <trkpt lat="43.10624" lon="5.81397">
        <ele>6</ele>
        <time>2016-04-27T13:18:23.000Z</time>
      </trkpt>
      <trkpt lat="43.106" lon="5.81383">
        <ele>6.5999999046326</ele>
        <time>2016-04-27T13:18:28.000Z</time>
      </trkpt>
      <trkpt lat="43.1057" lon="5.81367">
        <ele>7.5999999046326</ele>
        <time>2016-04-27T13:18:34.000Z</time>
      </trkpt>
      <trkpt lat="43.10566" lon="5.81364">
        <ele>7.8000001907349</ele>
        <time>2016-04-27T13:18:35.000Z</time>
      </trkpt>
      <trkpt lat="43.10528" lon="5.8134">
        <ele>9.8000001907349</ele>
        <time>2016-04-27T13:18:43.000Z</time>
      </trkpt>
      <trkpt lat="43.10493" lon="5.81319">
        <ele>11</ele>
        <time>2016-04-27T13:18:50.000Z</time>
      </trkpt>
      <trkpt lat="43.10479" lon="5.8131">
        <ele>11.199999809265</ele>
        <time>2016-04-27T13:18:53.000Z</time>
      </trkpt>
      <trkpt lat="43.10464" lon="5.81302">
        <ele>11.39999961853</ele>
        <time>2016-04-27T13:18:56.000Z</time>
      </trkpt>
      <trkpt lat="43.10449" lon="5.81295">
        <ele>11.800000190735</ele>
        <time>2016-04-27T13:18:59.000Z</time>
      </trkpt>
      <trkpt lat="43.10433" lon="5.81289">
        <ele>12</ele>
        <time>2016-04-27T13:19:02.000Z</time>
      </trkpt>
      <trkpt lat="43.10422" lon="5.81285">
        <ele>12.199999809265</ele>
        <time>2016-04-27T13:19:04.000Z</time>
      </trkpt>
      <trkpt lat="43.10416" lon="5.81283">
        <ele>12.39999961853</ele>
        <time>2016-04-27T13:19:05.000Z</time>
      </trkpt>
      <trkpt lat="43.10404" lon="5.81281">
        <ele>12.800000190735</ele>
        <time>2016-04-27T13:19:07.000Z</time>
      </trkpt>
      <trkpt lat="43.10387" lon="5.81277">
        <ele>12.800000190735</ele>
        <time>2016-04-27T13:19:10.000Z</time>
      </trkpt>
      <trkpt lat="43.10363" lon="5.81276">
        <ele>13</ele>
        <time>2016-04-27T13:19:14.000Z</time>
      </trkpt>
      <trkpt lat="43.10357" lon="5.81276">
        <ele>13.199999809265</ele>
        <time>2016-04-27T13:19:15.000Z</time>
      </trkpt>
      <trkpt lat="43.10327" lon="5.81276">
        <ele>14.39999961853</ele>
        <time>2016-04-27T13:19:20.000Z</time>
      </trkpt>
      <trkpt lat="43.10316" lon="5.81278">
        <ele>15.39999961853</ele>
        <time>2016-04-27T13:19:22.000Z</time>
      </trkpt>
      <trkpt lat="43.10304" lon="5.81279">
        <ele>15.39999961853</ele>
        <time>2016-04-27T13:19:24.000Z</time>
      </trkpt>
      <trkpt lat="43.1028" lon="5.81274">
        <ele>15.800000190735</ele>
        <time>2016-04-27T13:19:28.000Z</time>
      </trkpt>
      <trkpt lat="43.10274" lon="5.81273">
        <ele>15.800000190735</ele>
        <time>2016-04-27T13:19:29.000Z</time>
      </trkpt>
      <trkpt lat="43.10263" lon="5.8127">
        <ele>16</ele>
        <time>2016-04-27T13:19:31.000Z</time>
      </trkpt>
      <trkpt lat="43.1023" lon="5.81261">
        <ele>17.799999237061</ele>
        <time>2016-04-27T13:19:37.000Z</time>
      </trkpt>
      <trkpt lat="43.10224" lon="5.81259">
        <ele>18.200000762939</ele>
        <time>2016-04-27T13:19:38.000Z</time>
      </trkpt>
      <trkpt lat="43.10213" lon="5.81255">
        <ele>18.799999237061</ele>
        <time>2016-04-27T13:19:40.000Z</time>
      </trkpt>
      <trkpt lat="43.10191" lon="5.81244">
        <ele>20</ele>
        <time>2016-04-27T13:19:44.000Z</time>
      </trkpt>
      <trkpt lat="43.10186" lon="5.81242">
        <ele>20.39999961853</ele>
        <time>2016-04-27T13:19:45.000Z</time>
      </trkpt>
      <trkpt lat="43.10175" lon="5.81237">
        <ele>21</ele>
        <time>2016-04-27T13:19:47.000Z</time>
      </trkpt>
      <trkpt lat="43.1013" lon="5.81218">
        <ele>23.60000038147</ele>
        <time>2016-04-27T13:19:55.000Z</time>
      </trkpt>
      <trkpt lat="43.1012" lon="5.81213">
        <ele>24</ele>
        <time>2016-04-27T13:19:57.000Z</time>
      </trkpt>
      <trkpt lat="43.10085" lon="5.81201">
        <ele>25.200000762939</ele>
        <time>2016-04-27T13:20:04.000Z</time>
      </trkpt>
      <trkpt lat="43.10062" lon="5.81198">
        <ele>25</ele>
        <time>2016-04-27T13:20:09.000Z</time>
      </trkpt>
      <trkpt lat="43.10021" lon="5.81197">
        <ele>24.60000038147</ele>
        <time>2016-04-27T13:20:17.000Z</time>
      </trkpt>
      <trkpt lat="43.0999" lon="5.81197">
        <ele>23</ele>
        <time>2016-04-27T13:20:23.000Z</time>
      </trkpt>
      <trkpt lat="43.09952" lon="5.81198">
        <ele>19.39999961853</ele>
        <time>2016-04-27T13:20:29.000Z</time>
      </trkpt>
      <trkpt lat="43.09929" lon="5.812">
        <ele>17.200000762939</ele>
        <time>2016-04-27T13:20:32.000Z</time>
      </trkpt>
      <trkpt lat="43.09905" lon="5.81201">
        <ele>14</ele>
        <time>2016-04-27T13:20:35.000Z</time>
      </trkpt>
      <trkpt lat="43.0988" lon="5.81202">
        <ele>12.199999809265</ele>
        <time>2016-04-27T13:20:38.000Z</time>
      </trkpt>
      <trkpt lat="43.09872" lon="5.81202">
        <ele>11.60000038147</ele>
        <time>2016-04-27T13:20:39.000Z</time>
      </trkpt>
      <trkpt lat="43.09864" lon="5.81203">
        <ele>11</ele>
        <time>2016-04-27T13:20:40.000Z</time>
      </trkpt>
      <trkpt lat="43.09856" lon="5.81203">
        <ele>10.60000038147</ele>
        <time>2016-04-27T13:20:41.000Z</time>
      </trkpt>
      <trkpt lat="43.0984" lon="5.81205">
        <ele>9.6000003814697</ele>
        <time>2016-04-27T13:20:43.000Z</time>
      </trkpt>
      <trkpt lat="43.09817" lon="5.81208">
        <ele>8.6000003814697</ele>
        <time>2016-04-27T13:20:46.000Z</time>
      </trkpt>
      <trkpt lat="43.09809" lon="5.81209">
        <ele>8.1999998092651</ele>
        <time>2016-04-27T13:20:47.000Z</time>
      </trkpt>
      <trkpt lat="43.09801" lon="5.81211">
        <ele>7.8000001907349</ele>
        <time>2016-04-27T13:20:48.000Z</time>
      </trkpt>
      <trkpt lat="43.09785" lon="5.81213">
        <ele>7</ele>
        <time>2016-04-27T13:20:50.000Z</time>
      </trkpt>
      <trkpt lat="43.09778" lon="5.81214">
        <ele>6.5999999046326</ele>
        <time>2016-04-27T13:20:51.000Z</time>
      </trkpt>
      <trkpt lat="43.09766" lon="5.81217">
        <ele>6</ele>
        <time>2016-04-27T13:20:53.000Z</time>
      </trkpt>
      <trkpt lat="43.09754" lon="5.81219">
        <ele>5.5999999046326</ele>
        <time>2016-04-27T13:20:55.000Z</time>
      </trkpt>
      <trkpt lat="43.09737" lon="5.81222">
        <ele>5.1999998092651</ele>
        <time>2016-04-27T13:20:58.000Z</time>
      </trkpt>
      <trkpt lat="43.09726" lon="5.81225">
        <ele>5</ele>
        <time>2016-04-27T13:21:00.000Z</time>
      </trkpt>
      <trkpt lat="43.09716" lon="5.81227">
        <ele>4.8000001907349</ele>
        <time>2016-04-27T13:21:02.000Z</time>
      </trkpt>
      <trkpt lat="43.09703" lon="5.81232">
        <ele>4.5999999046326</ele>
        <time>2016-04-27T13:21:05.000Z</time>
      </trkpt>
      <trkpt lat="43.09664" lon="5.81245">
        <ele>3.7999999523163</ele>
        <time>2016-04-27T13:21:13.000Z</time>
      </trkpt>
      <trkpt lat="43.09659" lon="5.81247">
        <ele>3.7999999523163</ele>
        <time>2016-04-27T13:21:14.000Z</time>
      </trkpt>
      <trkpt lat="43.09608" lon="5.81262">
        <ele>4</ele>
        <time>2016-04-27T13:21:24.000Z</time>
      </trkpt>
      <trkpt lat="43.09567" lon="5.81276">
        <ele>5.1999998092651</ele>
        <time>2016-04-27T13:21:32.000Z</time>
      </trkpt>
      <trkpt lat="43.09524" lon="5.81282">
        <ele>8.3999996185303</ele>
        <time>2016-04-27T13:21:40.000Z</time>
      </trkpt>
      <trkpt lat="43.09514" lon="5.81282">
        <ele>9</ele>
        <time>2016-04-27T13:21:42.000Z</time>
      </trkpt>
      <trkpt lat="43.09508" lon="5.81282">
        <ele>9.1999998092651</ele>
        <time>2016-04-27T13:21:43.000Z</time>
      </trkpt>
      <trkpt lat="43.09486" lon="5.81279">
        <ele>9.1999998092651</ele>
        <time>2016-04-27T13:21:47.000Z</time>
      </trkpt>
      <trkpt lat="43.09455" lon="5.81269">
        <ele>8.6000003814697</ele>
        <time>2016-04-27T13:21:53.000Z</time>
      </trkpt>
      <trkpt lat="43.09451" lon="5.81267">
        <ele>8.3999996185303</ele>
        <time>2016-04-27T13:21:54.000Z</time>
      </trkpt>
      <trkpt lat="43.09432" lon="5.81259">
        <ele>7.8000001907349</ele>
        <time>2016-04-27T13:21:58.000Z</time>
      </trkpt>
      <trkpt lat="43.09418" lon="5.81252">
        <ele>7.4000000953674</ele>
        <time>2016-04-27T13:22:01.000Z</time>
      </trkpt>
      <trkpt lat="43.094" lon="5.81244">
        <ele>7.1999998092651</ele>
        <time>2016-04-27T13:22:05.000Z</time>
      </trkpt>
      <trkpt lat="43.09372" lon="5.8123">
        <ele>6.8000001907349</ele>
        <time>2016-04-27T13:22:11.000Z</time>
      </trkpt>
      <trkpt lat="43.09345" lon="5.81217">
        <ele>6.4000000953674</ele>
        <time>2016-04-27T13:22:17.000Z</time>
      </trkpt>
      <trkpt lat="43.09332" lon="5.8121">
        <ele>6.8000001907349</ele>
        <time>2016-04-27T13:22:20.000Z</time>
      </trkpt>
      <trkpt lat="43.09328" lon="5.81209">
        <ele>6.8000001907349</ele>
        <time>2016-04-27T13:22:21.000Z</time>
      </trkpt>
      <trkpt lat="43.09316" lon="5.81203">
        <ele>6.5999999046326</ele>
        <time>2016-04-27T13:22:24.000Z</time>
      </trkpt>
      <trkpt lat="43.09301" lon="5.81196">
        <ele>6.5999999046326</ele>
        <time>2016-04-27T13:22:28.000Z</time>
      </trkpt>
      <trkpt lat="43.0929" lon="5.81191">
        <ele>6.5999999046326</ele>
        <time>2016-04-27T13:22:31.000Z</time>
      </trkpt>
      <trkpt lat="43.09274" lon="5.81183">
        <ele>6.4000000953674</ele>
        <time>2016-04-27T13:22:36.000Z</time>
      </trkpt>
      <trkpt lat="43.09268" lon="5.81179">
        <ele>6.4000000953674</ele>
        <time>2016-04-27T13:22:38.000Z</time>
      </trkpt>
      <trkpt lat="43.0926" lon="5.81166">
        <ele>6</ele>
        <time>2016-04-27T13:22:42.000Z</time>
      </trkpt>
      <trkpt lat="43.0925" lon="5.81149">
        <ele>6</ele>
        <time>2016-04-27T13:22:48.000Z</time>
      </trkpt>
      <trkpt lat="43.09242" lon="5.81146">
        <ele>6.4000000953674</ele>
        <time>2016-04-27T13:23:57.000Z</time>
      </trkpt>
      <trkpt lat="43.09237" lon="5.81144">
        <ele>6.5999999046326</ele>
        <time>2016-04-27T13:24:00.000Z</time>
      </trkpt>
      <trkpt lat="43.0923" lon="5.81143">
        <ele>7</ele>
        <time>2016-04-27T13:24:02.000Z</time>
      </trkpt>
      <trkpt lat="43.09226" lon="5.81143">
        <ele>7.1999998092651</ele>
        <time>2016-04-27T13:24:03.000Z</time>
      </trkpt>
      <trkpt lat="43.09213" lon="5.81152">
        <ele>8.1999998092651</ele>
        <time>2016-04-27T13:24:07.000Z</time>
      </trkpt>
      <trkpt lat="43.09205" lon="5.81153">
        <ele>8.8000001907349</ele>
        <time>2016-04-27T13:24:09.000Z</time>
      </trkpt>
      <trkpt lat="43.09201" lon="5.81152">
        <ele>9</ele>
        <time>2016-04-27T13:24:10.000Z</time>
      </trkpt>
      <trkpt lat="43.09169" lon="5.81136">
        <ele>10</ele>
        <time>2016-04-27T13:24:17.000Z</time>
      </trkpt>
      <trkpt lat="43.09135" lon="5.81118">
        <ele>10</ele>
        <time>2016-04-27T13:24:24.000Z</time>
      </trkpt>
      <trkpt lat="43.09092" lon="5.81095">
        <ele>10</ele>
        <time>2016-04-27T13:24:33.000Z</time>
      </trkpt>
      <trkpt lat="43.09053" lon="5.81078">
        <ele>10</ele>
        <time>2016-04-27T13:24:41.000Z</time>
      </trkpt>
      <trkpt lat="43.09011" lon="5.81062">
        <ele>10</ele>
        <time>2016-04-27T13:24:50.000Z</time>
      </trkpt>
      <trkpt lat="43.08973" lon="5.81049">
        <ele>10.39999961853</ele>
        <time>2016-04-27T13:24:58.000Z</time>
      </trkpt>
      <trkpt lat="43.08963" lon="5.81046">
        <ele>10.39999961853</ele>
        <time>2016-04-27T13:25:00.000Z</time>
      </trkpt>
      <trkpt lat="43.08932" lon="5.81036">
        <ele>10.800000190735</ele>
        <time>2016-04-27T13:25:06.000Z</time>
      </trkpt>
      <trkpt lat="43.08906" lon="5.81026">
        <ele>10.60000038147</ele>
        <time>2016-04-27T13:25:11.000Z</time>
      </trkpt>
      <trkpt lat="43.08865" lon="5.81009">
        <ele>10.39999961853</ele>
        <time>2016-04-27T13:25:19.000Z</time>
      </trkpt>
      <trkpt lat="43.08831" lon="5.80994">
        <ele>10.39999961853</ele>
        <time>2016-04-27T13:25:26.000Z</time>
      </trkpt>
      <trkpt lat="43.08821" lon="5.8099">
        <ele>10.39999961853</ele>
        <time>2016-04-27T13:25:28.000Z</time>
      </trkpt>
      <trkpt lat="43.08789" lon="5.80975">
        <ele>10.60000038147</ele>
        <time>2016-04-27T13:25:34.000Z</time>
      </trkpt>
      <trkpt lat="43.08761" lon="5.80964">
        <ele>10.60000038147</ele>
        <time>2016-04-27T13:25:39.000Z</time>
      </trkpt>
      <trkpt lat="43.08755" lon="5.80963">
        <ele>10.60000038147</ele>
        <time>2016-04-27T13:25:40.000Z</time>
      </trkpt>
      <trkpt lat="43.0872" lon="5.80949">
        <ele>9</ele>
        <time>2016-04-27T13:25:46.000Z</time>
      </trkpt>
      <trkpt lat="43.08689" lon="5.80929">
        <ele>7.4000000953674</ele>
        <time>2016-04-27T13:25:52.000Z</time>
      </trkpt>
      <trkpt lat="43.08684" lon="5.80926">
        <ele>7.1999998092651</ele>
        <time>2016-04-27T13:25:53.000Z</time>
      </trkpt>
      <trkpt lat="43.08658" lon="5.809">
        <ele>6.8000001907349</ele>
        <time>2016-04-27T13:25:59.000Z</time>
      </trkpt>
      <trkpt lat="43.08654" lon="5.80896">
        <ele>6.8000001907349</ele>
        <time>2016-04-27T13:26:00.000Z</time>
      </trkpt>
      <trkpt lat="43.08622" lon="5.80856">
        <ele>7.8000001907349</ele>
        <time>2016-04-27T13:26:08.000Z</time>
      </trkpt>
      <trkpt lat="43.08588" lon="5.80818">
        <ele>9.1999998092651</ele>
        <time>2016-04-27T13:26:16.000Z</time>
      </trkpt>
      <trkpt lat="43.08584" lon="5.80814">
        <ele>9.8000001907349</ele>
        <time>2016-04-27T13:26:17.000Z</time>
      </trkpt>
      <trkpt lat="43.08567" lon="5.80797">
        <ele>11</ele>
        <time>2016-04-27T13:26:21.000Z</time>
      </trkpt>
      <trkpt lat="43.08562" lon="5.80794">
        <ele>11.199999809265</ele>
        <time>2016-04-27T13:26:22.000Z</time>
      </trkpt>
      <trkpt lat="43.08554" lon="5.80786">
        <ele>11.60000038147</ele>
        <time>2016-04-27T13:26:24.000Z</time>
      </trkpt>
      <trkpt lat="43.0854" lon="5.80778">
        <ele>12.39999961853</ele>
        <time>2016-04-27T13:26:27.000Z</time>
      </trkpt>
      <trkpt lat="43.08535" lon="5.80775">
        <ele>12.800000190735</ele>
        <time>2016-04-27T13:26:28.000Z</time>
      </trkpt>
      <trkpt lat="43.08524" lon="5.80768">
        <ele>13.39999961853</ele>
        <time>2016-04-27T13:26:31.000Z</time>
      </trkpt>
      <trkpt lat="43.08521" lon="5.80764">
        <ele>13.39999961853</ele>
        <time>2016-04-27T13:26:32.000Z</time>
      </trkpt>
      <trkpt lat="43.08518" lon="5.80761">
        <ele>13.60000038147</ele>
        <time>2016-04-27T13:26:33.000Z</time>
      </trkpt>
      <trkpt lat="43.08514" lon="5.80759">
        <ele>13.800000190735</ele>
        <time>2016-04-27T13:26:34.000Z</time>
      </trkpt>
      <trkpt lat="43.08505" lon="5.80761">
        <ele>14.199999809265</ele>
        <time>2016-04-27T13:26:36.000Z</time>
      </trkpt>
      <trkpt lat="43.08492" lon="5.80759">
        <ele>14</ele>
        <time>2016-04-27T13:26:39.000Z</time>
      </trkpt>
      <trkpt lat="43.08487" lon="5.80758">
        <ele>13.800000190735</ele>
        <time>2016-04-27T13:26:40.000Z</time>
      </trkpt>
      <trkpt lat="43.08481" lon="5.80757">
        <ele>13.800000190735</ele>
        <time>2016-04-27T13:26:41.000Z</time>
      </trkpt>
      <trkpt lat="43.08436" lon="5.80744">
        <ele>12.199999809265</ele>
        <time>2016-04-27T13:26:49.000Z</time>
      </trkpt>
      <trkpt lat="43.08384" lon="5.80728">
        <ele>10.199999809265</ele>
        <time>2016-04-27T13:26:58.000Z</time>
      </trkpt>
      <trkpt lat="43.08378" lon="5.80727">
        <ele>10</ele>
        <time>2016-04-27T13:26:59.000Z</time>
      </trkpt>
      <trkpt lat="43.08349" lon="5.80719">
        <ele>9</ele>
        <time>2016-04-27T13:27:04.000Z</time>
      </trkpt>
      <trkpt lat="43.08336" lon="5.80715">
        <ele>8.8000001907349</ele>
        <time>2016-04-27T13:27:06.000Z</time>
      </trkpt>
      <trkpt lat="43.08311" lon="5.80709">
        <ele>8.3999996185303</ele>
        <time>2016-04-27T13:27:10.000Z</time>
      </trkpt>
      <trkpt lat="43.08267" lon="5.80696">
        <ele>7.4000000953674</ele>
        <time>2016-04-27T13:27:17.000Z</time>
      </trkpt>
      <trkpt lat="43.08249" lon="5.80691">
        <ele>7</ele>
        <time>2016-04-27T13:27:20.000Z</time>
      </trkpt>
      <trkpt lat="43.08213" lon="5.80683">
        <ele>6</ele>
        <time>2016-04-27T13:27:26.000Z</time>
      </trkpt>
      <trkpt lat="43.08195" lon="5.80682">
        <ele>5.4000000953674</ele>
        <time>2016-04-27T13:27:29.000Z</time>
      </trkpt>
      <trkpt lat="43.08164" lon="5.80678">
        <ele>5</ele>
        <time>2016-04-27T13:27:34.000Z</time>
      </trkpt>
      <trkpt lat="43.08158" lon="5.80677">
        <ele>5.1999998092651</ele>
        <time>2016-04-27T13:27:35.000Z</time>
      </trkpt>
      <trkpt lat="43.08151" lon="5.80675">
        <ele>5.1999998092651</ele>
        <time>2016-04-27T13:27:36.000Z</time>
      </trkpt>
      <trkpt lat="43.08145" lon="5.80673">
        <ele>5.1999998092651</ele>
        <time>2016-04-27T13:27:37.000Z</time>
      </trkpt>
      <trkpt lat="43.0814" lon="5.80671">
        <ele>5.1999998092651</ele>
        <time>2016-04-27T13:27:38.000Z</time>
      </trkpt>
      <trkpt lat="43.08124" lon="5.80665">
        <ele>5.1999998092651</ele>
        <time>2016-04-27T13:27:41.000Z</time>
      </trkpt>
      <trkpt lat="43.08115" lon="5.8066">
        <ele>5.1999998092651</ele>
        <time>2016-04-27T13:27:43.000Z</time>
      </trkpt>
      <trkpt lat="43.08102" lon="5.80655">
        <ele>5.4000000953674</ele>
        <time>2016-04-27T13:27:46.000Z</time>
      </trkpt>
      <trkpt lat="43.08084" lon="5.80648">
        <ele>5.4000000953674</ele>
        <time>2016-04-27T13:27:50.000Z</time>
      </trkpt>
      <trkpt lat="43.08069" lon="5.80641">
        <ele>5.5999999046326</ele>
        <time>2016-04-27T13:27:54.000Z</time>
      </trkpt>
      <trkpt lat="43.0806" lon="5.80638">
        <ele>5.8000001907349</ele>
        <time>2016-04-27T13:27:57.000Z</time>
      </trkpt>
      <trkpt lat="43.08037" lon="5.80631">
        <ele>6</ele>
        <time>2016-04-27T13:28:03.000Z</time>
      </trkpt>
      <trkpt lat="43.08022" lon="5.80626">
        <ele>6.1999998092651</ele>
        <time>2016-04-27T13:28:06.000Z</time>
      </trkpt>
      <trkpt lat="43.08011" lon="5.8062">
        <ele>6</ele>
        <time>2016-04-27T13:28:08.000Z</time>
      </trkpt>
      <trkpt lat="43.07992" lon="5.80599">
        <ele>6</ele>
        <time>2016-04-27T13:28:12.000Z</time>
      </trkpt>
      <trkpt lat="43.07987" lon="5.80594">
        <ele>6</ele>
        <time>2016-04-27T13:28:13.000Z</time>
      </trkpt>
      <trkpt lat="43.07978" lon="5.80582">
        <ele>5.8000001907349</ele>
        <time>2016-04-27T13:28:15.000Z</time>
      </trkpt>
      <trkpt lat="43.07961" lon="5.80559">
        <ele>5.5999999046326</ele>
        <time>2016-04-27T13:28:19.000Z</time>
      </trkpt>
      <trkpt lat="43.07949" lon="5.80542">
        <ele>5.1999998092651</ele>
        <time>2016-04-27T13:28:22.000Z</time>
      </trkpt>
      <trkpt lat="43.07916" lon="5.80498">
        <ele>4</ele>
        <time>2016-04-27T13:28:30.000Z</time>
      </trkpt>
      <trkpt lat="43.07885" lon="5.80454">
        <ele>3.2000000476837</ele>
        <time>2016-04-27T13:28:38.000Z</time>
      </trkpt>
      <trkpt lat="43.07878" lon="5.80442">
        <ele>3.4000000953674</ele>
        <time>2016-04-27T13:28:40.000Z</time>
      </trkpt>
      <trkpt lat="43.07854" lon="5.80405">
        <ele>3.7999999523163</ele>
        <time>2016-04-27T13:28:47.000Z</time>
      </trkpt>
      <trkpt lat="43.0785" lon="5.80402">
        <ele>4</ele>
        <time>2016-04-27T13:28:48.000Z</time>
      </trkpt>
      <trkpt lat="43.07836" lon="5.80396">
        <ele>4</ele>
        <time>2016-04-27T13:28:51.000Z</time>
      </trkpt>
      <trkpt lat="43.07832" lon="5.80395">
        <ele>4</ele>
        <time>2016-04-27T13:28:52.000Z</time>
      </trkpt>
      <trkpt lat="43.07822" lon="5.80396">
        <ele>4</ele>
        <time>2016-04-27T13:28:54.000Z</time>
      </trkpt>
      <trkpt lat="43.07812" lon="5.80398">
        <ele>4.1999998092651</ele>
        <time>2016-04-27T13:28:56.000Z</time>
      </trkpt>
      <trkpt lat="43.07808" lon="5.80398">
        <ele>4.1999998092651</ele>
        <time>2016-04-27T13:28:57.000Z</time>
      </trkpt>
      <trkpt lat="43.07758" lon="5.80409">
        <ele>5.1999998092651</ele>
        <time>2016-04-27T13:29:07.000Z</time>
      </trkpt>
      <trkpt lat="43.07726" lon="5.80422">
        <ele>5.5999999046326</ele>
        <time>2016-04-27T13:29:13.000Z</time>
      </trkpt>
      <trkpt lat="43.07714" lon="5.80421">
        <ele>5.4000000953674</ele>
        <time>2016-04-27T13:29:15.000Z</time>
      </trkpt>
      <trkpt lat="43.07702" lon="5.80417">
        <ele>5</ele>
        <time>2016-04-27T13:29:17.000Z</time>
      </trkpt>
      <trkpt lat="43.07696" lon="5.80414">
        <ele>4.5999999046326</ele>
        <time>2016-04-27T13:29:18.000Z</time>
      </trkpt>
      <trkpt lat="43.07681" lon="5.80405">
        <ele>3.5999999046326</ele>
        <time>2016-04-27T13:29:21.000Z</time>
      </trkpt>
      <trkpt lat="43.07669" lon="5.80393">
        <ele>3.2000000476837</ele>
        <time>2016-04-27T13:29:24.000Z</time>
      </trkpt>
      <trkpt lat="43.07659" lon="5.80378">
        <ele>3.2000000476837</ele>
        <time>2016-04-27T13:29:27.000Z</time>
      </trkpt>
      <trkpt lat="43.07656" lon="5.80372">
        <ele>3.4000000953674</ele>
        <time>2016-04-27T13:29:28.000Z</time>
      </trkpt>
      <trkpt lat="43.0764" lon="5.80343">
        <ele>3</ele>
        <time>2016-04-27T13:29:34.000Z</time>
      </trkpt>
      <trkpt lat="43.07633" lon="5.8033">
        <ele>3</ele>
        <time>2016-04-27T13:29:37.000Z</time>
      </trkpt>
      <trkpt lat="43.07629" lon="5.8032">
        <ele>2.7999999523163</ele>
        <time>2016-04-27T13:29:39.000Z</time>
      </trkpt>
      <trkpt lat="43.07627" lon="5.80315">
        <ele>2.7999999523163</ele>
        <time>2016-04-27T13:29:40.000Z</time>
      </trkpt>
      <trkpt lat="43.07607" lon="5.80274">
        <ele>2.5999999046326</ele>
        <time>2016-04-27T13:29:48.000Z</time>
      </trkpt>
      <trkpt lat="43.07583" lon="5.80228">
        <ele>2.2000000476837</ele>
        <time>2016-04-27T13:29:57.000Z</time>
      </trkpt>
      <trkpt lat="43.07561" lon="5.80186">
        <ele>2</ele>
        <time>2016-04-27T13:30:05.000Z</time>
      </trkpt>
      <trkpt lat="43.07555" lon="5.80176">
        <ele>1.7999999523163</ele>
        <time>2016-04-27T13:30:07.000Z</time>
      </trkpt>
      <trkpt lat="43.07535" lon="5.80144">
        <ele>1.7999999523163</ele>
        <time>2016-04-27T13:30:13.000Z</time>
      </trkpt>
      <trkpt lat="43.07512" lon="5.80104">
        <ele>1.2000000476837</ele>
        <time>2016-04-27T13:30:21.000Z</time>
      </trkpt>
      <trkpt lat="43.07491" lon="5.80063">
        <ele>0.80000001192093</ele>
        <time>2016-04-27T13:30:29.000Z</time>
      </trkpt>
      <trkpt lat="43.07485" lon="5.80052">
        <ele>1</ele>
        <time>2016-04-27T13:30:31.000Z</time>
      </trkpt>
      <trkpt lat="43.07461" lon="5.80006">
        <ele>3</ele>
        <time>2016-04-27T13:30:40.000Z</time>
      </trkpt>
      <trkpt lat="43.07446" lon="5.79967">
        <ele>4.1999998092651</ele>
        <time>2016-04-27T13:30:47.000Z</time>
      </trkpt>
      <trkpt lat="43.07445" lon="5.79961">
        <ele>4.4000000953674</ele>
        <time>2016-04-27T13:30:48.000Z</time>
      </trkpt>
      <trkpt lat="43.07443" lon="5.79945">
        <ele>5.1999998092651</ele>
        <time>2016-04-27T13:30:51.000Z</time>
      </trkpt>
      <trkpt lat="43.07443" lon="5.79932">
        <ele>5.5999999046326</ele>
        <time>2016-04-27T13:30:53.000Z</time>
      </trkpt>
      <trkpt lat="43.07448" lon="5.7989">
        <ele>5.5999999046326</ele>
        <time>2016-04-27T13:31:00.000Z</time>
      </trkpt>
      <trkpt lat="43.07449" lon="5.79884">
        <ele>5.4000000953674</ele>
        <time>2016-04-27T13:31:01.000Z</time>
      </trkpt>
      <trkpt lat="43.07448" lon="5.79864">
        <ele>5</ele>
        <time>2016-04-27T13:31:04.000Z</time>
      </trkpt>
      <trkpt lat="43.07446" lon="5.79852">
        <ele>5</ele>
        <time>2016-04-27T13:31:06.000Z</time>
      </trkpt>
      <trkpt lat="43.07439" lon="5.79819">
        <ele>5</ele>
        <time>2016-04-27T13:31:11.000Z</time>
      </trkpt>
      <trkpt lat="43.07438" lon="5.79806">
        <ele>5.1999998092651</ele>
        <time>2016-04-27T13:31:13.000Z</time>
      </trkpt>
      <trkpt lat="43.07438" lon="5.798">
        <ele>5.1999998092651</ele>
        <time>2016-04-27T13:31:14.000Z</time>
      </trkpt>
      <trkpt lat="43.07443" lon="5.79774">
        <ele>5.5999999046326</ele>
        <time>2016-04-27T13:31:18.000Z</time>
      </trkpt>
      <trkpt lat="43.07445" lon="5.79768">
        <ele>5.5999999046326</ele>
        <time>2016-04-27T13:31:19.000Z</time>
      </trkpt>
      <trkpt lat="43.07452" lon="5.79746">
        <ele>5.5999999046326</ele>
        <time>2016-04-27T13:31:23.000Z</time>
      </trkpt>
      <trkpt lat="43.07455" lon="5.79729">
        <ele>5.4000000953674</ele>
        <time>2016-04-27T13:31:26.000Z</time>
      </trkpt>
      <trkpt lat="43.07457" lon="5.79718">
        <ele>5.4000000953674</ele>
        <time>2016-04-27T13:31:28.000Z</time>
      </trkpt>
      <trkpt lat="43.07453" lon="5.79693">
        <ele>5.4000000953674</ele>
        <time>2016-04-27T13:31:32.000Z</time>
      </trkpt>
      <trkpt lat="43.07452" lon="5.79687">
        <ele>5.4000000953674</ele>
        <time>2016-04-27T13:31:33.000Z</time>
      </trkpt>
      <trkpt lat="43.07442" lon="5.79634">
        <ele>5.4000000953674</ele>
        <time>2016-04-27T13:31:42.000Z</time>
      </trkpt>
      <trkpt lat="43.07437" lon="5.79612">
        <ele>4.1999998092651</ele>
        <time>2016-04-27T13:31:46.000Z</time>
      </trkpt>
      <trkpt lat="43.0743" lon="5.796">
        <ele>4</ele>
        <time>2016-04-27T13:31:49.000Z</time>
      </trkpt>
      <trkpt lat="43.07427" lon="5.79596">
        <ele>4</ele>
        <time>2016-04-27T13:31:50.000Z</time>
      </trkpt>
      <trkpt lat="43.0742" lon="5.7959">
        <ele>3.7999999523163</ele>
        <time>2016-04-27T13:31:52.000Z</time>
      </trkpt>
      <trkpt lat="43.07413" lon="5.79584">
        <ele>3.7999999523163</ele>
        <time>2016-04-27T13:31:54.000Z</time>
      </trkpt>
      <trkpt lat="43.0741" lon="5.79582">
        <ele>3.7999999523163</ele>
        <time>2016-04-27T13:31:55.000Z</time>
      </trkpt>
      <trkpt lat="43.07407" lon="5.7958">
        <ele>3.7999999523163</ele>
        <time>2016-04-27T13:31:56.000Z</time>
      </trkpt>
      <trkpt lat="43.07403" lon="5.79576">
        <ele>3.5999999046326</ele>
        <time>2016-04-27T13:31:58.000Z</time>
      </trkpt>
      <trkpt lat="43.07401" lon="5.79571">
        <ele>3.4000000953674</ele>
        <time>2016-04-27T13:32:00.000Z</time>
      </trkpt>
      <trkpt lat="43.07388" lon="5.79559">
        <ele>3</ele>
        <time>2016-04-27T13:32:06.000Z</time>
      </trkpt>
      <trkpt lat="43.07383" lon="5.79555">
        <ele>3.2000000476837</ele>
        <time>2016-04-27T13:32:08.000Z</time>
      </trkpt>
      <trkpt lat="43.07376" lon="5.79548">
        <ele>3.2000000476837</ele>
        <time>2016-04-27T13:32:11.000Z</time>
      </trkpt>
      <trkpt lat="43.07355" lon="5.7953">
        <ele>3.2000000476837</ele>
        <time>2016-04-27T13:32:19.000Z</time>
      </trkpt>
      <trkpt lat="43.07337" lon="5.79518">
        <ele>3.4000000953674</ele>
        <time>2016-04-27T13:32:25.000Z</time>
      </trkpt>
      <trkpt lat="43.07328" lon="5.79512">
        <ele>3.4000000953674</ele>
        <time>2016-04-27T13:32:28.000Z</time>
      </trkpt>
      <trkpt lat="43.07299" lon="5.79495">
        <ele>3.2000000476837</ele>
        <time>2016-04-27T13:32:38.000Z</time>
      </trkpt>
      <trkpt lat="43.07292" lon="5.79495">
        <ele>3.4000000953674</ele>
        <time>2016-04-27T13:32:42.000Z</time>
      </trkpt>
      <trkpt lat="43.0729" lon="5.79494">
        <ele>3.4000000953674</ele>
        <time>2016-04-27T13:32:43.000Z</time>
      </trkpt>
      <trkpt lat="43.07286" lon="5.79493">
        <ele>3.4000000953674</ele>
        <time>2016-04-27T13:32:44.000Z</time>
      </trkpt>
      <trkpt lat="43.07269" lon="5.79491">
        <ele>4.1999998092651</ele>
        <time>2016-04-27T13:32:48.000Z</time>
      </trkpt>
      <trkpt lat="43.07235" lon="5.79493">
        <ele>5</ele>
        <time>2016-04-27T13:32:55.000Z</time>
      </trkpt>
      <trkpt lat="43.07199" lon="5.79492">
        <ele>5</ele>
        <time>2016-04-27T13:33:02.000Z</time>
      </trkpt>
      <trkpt lat="43.07193" lon="5.7949">
        <ele>4.8000001907349</ele>
        <time>2016-04-27T13:33:03.000Z</time>
      </trkpt>
      <trkpt lat="43.07148" lon="5.79476">
        <ele>4.4000000953674</ele>
        <time>2016-04-27T13:33:12.000Z</time>
      </trkpt>
      <trkpt lat="43.07117" lon="5.79469">
        <ele>5</ele>
        <time>2016-04-27T13:33:18.000Z</time>
      </trkpt>
      <trkpt lat="43.07107" lon="5.79466">
        <ele>5.4000000953674</ele>
        <time>2016-04-27T13:33:20.000Z</time>
      </trkpt>
      <trkpt lat="43.07086" lon="5.79453">
        <ele>5.8000001907349</ele>
        <time>2016-04-27T13:33:25.000Z</time>
      </trkpt>
      <trkpt lat="43.07074" lon="5.79459">
        <ele>5.8000001907349</ele>
        <time>2016-04-27T13:33:28.000Z</time>
      </trkpt>
      <trkpt lat="43.0707" lon="5.79461">
        <ele>5.8000001907349</ele>
        <time>2016-04-27T13:33:29.000Z</time>
      </trkpt>
      <trkpt lat="43.07063" lon="5.79462">
        <ele>5.5999999046326</ele>
        <time>2016-04-27T13:33:31.000Z</time>
      </trkpt>
      <trkpt lat="43.0706" lon="5.79459">
        <ele>5.5999999046326</ele>
        <time>2016-04-27T13:33:32.000Z</time>
      </trkpt>
      <trkpt lat="43.07053" lon="5.79449">
        <ele>5.5999999046326</ele>
        <time>2016-04-27T13:33:35.000Z</time>
      </trkpt>
      <trkpt lat="43.07049" lon="5.79445">
        <ele>5.4000000953674</ele>
        <time>2016-04-27T13:33:36.000Z</time>
      </trkpt>
      <trkpt lat="43.07033" lon="5.79434">
        <ele>5.1999998092651</ele>
        <time>2016-04-27T13:33:41.000Z</time>
      </trkpt>
      <trkpt lat="43.07004" lon="5.79411">
        <ele>5</ele>
        <time>2016-04-27T13:33:49.000Z</time>
      </trkpt>
      <trkpt lat="43.06974" lon="5.79387">
        <ele>9.1999998092651</ele>
        <time>2016-04-27T13:33:58.000Z</time>
      </trkpt>
      <trkpt lat="43.06953" lon="5.79371">
        <ele>10</ele>
        <time>2016-04-27T13:34:06.000Z</time>
      </trkpt>
      <trkpt lat="43.06942" lon="5.7936">
        <ele>10.199999809265</ele>
        <time>2016-04-27T13:34:12.000Z</time>
      </trkpt>
      <trkpt lat="43.0694" lon="5.79361">
        <ele>10.199999809265</ele>
        <time>2016-04-27T13:34:13.000Z</time>
      </trkpt>
      <trkpt lat="43.06944" lon="5.79365">
        <ele>9.3999996185303</ele>
        <time>2016-04-27T13:37:55.000Z</time>
      </trkpt>
      <trkpt lat="43.06949" lon="5.79369">
        <ele>9.3999996185303</ele>
        <time>2016-04-27T13:38:00.000Z</time>
      </trkpt>
      <trkpt lat="43.06953" lon="5.79372">
        <ele>9.6000003814697</ele>
        <time>2016-04-27T13:38:03.000Z</time>
      </trkpt>
      <trkpt lat="43.06959" lon="5.79379">
        <ele>9.6000003814697</ele>
        <time>2016-04-27T13:38:05.000Z</time>
      </trkpt>
      <trkpt lat="43.0698" lon="5.79395">
        <ele>5</ele>
        <time>2016-04-27T13:38:10.000Z</time>
      </trkpt>
      <trkpt lat="43.07019" lon="5.79426">
        <ele>5.1999998092651</ele>
        <time>2016-04-27T13:38:19.000Z</time>
      </trkpt>
      <trkpt lat="43.07024" lon="5.79429">
        <ele>5.1999998092651</ele>
        <time>2016-04-27T13:38:20.000Z</time>
      </trkpt>
      <trkpt lat="43.07056" lon="5.79457">
        <ele>5.5999999046326</ele>
        <time>2016-04-27T13:38:28.000Z</time>
      </trkpt>
      <trkpt lat="43.07086" lon="5.79482">
        <ele>6.5999999046326</ele>
        <time>2016-04-27T13:38:35.000Z</time>
      </trkpt>
      <trkpt lat="43.07123" lon="5.79498">
        <ele>6.8000001907349</ele>
        <time>2016-04-27T13:38:42.000Z</time>
      </trkpt>
      <trkpt lat="43.07163" lon="5.79502">
        <ele>5.5999999046326</ele>
        <time>2016-04-27T13:38:49.000Z</time>
      </trkpt>
      <trkpt lat="43.0721" lon="5.795">
        <ele>5.8000001907349</ele>
        <time>2016-04-27T13:38:57.000Z</time>
      </trkpt>
      <trkpt lat="43.07268" lon="5.79497">
        <ele>4.8000001907349</ele>
        <time>2016-04-27T13:39:07.000Z</time>
      </trkpt>
      <trkpt lat="43.07302" lon="5.79505">
        <ele>3.5999999046326</ele>
        <time>2016-04-27T13:39:13.000Z</time>
      </trkpt>
      <trkpt lat="43.07307" lon="5.79508">
        <ele>3.5999999046326</ele>
        <time>2016-04-27T13:39:14.000Z</time>
      </trkpt>
      <trkpt lat="43.07342" lon="5.79532">
        <ele>4</ele>
        <time>2016-04-27T13:39:20.000Z</time>
      </trkpt>
      <trkpt lat="43.07385" lon="5.79569">
        <ele>4</ele>
        <time>2016-04-27T13:39:28.000Z</time>
      </trkpt>
      <trkpt lat="43.07423" lon="5.79602">
        <ele>4.5999999046326</ele>
        <time>2016-04-27T13:39:35.000Z</time>
      </trkpt>
      <trkpt lat="43.07428" lon="5.79608">
        <ele>4.5999999046326</ele>
        <time>2016-04-27T13:39:36.000Z</time>
      </trkpt>
      <trkpt lat="43.07438" lon="5.79632">
        <ele>5.8000001907349</ele>
        <time>2016-04-27T13:39:39.000Z</time>
      </trkpt>
      <trkpt lat="43.07441" lon="5.79649">
        <ele>6</ele>
        <time>2016-04-27T13:39:41.000Z</time>
      </trkpt>
      <trkpt lat="43.07443" lon="5.79667">
        <ele>6</ele>
        <time>2016-04-27T13:39:43.000Z</time>
      </trkpt>
      <trkpt lat="43.07446" lon="5.79685">
        <ele>5.8000001907349</ele>
        <time>2016-04-27T13:39:45.000Z</time>
      </trkpt>
      <trkpt lat="43.07451" lon="5.79721">
        <ele>6</ele>
        <time>2016-04-27T13:39:49.000Z</time>
      </trkpt>
      <trkpt lat="43.0745" lon="5.7974">
        <ele>5.8000001907349</ele>
        <time>2016-04-27T13:39:51.000Z</time>
      </trkpt>
      <trkpt lat="43.07439" lon="5.79773">
        <ele>5.8000001907349</ele>
        <time>2016-04-27T13:39:55.000Z</time>
      </trkpt>
      <trkpt lat="43.07436" lon="5.79781">
        <ele>5.8000001907349</ele>
        <time>2016-04-27T13:39:56.000Z</time>
      </trkpt>
      <trkpt lat="43.07431" lon="5.79805">
        <ele>5.5999999046326</ele>
        <time>2016-04-27T13:39:59.000Z</time>
      </trkpt>
      <trkpt lat="43.07432" lon="5.79823">
        <ele>5.8000001907349</ele>
        <time>2016-04-27T13:40:01.000Z</time>
      </trkpt>
      <trkpt lat="43.07438" lon="5.79848">
        <ele>5.8000001907349</ele>
        <time>2016-04-27T13:40:04.000Z</time>
      </trkpt>
      <trkpt lat="43.07442" lon="5.79865">
        <ele>5.8000001907349</ele>
        <time>2016-04-27T13:40:06.000Z</time>
      </trkpt>
      <trkpt lat="43.07445" lon="5.7989">
        <ele>6</ele>
        <time>2016-04-27T13:40:09.000Z</time>
      </trkpt>
      <trkpt lat="43.07444" lon="5.79908">
        <ele>6.4000000953674</ele>
        <time>2016-04-27T13:40:11.000Z</time>
      </trkpt>
      <trkpt lat="43.07434" lon="5.79974">
        <ele>4.5999999046326</ele>
        <time>2016-04-27T13:40:19.000Z</time>
      </trkpt>
      <trkpt lat="43.07432" lon="5.79998">
        <ele>4.1999998092651</ele>
        <time>2016-04-27T13:40:22.000Z</time>
      </trkpt>
      <trkpt lat="43.07436" lon="5.80013">
        <ele>3.5999999046326</ele>
        <time>2016-04-27T13:40:24.000Z</time>
      </trkpt>
      <trkpt lat="43.07451" lon="5.80041">
        <ele>2.4000000953674</ele>
        <time>2016-04-27T13:40:28.000Z</time>
      </trkpt>
      <trkpt lat="43.07481" lon="5.80082">
        <ele>1.6000000238419</ele>
        <time>2016-04-27T13:40:35.000Z</time>
      </trkpt>
      <trkpt lat="43.07521" lon="5.80136">
        <ele>1.7999999523163</ele>
        <time>2016-04-27T13:40:44.000Z</time>
      </trkpt>
      <trkpt lat="43.07553" lon="5.80186">
        <ele>2</ele>
        <time>2016-04-27T13:40:52.000Z</time>
      </trkpt>
      <trkpt lat="43.07557" lon="5.80193">
        <ele>2</ele>
        <time>2016-04-27T13:40:53.000Z</time>
      </trkpt>
      <trkpt lat="43.0759" lon="5.80255">
        <ele>2.7999999523163</ele>
        <time>2016-04-27T13:41:02.000Z</time>
      </trkpt>
      <trkpt lat="43.07623" lon="5.80319">
        <ele>3</ele>
        <time>2016-04-27T13:41:11.000Z</time>
      </trkpt>
      <trkpt lat="43.07656" lon="5.8038">
        <ele>3.4000000953674</ele>
        <time>2016-04-27T13:41:20.000Z</time>
      </trkpt>
      <trkpt lat="43.0767" lon="5.80403">
        <ele>3.4000000953674</ele>
        <time>2016-04-27T13:41:24.000Z</time>
      </trkpt>
      <trkpt lat="43.0768" lon="5.80411">
        <ele>3.5999999046326</ele>
        <time>2016-04-27T13:41:26.000Z</time>
      </trkpt>
      <trkpt lat="43.0771" lon="5.80441">
        <ele>5.8000001907349</ele>
        <time>2016-04-27T13:41:33.000Z</time>
      </trkpt>
      <trkpt lat="43.07721" lon="5.8044">
        <ele>6.4000000953674</ele>
        <time>2016-04-27T13:41:35.000Z</time>
      </trkpt>
      <trkpt lat="43.0773" lon="5.80433">
        <ele>6.4000000953674</ele>
        <time>2016-04-27T13:41:37.000Z</time>
      </trkpt>
      <trkpt lat="43.07735" lon="5.8043">
        <ele>6.1999998092651</ele>
        <time>2016-04-27T13:41:38.000Z</time>
      </trkpt>
      <trkpt lat="43.07749" lon="5.80418">
        <ele>5.5999999046326</ele>
        <time>2016-04-27T13:41:41.000Z</time>
      </trkpt>
      <trkpt lat="43.07753" lon="5.80416">
        <ele>5.5999999046326</ele>
        <time>2016-04-27T13:41:42.000Z</time>
      </trkpt>
      <trkpt lat="43.07763" lon="5.80412">
        <ele>5.1999998092651</ele>
        <time>2016-04-27T13:41:44.000Z</time>
      </trkpt>
      <trkpt lat="43.07778" lon="5.80406">
        <ele>4.1999998092651</ele>
        <time>2016-04-27T13:41:47.000Z</time>
      </trkpt>
      <trkpt lat="43.07789" lon="5.80404">
        <ele>4.1999998092651</ele>
        <time>2016-04-27T13:41:49.000Z</time>
      </trkpt>
      <trkpt lat="43.07811" lon="5.80402">
        <ele>4.1999998092651</ele>
        <time>2016-04-27T13:41:53.000Z</time>
      </trkpt>
      <trkpt lat="43.07843" lon="5.80402">
        <ele>4.1999998092651</ele>
        <time>2016-04-27T13:41:59.000Z</time>
      </trkpt>
      <trkpt lat="43.07849" lon="5.80406">
        <ele>4</ele>
        <time>2016-04-27T13:42:00.000Z</time>
      </trkpt>
      <trkpt lat="43.07863" lon="5.80425">
        <ele>3.7999999523163</ele>
        <time>2016-04-27T13:42:03.000Z</time>
      </trkpt>
      <trkpt lat="43.07867" lon="5.80433">
        <ele>3.5999999046326</ele>
        <time>2016-04-27T13:42:04.000Z</time>
      </trkpt>
      <trkpt lat="43.0788" lon="5.80454">
        <ele>3.4000000953674</ele>
        <time>2016-04-27T13:42:07.000Z</time>
      </trkpt>
      <trkpt lat="43.07889" lon="5.80468">
        <ele>3.2000000476837</ele>
        <time>2016-04-27T13:42:09.000Z</time>
      </trkpt>
      <trkpt lat="43.07894" lon="5.80475">
        <ele>3.4000000953674</ele>
        <time>2016-04-27T13:42:10.000Z</time>
      </trkpt>
      <trkpt lat="43.07903" lon="5.80487">
        <ele>3.7999999523163</ele>
        <time>2016-04-27T13:42:12.000Z</time>
      </trkpt>
      <trkpt lat="43.07928" lon="5.80525">
        <ele>5.1999998092651</ele>
        <time>2016-04-27T13:42:18.000Z</time>
      </trkpt>
      <trkpt lat="43.07952" lon="5.80563">
        <ele>6.1999998092651</ele>
        <time>2016-04-27T13:42:24.000Z</time>
      </trkpt>
      <trkpt lat="43.07965" lon="5.8058">
        <ele>6.4000000953674</ele>
        <time>2016-04-27T13:42:27.000Z</time>
      </trkpt>
      <trkpt lat="43.07988" lon="5.80609">
        <ele>6.5999999046326</ele>
        <time>2016-04-27T13:42:32.000Z</time>
      </trkpt>
      <trkpt lat="43.08013" lon="5.80632">
        <ele>6.5999999046326</ele>
        <time>2016-04-27T13:42:37.000Z</time>
      </trkpt>
      <trkpt lat="43.08019" lon="5.80634">
        <ele>6.5999999046326</ele>
        <time>2016-04-27T13:42:38.000Z</time>
      </trkpt>
      <trkpt lat="43.08048" lon="5.80642">
        <ele>6.1999998092651</ele>
        <time>2016-04-27T13:42:43.000Z</time>
      </trkpt>
      <trkpt lat="43.08091" lon="5.80656">
        <ele>5.4000000953674</ele>
        <time>2016-04-27T13:42:50.000Z</time>
      </trkpt>
      <trkpt lat="43.08103" lon="5.80661">
        <ele>5.4000000953674</ele>
        <time>2016-04-27T13:42:52.000Z</time>
      </trkpt>
      <trkpt lat="43.08136" lon="5.80675">
        <ele>5.4000000953674</ele>
        <time>2016-04-27T13:42:58.000Z</time>
      </trkpt>
      <trkpt lat="43.08142" lon="5.80677">
        <ele>5.4000000953674</ele>
        <time>2016-04-27T13:42:59.000Z</time>
      </trkpt>
      <trkpt lat="43.08175" lon="5.80686">
        <ele>5.1999998092651</ele>
        <time>2016-04-27T13:43:05.000Z</time>
      </trkpt>
      <trkpt lat="43.08227" lon="5.8069">
        <ele>6.4000000953674</ele>
        <time>2016-04-27T13:43:14.000Z</time>
      </trkpt>
      <trkpt lat="43.08244" lon="5.80696">
        <ele>7</ele>
        <time>2016-04-27T13:43:17.000Z</time>
      </trkpt>
      <trkpt lat="43.08261" lon="5.807">
        <ele>7.4000000953674</ele>
        <time>2016-04-27T13:43:20.000Z</time>
      </trkpt>
      <trkpt lat="43.08277" lon="5.80705">
        <ele>7.8000001907349</ele>
        <time>2016-04-27T13:43:23.000Z</time>
      </trkpt>
      <trkpt lat="43.08283" lon="5.80707">
        <ele>8</ele>
        <time>2016-04-27T13:43:24.000Z</time>
      </trkpt>
      <trkpt lat="43.08337" lon="5.80722">
        <ele>9</ele>
        <time>2016-04-27T13:43:33.000Z</time>
      </trkpt>
      <trkpt lat="43.08354" lon="5.80726">
        <ele>9.3999996185303</ele>
        <time>2016-04-27T13:43:36.000Z</time>
      </trkpt>
      <trkpt lat="43.08372" lon="5.80731">
        <ele>10</ele>
        <time>2016-04-27T13:43:39.000Z</time>
      </trkpt>
      <trkpt lat="43.08401" lon="5.80741">
        <ele>11</ele>
        <time>2016-04-27T13:43:44.000Z</time>
      </trkpt>
      <trkpt lat="43.08442" lon="5.80752">
        <ele>12.60000038147</ele>
        <time>2016-04-27T13:43:51.000Z</time>
      </trkpt>
      <trkpt lat="43.08458" lon="5.80757">
        <ele>13.39999961853</ele>
        <time>2016-04-27T13:43:54.000Z</time>
      </trkpt>
      <trkpt lat="43.08469" lon="5.8076">
        <ele>13.800000190735</ele>
        <time>2016-04-27T13:43:56.000Z</time>
      </trkpt>
      <trkpt lat="43.08512" lon="5.80772">
        <ele>14.800000190735</ele>
        <time>2016-04-27T13:44:04.000Z</time>
      </trkpt>
      <trkpt lat="43.08517" lon="5.80774">
        <ele>14.39999961853</ele>
        <time>2016-04-27T13:44:05.000Z</time>
      </trkpt>
      <trkpt lat="43.08543" lon="5.8079">
        <ele>12.800000190735</ele>
        <time>2016-04-27T13:44:10.000Z</time>
      </trkpt>
      <trkpt lat="43.08559" lon="5.80803">
        <ele>12.199999809265</ele>
        <time>2016-04-27T13:44:13.000Z</time>
      </trkpt>
      <trkpt lat="43.08576" lon="5.80816">
        <ele>10.60000038147</ele>
        <time>2016-04-27T13:44:16.000Z</time>
      </trkpt>
      <trkpt lat="43.08582" lon="5.8082">
        <ele>9.8000001907349</ele>
        <time>2016-04-27T13:44:17.000Z</time>
      </trkpt>
      <trkpt lat="43.08588" lon="5.80824">
        <ele>9.1999998092651</ele>
        <time>2016-04-27T13:44:18.000Z</time>
      </trkpt>
      <trkpt lat="43.08604" lon="5.8084">
        <ele>8.3999996185303</ele>
        <time>2016-04-27T13:44:21.000Z</time>
      </trkpt>
      <trkpt lat="43.08609" lon="5.80845">
        <ele>8.1999998092651</ele>
        <time>2016-04-27T13:44:22.000Z</time>
      </trkpt>
      <trkpt lat="43.08642" lon="5.80883">
        <ele>6.8000001907349</ele>
        <time>2016-04-27T13:44:29.000Z</time>
      </trkpt>
      <trkpt lat="43.08662" lon="5.80904">
        <ele>6.8000001907349</ele>
        <time>2016-04-27T13:44:33.000Z</time>
      </trkpt>
      <trkpt lat="43.08682" lon="5.80923">
        <ele>7</ele>
        <time>2016-04-27T13:44:37.000Z</time>
      </trkpt>
      <trkpt lat="43.08728" lon="5.80954">
        <ele>9.3999996185303</ele>
        <time>2016-04-27T13:44:45.000Z</time>
      </trkpt>
      <trkpt lat="43.08761" lon="5.80966">
        <ele>10.800000190735</ele>
        <time>2016-04-27T13:44:51.000Z</time>
      </trkpt>
      <trkpt lat="43.08767" lon="5.80967">
        <ele>10.60000038147</ele>
        <time>2016-04-27T13:44:52.000Z</time>
      </trkpt>
      <trkpt lat="43.08792" lon="5.80977">
        <ele>10.60000038147</ele>
        <time>2016-04-27T13:44:57.000Z</time>
      </trkpt>
      <trkpt lat="43.08824" lon="5.80992">
        <ele>10.39999961853</ele>
        <time>2016-04-27T13:45:04.000Z</time>
      </trkpt>
      <trkpt lat="43.08828" lon="5.80995">
        <ele>10.39999961853</ele>
        <time>2016-04-27T13:45:05.000Z</time>
      </trkpt>
      <trkpt lat="43.08846" lon="5.81001">
        <ele>10.39999961853</ele>
        <time>2016-04-27T13:45:10.000Z</time>
      </trkpt>
      <trkpt lat="43.08883" lon="5.81019">
        <ele>10.60000038147</ele>
        <time>2016-04-27T13:45:18.000Z</time>
      </trkpt>
      <trkpt lat="43.08912" lon="5.8103">
        <ele>10.800000190735</ele>
        <time>2016-04-27T13:45:24.000Z</time>
      </trkpt>
      <trkpt lat="43.08927" lon="5.81035">
        <ele>10.800000190735</ele>
        <time>2016-04-27T13:45:27.000Z</time>
      </trkpt>
      <trkpt lat="43.08949" lon="5.81043">
        <ele>10.60000038147</ele>
        <time>2016-04-27T13:45:31.000Z</time>
      </trkpt>
      <trkpt lat="43.08972" lon="5.81051">
        <ele>10.39999961853</ele>
        <time>2016-04-27T13:45:35.000Z</time>
      </trkpt>
      <trkpt lat="43.0902" lon="5.8107">
        <ele>10.199999809265</ele>
        <time>2016-04-27T13:45:43.000Z</time>
      </trkpt>
      <trkpt lat="43.09038" lon="5.81074">
        <ele>10.199999809265</ele>
        <time>2016-04-27T13:45:46.000Z</time>
      </trkpt>
      <trkpt lat="43.0905" lon="5.8108">
        <ele>10.199999809265</ele>
        <time>2016-04-27T13:45:48.000Z</time>
      </trkpt>
      <trkpt lat="43.09061" lon="5.81085">
        <ele>10.199999809265</ele>
        <time>2016-04-27T13:45:50.000Z</time>
      </trkpt>
      <trkpt lat="43.09084" lon="5.81093">
        <ele>10</ele>
        <time>2016-04-27T13:45:54.000Z</time>
      </trkpt>
      <trkpt lat="43.091" lon="5.81101">
        <ele>10</ele>
        <time>2016-04-27T13:45:57.000Z</time>
      </trkpt>
      <trkpt lat="43.09136" lon="5.81121">
        <ele>10</ele>
        <time>2016-04-27T13:46:04.000Z</time>
      </trkpt>
      <trkpt lat="43.09181" lon="5.81143">
        <ele>9.8000001907349</ele>
        <time>2016-04-27T13:46:13.000Z</time>
      </trkpt>
      <trkpt lat="43.0921" lon="5.81154">
        <ele>8.6000003814697</ele>
        <time>2016-04-27T13:46:19.000Z</time>
      </trkpt>
      <trkpt lat="43.09214" lon="5.81152">
        <ele>8.1999998092651</ele>
        <time>2016-04-27T13:46:20.000Z</time>
      </trkpt>
      <trkpt lat="43.09232" lon="5.81145">
        <ele>7</ele>
        <time>2016-04-27T13:46:25.000Z</time>
      </trkpt>
      <trkpt lat="43.09248" lon="5.81151">
        <ele>6.1999998092651</ele>
        <time>2016-04-27T13:46:30.000Z</time>
      </trkpt>
      <trkpt lat="43.09255" lon="5.81157">
        <ele>6</ele>
        <time>2016-04-27T13:46:32.000Z</time>
      </trkpt>
      <trkpt lat="43.09259" lon="5.81166">
        <ele>6</ele>
        <time>2016-04-27T13:46:34.000Z</time>
      </trkpt>
      <trkpt lat="43.09263" lon="5.81176">
        <ele>6.4000000953674</ele>
        <time>2016-04-27T13:46:36.000Z</time>
      </trkpt>
      <trkpt lat="43.09273" lon="5.81185">
        <ele>6.5999999046326</ele>
        <time>2016-04-27T13:46:39.000Z</time>
      </trkpt>
      <trkpt lat="43.09276" lon="5.81186">
        <ele>6.5999999046326</ele>
        <time>2016-04-27T13:46:40.000Z</time>
      </trkpt>
      <trkpt lat="43.09296" lon="5.81196">
        <ele>6.5999999046326</ele>
        <time>2016-04-27T13:46:45.000Z</time>
      </trkpt>
      <trkpt lat="43.09332" lon="5.81212">
        <ele>6.8000001907349</ele>
        <time>2016-04-27T13:46:52.000Z</time>
      </trkpt>
      <trkpt lat="43.09364" lon="5.81228">
        <ele>6.8000001907349</ele>
        <time>2016-04-27T13:46:58.000Z</time>
      </trkpt>
      <trkpt lat="43.09369" lon="5.81231">
        <ele>7</ele>
        <time>2016-04-27T13:46:59.000Z</time>
      </trkpt>
      <trkpt lat="43.09405" lon="5.81248">
        <ele>7.4000000953674</ele>
        <time>2016-04-27T13:47:06.000Z</time>
      </trkpt>
      <trkpt lat="43.09415" lon="5.81253">
        <ele>7.5999999046326</ele>
        <time>2016-04-27T13:47:08.000Z</time>
      </trkpt>
      <trkpt lat="43.09426" lon="5.81258">
        <ele>7.8000001907349</ele>
        <time>2016-04-27T13:47:10.000Z</time>
      </trkpt>
      <trkpt lat="43.09441" lon="5.81266">
        <ele>8.3999996185303</ele>
        <time>2016-04-27T13:47:13.000Z</time>
      </trkpt>
      <trkpt lat="43.09458" lon="5.81273">
        <ele>9</ele>
        <time>2016-04-27T13:47:16.000Z</time>
      </trkpt>
      <trkpt lat="43.09491" lon="5.81282">
        <ele>9.6000003814697</ele>
        <time>2016-04-27T13:47:22.000Z</time>
      </trkpt>
      <trkpt lat="43.09508" lon="5.81285">
        <ele>9.6000003814697</ele>
        <time>2016-04-27T13:47:25.000Z</time>
      </trkpt>
      <trkpt lat="43.09519" lon="5.81286">
        <ele>9.1999998092651</ele>
        <time>2016-04-27T13:47:27.000Z</time>
      </trkpt>
      <trkpt lat="43.09542" lon="5.81284">
        <ele>7.5999999046326</ele>
        <time>2016-04-27T13:47:31.000Z</time>
      </trkpt>
      <trkpt lat="43.09575" lon="5.81277">
        <ele>5.1999998092651</ele>
        <time>2016-04-27T13:47:37.000Z</time>
      </trkpt>
      <trkpt lat="43.0958" lon="5.81276">
        <ele>5</ele>
        <time>2016-04-27T13:47:38.000Z</time>
      </trkpt>
      <trkpt lat="43.0962" lon="5.81261">
        <ele>3.7999999523163</ele>
        <time>2016-04-27T13:47:45.000Z</time>
      </trkpt>
      <trkpt lat="43.09665" lon="5.81246">
        <ele>3.7999999523163</ele>
        <time>2016-04-27T13:47:53.000Z</time>
      </trkpt>
      <trkpt lat="43.09707" lon="5.8123">
        <ele>4.5999999046326</ele>
        <time>2016-04-27T13:48:01.000Z</time>
      </trkpt>
      <trkpt lat="43.09722" lon="5.81225">
        <ele>4.8000001907349</ele>
        <time>2016-04-27T13:48:04.000Z</time>
      </trkpt>
      <trkpt lat="43.09737" lon="5.81222">
        <ele>5.1999998092651</ele>
        <time>2016-04-27T13:48:07.000Z</time>
      </trkpt>
      <trkpt lat="43.09781" lon="5.81212">
        <ele>6.8000001907349</ele>
        <time>2016-04-27T13:48:15.000Z</time>
      </trkpt>
      <trkpt lat="43.09787" lon="5.81211">
        <ele>7</ele>
        <time>2016-04-27T13:48:16.000Z</time>
      </trkpt>
      <trkpt lat="43.09805" lon="5.81208">
        <ele>7.8000001907349</ele>
        <time>2016-04-27T13:48:19.000Z</time>
      </trkpt>
      <trkpt lat="43.09811" lon="5.81207">
        <ele>8.1999998092651</ele>
        <time>2016-04-27T13:48:20.000Z</time>
      </trkpt>
      <trkpt lat="43.09823" lon="5.81205">
        <ele>8.8000001907349</ele>
        <time>2016-04-27T13:48:22.000Z</time>
      </trkpt>
      <trkpt lat="43.09835" lon="5.81203">
        <ele>9.1999998092651</ele>
        <time>2016-04-27T13:48:24.000Z</time>
      </trkpt>
      <trkpt lat="43.09841" lon="5.81202">
        <ele>9.3999996185303</ele>
        <time>2016-04-27T13:48:25.000Z</time>
      </trkpt>
      <trkpt lat="43.09864" lon="5.81201">
        <ele>11</ele>
        <time>2016-04-27T13:48:29.000Z</time>
      </trkpt>
      <trkpt lat="43.09881" lon="5.81199">
        <ele>12</ele>
        <time>2016-04-27T13:48:32.000Z</time>
      </trkpt>
      <trkpt lat="43.09892" lon="5.81199">
        <ele>12.800000190735</ele>
        <time>2016-04-27T13:48:34.000Z</time>
      </trkpt>
      <trkpt lat="43.09903" lon="5.81199">
        <ele>13.60000038147</ele>
        <time>2016-04-27T13:48:36.000Z</time>
      </trkpt>
      <trkpt lat="43.09914" lon="5.81199">
        <ele>15.199999809265</ele>
        <time>2016-04-27T13:48:38.000Z</time>
      </trkpt>
      <trkpt lat="43.09925" lon="5.81198">
        <ele>16.799999237061</ele>
        <time>2016-04-27T13:48:40.000Z</time>
      </trkpt>
      <trkpt lat="43.09947" lon="5.81197">
        <ele>19</ele>
        <time>2016-04-27T13:48:44.000Z</time>
      </trkpt>
      <trkpt lat="43.09953" lon="5.81197">
        <ele>19.60000038147</ele>
        <time>2016-04-27T13:48:45.000Z</time>
      </trkpt>
      <trkpt lat="43.09964" lon="5.81197">
        <ele>20.60000038147</ele>
        <time>2016-04-27T13:48:47.000Z</time>
      </trkpt>
      <trkpt lat="43.09975" lon="5.81197">
        <ele>21.60000038147</ele>
        <time>2016-04-27T13:48:49.000Z</time>
      </trkpt>
      <trkpt lat="43.09986" lon="5.81196">
        <ele>22.60000038147</ele>
        <time>2016-04-27T13:48:51.000Z</time>
      </trkpt>
      <trkpt lat="43.09997" lon="5.81196">
        <ele>23.39999961853</ele>
        <time>2016-04-27T13:48:53.000Z</time>
      </trkpt>
      <trkpt lat="43.10003" lon="5.81196">
        <ele>23.799999237061</ele>
        <time>2016-04-27T13:48:54.000Z</time>
      </trkpt>
      <trkpt lat="43.10016" lon="5.81196">
        <ele>24.39999961853</ele>
        <time>2016-04-27T13:48:56.000Z</time>
      </trkpt>
      <trkpt lat="43.10039" lon="5.81198">
        <ele>24.799999237061</ele>
        <time>2016-04-27T13:49:00.000Z</time>
      </trkpt>
      <trkpt lat="43.10045" lon="5.81198">
        <ele>24.799999237061</ele>
        <time>2016-04-27T13:49:01.000Z</time>
      </trkpt>
      <trkpt lat="43.10057" lon="5.81199">
        <ele>25</ele>
        <time>2016-04-27T13:49:03.000Z</time>
      </trkpt>
      <trkpt lat="43.1008" lon="5.81202">
        <ele>25.200000762939</ele>
        <time>2016-04-27T13:49:07.000Z</time>
      </trkpt>
      <trkpt lat="43.10086" lon="5.81203">
        <ele>25.39999961853</ele>
        <time>2016-04-27T13:49:08.000Z</time>
      </trkpt>
      <trkpt lat="43.10119" lon="5.81214">
        <ele>24.200000762939</ele>
        <time>2016-04-27T13:49:14.000Z</time>
      </trkpt>
      <trkpt lat="43.10162" lon="5.81233">
        <ele>21.799999237061</ele>
        <time>2016-04-27T13:49:21.000Z</time>
      </trkpt>
      <trkpt lat="43.10208" lon="5.81255">
        <ele>19</ele>
        <time>2016-04-27T13:49:28.000Z</time>
      </trkpt>
      <trkpt lat="43.10215" lon="5.81258">
        <ele>18.799999237061</ele>
        <time>2016-04-27T13:49:29.000Z</time>
      </trkpt>
      <trkpt lat="43.10258" lon="5.81271">
        <ele>16.200000762939</ele>
        <time>2016-04-27T13:49:35.000Z</time>
      </trkpt>
      <trkpt lat="43.10297" lon="5.81281">
        <ele>15.60000038147</ele>
        <time>2016-04-27T13:49:40.000Z</time>
      </trkpt>
      <trkpt lat="43.10305" lon="5.81282">
        <ele>15.39999961853</ele>
        <time>2016-04-27T13:49:41.000Z</time>
      </trkpt>
      <trkpt lat="43.10313" lon="5.81282">
        <ele>15.39999961853</ele>
        <time>2016-04-27T13:49:42.000Z</time>
      </trkpt>
      <trkpt lat="43.10335" lon="5.81279">
        <ele>14</ele>
        <time>2016-04-27T13:49:45.000Z</time>
      </trkpt>
      <trkpt lat="43.10343" lon="5.81279">
        <ele>13.39999961853</ele>
        <time>2016-04-27T13:49:46.000Z</time>
      </trkpt>
      <trkpt lat="43.1035" lon="5.81279">
        <ele>13.39999961853</ele>
        <time>2016-04-27T13:49:47.000Z</time>
      </trkpt>
      <trkpt lat="43.10363" lon="5.81279">
        <ele>13.199999809265</ele>
        <time>2016-04-27T13:49:49.000Z</time>
      </trkpt>
      <trkpt lat="43.10389" lon="5.8128">
        <ele>13</ele>
        <time>2016-04-27T13:49:53.000Z</time>
      </trkpt>
      <trkpt lat="43.10395" lon="5.8128">
        <ele>12.800000190735</ele>
        <time>2016-04-27T13:49:54.000Z</time>
      </trkpt>
      <trkpt lat="43.10414" lon="5.81284">
        <ele>12.60000038147</ele>
        <time>2016-04-27T13:49:57.000Z</time>
      </trkpt>
      <trkpt lat="43.10439" lon="5.81292">
        <ele>12</ele>
        <time>2016-04-27T13:50:01.000Z</time>
      </trkpt>
      <trkpt lat="43.1045" lon="5.81297">
        <ele>11.800000190735</ele>
        <time>2016-04-27T13:50:03.000Z</time>
      </trkpt>
      <trkpt lat="43.10472" lon="5.81308">
        <ele>11.39999961853</ele>
        <time>2016-04-27T13:50:07.000Z</time>
      </trkpt>
      <trkpt lat="43.10483" lon="5.81315">
        <ele>11.39999961853</ele>
        <time>2016-04-27T13:50:09.000Z</time>
      </trkpt>
      <trkpt lat="43.10502" lon="5.81327">
        <ele>11</ele>
        <time>2016-04-27T13:50:12.000Z</time>
      </trkpt>
      <trkpt lat="43.10509" lon="5.81332">
        <ele>11</ele>
        <time>2016-04-27T13:50:13.000Z</time>
      </trkpt>
      <trkpt lat="43.10523" lon="5.81341">
        <ele>10.39999961853</ele>
        <time>2016-04-27T13:50:15.000Z</time>
      </trkpt>
      <trkpt lat="43.10537" lon="5.8135">
        <ele>9.6000003814697</ele>
        <time>2016-04-27T13:50:17.000Z</time>
      </trkpt>
      <trkpt lat="43.10544" lon="5.81355">
        <ele>9.1999998092651</ele>
        <time>2016-04-27T13:50:18.000Z</time>
      </trkpt>
      <trkpt lat="43.10559" lon="5.81364">
        <ele>8.6000003814697</ele>
        <time>2016-04-27T13:50:20.000Z</time>
      </trkpt>
      <trkpt lat="43.10566" lon="5.81369">
        <ele>8.1999998092651</ele>
        <time>2016-04-27T13:50:21.000Z</time>
      </trkpt>
      <trkpt lat="43.10588" lon="5.81382">
        <ele>7.1999998092651</ele>
        <time>2016-04-27T13:50:24.000Z</time>
      </trkpt>
      <trkpt lat="43.10617" lon="5.81397">
        <ele>6.4000000953674</ele>
        <time>2016-04-27T13:50:28.000Z</time>
      </trkpt>
      <trkpt lat="43.1063" lon="5.81404">
        <ele>6.1999998092651</ele>
        <time>2016-04-27T13:50:30.000Z</time>
      </trkpt>
      <trkpt lat="43.10648" lon="5.81412">
        <ele>5.8000001907349</ele>
        <time>2016-04-27T13:50:33.000Z</time>
      </trkpt>
      <trkpt lat="43.10654" lon="5.81411">
        <ele>5.4000000953674</ele>
        <time>2016-04-27T13:50:34.000Z</time>
      </trkpt>
      <trkpt lat="43.10673" lon="5.81409">
        <ele>4.4000000953674</ele>
        <time>2016-04-27T13:50:38.000Z</time>
      </trkpt>
      <trkpt lat="43.10675" lon="5.81409">
        <ele>4.4000000953674</ele>
        <time>2016-04-27T13:50:39.000Z</time>
      </trkpt>
      <trkpt lat="43.10681" lon="5.8141">
        <ele>4.5999999046326</ele>
        <time>2016-04-27T13:50:41.000Z</time>
      </trkpt>
      <trkpt lat="43.10699" lon="5.81413">
        <ele>5.8000001907349</ele>
        <time>2016-04-27T13:50:45.000Z</time>
      </trkpt>
      <trkpt lat="43.10737" lon="5.81408">
        <ele>7.8000001907349</ele>
        <time>2016-04-27T13:50:52.000Z</time>
      </trkpt>
      <trkpt lat="43.10742" lon="5.81405">
        <ele>8</ele>
        <time>2016-04-27T13:50:53.000Z</time>
      </trkpt>
      <trkpt lat="43.10763" lon="5.81394">
        <ele>8.1999998092651</ele>
        <time>2016-04-27T13:50:57.000Z</time>
      </trkpt>
      <trkpt lat="43.10768" lon="5.81391">
        <ele>8</ele>
        <time>2016-04-27T13:50:58.000Z</time>
      </trkpt>
      <trkpt lat="43.10804" lon="5.81373">
        <ele>7.1999998092651</ele>
        <time>2016-04-27T13:51:05.000Z</time>
      </trkpt>
      <trkpt lat="43.10845" lon="5.81353">
        <ele>7</ele>
        <time>2016-04-27T13:51:13.000Z</time>
      </trkpt>
      <trkpt lat="43.10884" lon="5.81335">
        <ele>7.4000000953674</ele>
        <time>2016-04-27T13:51:21.000Z</time>
      </trkpt>
      <trkpt lat="43.10921" lon="5.81319">
        <ele>5.8000001907349</ele>
        <time>2016-04-27T13:51:28.000Z</time>
      </trkpt>
      <trkpt lat="43.10963" lon="5.81297">
        <ele>4.4000000953674</ele>
        <time>2016-04-27T13:51:36.000Z</time>
      </trkpt>
      <trkpt lat="43.10999" lon="5.81279">
        <ele>4</ele>
        <time>2016-04-27T13:51:43.000Z</time>
      </trkpt>
      <trkpt lat="43.11041" lon="5.81257">
        <ele>4.4000000953674</ele>
        <time>2016-04-27T13:51:51.000Z</time>
      </trkpt>
      <trkpt lat="43.11078" lon="5.81238">
        <ele>3.5999999046326</ele>
        <time>2016-04-27T13:51:58.000Z</time>
      </trkpt>
      <trkpt lat="43.11126" lon="5.81214">
        <ele>3.5999999046326</ele>
        <time>2016-04-27T13:52:07.000Z</time>
      </trkpt>
      <trkpt lat="43.11168" lon="5.81191">
        <ele>3.4000000953674</ele>
        <time>2016-04-27T13:52:15.000Z</time>
      </trkpt>
      <trkpt lat="43.11223" lon="5.81162">
        <ele>2</ele>
        <time>2016-04-27T13:52:25.000Z</time>
      </trkpt>
      <trkpt lat="43.11265" lon="5.81136">
        <ele>3.2000000476837</ele>
        <time>2016-04-27T13:52:33.000Z</time>
      </trkpt>
      <trkpt lat="43.11279" lon="5.81123">
        <ele>3.4000000953674</ele>
        <time>2016-04-27T13:52:36.000Z</time>
      </trkpt>
      <trkpt lat="43.11282" lon="5.81117">
        <ele>3.2000000476837</ele>
        <time>2016-04-27T13:52:37.000Z</time>
      </trkpt>
      <trkpt lat="43.11298" lon="5.81095">
        <ele>3.4000000953674</ele>
        <time>2016-04-27T13:52:41.000Z</time>
      </trkpt>
      <trkpt lat="43.11317" lon="5.81076">
        <ele>3.5999999046326</ele>
        <time>2016-04-27T13:52:45.000Z</time>
      </trkpt>
      <trkpt lat="43.1134" lon="5.81054">
        <ele>3.7999999523163</ele>
        <time>2016-04-27T13:52:50.000Z</time>
      </trkpt>
      <trkpt lat="43.11384" lon="5.81011">
        <ele>2.4000000953674</ele>
        <time>2016-04-27T13:53:00.000Z</time>
      </trkpt>
      <trkpt lat="43.11419" lon="5.80976">
        <ele>5.4000000953674</ele>
        <time>2016-04-27T13:53:08.000Z</time>
      </trkpt>
      <trkpt lat="43.11464" lon="5.80932">
        <ele>4.1999998092651</ele>
        <time>2016-04-27T13:53:18.000Z</time>
      </trkpt>
      <trkpt lat="43.11473" lon="5.80923">
        <ele>4</ele>
        <time>2016-04-27T13:53:20.000Z</time>
      </trkpt>
      <trkpt lat="43.11482" lon="5.80915">
        <ele>4</ele>
        <time>2016-04-27T13:53:22.000Z</time>
      </trkpt>
      <trkpt lat="43.11491" lon="5.80906">
        <ele>4</ele>
        <time>2016-04-27T13:53:24.000Z</time>
      </trkpt>
      <trkpt lat="43.11504" lon="5.80894">
        <ele>4</ele>
        <time>2016-04-27T13:53:27.000Z</time>
      </trkpt>
      <trkpt lat="43.11508" lon="5.80891">
        <ele>4</ele>
        <time>2016-04-27T13:53:28.000Z</time>
      </trkpt>
      <trkpt lat="43.1152" lon="5.80886">
        <ele>4</ele>
        <time>2016-04-27T13:53:31.000Z</time>
      </trkpt>
      <trkpt lat="43.11524" lon="5.80883">
        <ele>4</ele>
        <time>2016-04-27T13:53:32.000Z</time>
      </trkpt>
      <trkpt lat="43.11534" lon="5.80868">
        <ele>3.5999999046326</ele>
        <time>2016-04-27T13:53:35.000Z</time>
      </trkpt>
      <trkpt lat="43.11552" lon="5.80833">
        <ele>2.5999999046326</ele>
        <time>2016-04-27T13:53:41.000Z</time>
      </trkpt>
      <trkpt lat="43.11554" lon="5.80826">
        <ele>2.5999999046326</ele>
        <time>2016-04-27T13:53:42.000Z</time>
      </trkpt>
      <trkpt lat="43.11563" lon="5.80796">
        <ele>2.2000000476837</ele>
        <time>2016-04-27T13:53:48.000Z</time>
      </trkpt>
      <trkpt lat="43.11567" lon="5.80786">
        <ele>2.2000000476837</ele>
        <time>2016-04-27T13:53:52.000Z</time>
      </trkpt>
      <trkpt lat="43.11569" lon="5.80785">
        <ele>2.2000000476837</ele>
        <time>2016-04-27T13:53:53.000Z</time>
      </trkpt>
      <trkpt lat="43.11577" lon="5.80777">
        <ele>2.2000000476837</ele>
        <time>2016-04-27T13:53:56.000Z</time>
      </trkpt>
      <trkpt lat="43.11581" lon="5.80765">
        <ele>2.2000000476837</ele>
        <time>2016-04-27T13:53:58.000Z</time>
      </trkpt>
      <trkpt lat="43.11588" lon="5.80746">
        <ele>2.2000000476837</ele>
        <time>2016-04-27T13:54:01.000Z</time>
      </trkpt>
      <trkpt lat="43.11607" lon="5.8068">
        <ele>2.4000000953674</ele>
        <time>2016-04-27T13:54:11.000Z</time>
      </trkpt>
      <trkpt lat="43.11618" lon="5.80639">
        <ele>2.5999999046326</ele>
        <time>2016-04-27T13:54:19.000Z</time>
      </trkpt>
      <trkpt lat="43.1162" lon="5.80636">
        <ele>2.7999999523163</ele>
        <time>2016-04-27T13:54:20.000Z</time>
      </trkpt>
      <trkpt lat="43.11628" lon="5.8063">
        <ele>3</ele>
        <time>2016-04-27T13:54:22.000Z</time>
      </trkpt>
      <trkpt lat="43.11643" lon="5.80631">
        <ele>3.4000000953674</ele>
        <time>2016-04-27T13:54:25.000Z</time>
      </trkpt>
      <trkpt lat="43.11648" lon="5.80633">
        <ele>3.4000000953674</ele>
        <time>2016-04-27T13:54:26.000Z</time>
      </trkpt>
      <trkpt lat="43.11682" lon="5.80646">
        <ele>4</ele>
        <time>2016-04-27T13:54:32.000Z</time>
      </trkpt>
      <trkpt lat="43.11709" lon="5.8066">
        <ele>4.5999999046326</ele>
        <time>2016-04-27T13:54:38.000Z</time>
      </trkpt>
      <trkpt lat="43.11739" lon="5.80685">
        <ele>5</ele>
        <time>2016-04-27T13:54:44.000Z</time>
      </trkpt>
      <trkpt lat="43.11769" lon="5.80723">
        <ele>5.4000000953674</ele>
        <time>2016-04-27T13:54:51.000Z</time>
      </trkpt>
      <trkpt lat="43.11778" lon="5.80742">
        <ele>5.5999999046326</ele>
        <time>2016-04-27T13:54:54.000Z</time>
      </trkpt>
      <trkpt lat="43.11785" lon="5.80764">
        <ele>6.1999998092651</ele>
        <time>2016-04-27T13:54:57.000Z</time>
      </trkpt>
      <trkpt lat="43.11805" lon="5.80823">
        <ele>6.8000001907349</ele>
        <time>2016-04-27T13:55:05.000Z</time>
      </trkpt>
      <trkpt lat="43.11824" lon="5.80884">
        <ele>7</ele>
        <time>2016-04-27T13:55:13.000Z</time>
      </trkpt>
      <trkpt lat="43.11841" lon="5.80936">
        <ele>7</ele>
        <time>2016-04-27T13:55:20.000Z</time>
      </trkpt>
      <trkpt lat="43.11861" lon="5.80999">
        <ele>7</ele>
        <time>2016-04-27T13:55:28.000Z</time>
      </trkpt>
      <trkpt lat="43.11878" lon="5.81052">
        <ele>6.8000001907349</ele>
        <time>2016-04-27T13:55:35.000Z</time>
      </trkpt>
      <trkpt lat="43.11881" lon="5.81059">
        <ele>6.8000001907349</ele>
        <time>2016-04-27T13:55:36.000Z</time>
      </trkpt>
      <trkpt lat="43.11891" lon="5.81079">
        <ele>7.1999998092651</ele>
        <time>2016-04-27T13:55:39.000Z</time>
      </trkpt>
      <trkpt lat="43.11897" lon="5.81093">
        <ele>7.1999998092651</ele>
        <time>2016-04-27T13:55:41.000Z</time>
      </trkpt>
      <trkpt lat="43.11908" lon="5.81099">
        <ele>7.5999999046326</ele>
        <time>2016-04-27T13:55:43.000Z</time>
      </trkpt>
      <trkpt lat="43.11918" lon="5.81092">
        <ele>7.8000001907349</ele>
        <time>2016-04-27T13:55:45.000Z</time>
      </trkpt>
      <trkpt lat="43.11924" lon="5.81078">
        <ele>8</ele>
        <time>2016-04-27T13:55:47.000Z</time>
      </trkpt>
      <trkpt lat="43.11926" lon="5.81069">
        <ele>8</ele>
        <time>2016-04-27T13:55:48.000Z</time>
      </trkpt>
      <trkpt lat="43.11928" lon="5.81062">
        <ele>8</ele>
        <time>2016-04-27T13:55:49.000Z</time>
      </trkpt>
      <trkpt lat="43.11937" lon="5.81042">
        <ele>7.5999999046326</ele>
        <time>2016-04-27T13:55:52.000Z</time>
      </trkpt>
      <trkpt lat="43.11945" lon="5.8103">
        <ele>7.1999998092651</ele>
        <time>2016-04-27T13:55:54.000Z</time>
      </trkpt>
      <trkpt lat="43.11955" lon="5.81012">
        <ele>6.8000001907349</ele>
        <time>2016-04-27T13:55:57.000Z</time>
      </trkpt>
      <trkpt lat="43.11958" lon="5.81006">
        <ele>6.5999999046326</ele>
        <time>2016-04-27T13:55:58.000Z</time>
      </trkpt>
      <trkpt lat="43.11989" lon="5.80952">
        <ele>7.8000001907349</ele>
        <time>2016-04-27T13:56:07.000Z</time>
      </trkpt>
      <trkpt lat="43.12023" lon="5.80894">
        <ele>7</ele>
        <time>2016-04-27T13:56:17.000Z</time>
      </trkpt>
      <trkpt lat="43.12048" lon="5.80842">
        <ele>7</ele>
        <time>2016-04-27T13:56:25.000Z</time>
      </trkpt>
      <trkpt lat="43.12078" lon="5.80796">
        <ele>7.1999998092651</ele>
        <time>2016-04-27T13:56:33.000Z</time>
      </trkpt>
      <trkpt lat="43.12085" lon="5.80784">
        <ele>7.1999998092651</ele>
        <time>2016-04-27T13:56:35.000Z</time>
      </trkpt>
      <trkpt lat="43.12092" lon="5.80764">
        <ele>7</ele>
        <time>2016-04-27T13:56:38.000Z</time>
      </trkpt>
      <trkpt lat="43.12094" lon="5.80757">
        <ele>7</ele>
        <time>2016-04-27T13:56:39.000Z</time>
      </trkpt>
      <trkpt lat="43.12112" lon="5.80695">
        <ele>8</ele>
        <time>2016-04-27T13:56:48.000Z</time>
      </trkpt>
      <trkpt lat="43.12114" lon="5.80688">
        <ele>8.1999998092651</ele>
        <time>2016-04-27T13:56:49.000Z</time>
      </trkpt>
      <trkpt lat="43.1213" lon="5.80635">
        <ele>8.3999996185303</ele>
        <time>2016-04-27T13:56:57.000Z</time>
      </trkpt>
      <trkpt lat="43.12148" lon="5.80577">
        <ele>8.6000003814697</ele>
        <time>2016-04-27T13:57:06.000Z</time>
      </trkpt>
      <trkpt lat="43.12152" lon="5.80559">
        <ele>8.8000001907349</ele>
        <time>2016-04-27T13:57:09.000Z</time>
      </trkpt>
      <trkpt lat="43.12155" lon="5.80548">
        <ele>8.8000001907349</ele>
        <time>2016-04-27T13:57:12.000Z</time>
      </trkpt>
      <trkpt lat="43.12157" lon="5.80539">
        <ele>9</ele>
        <time>2016-04-27T13:57:17.000Z</time>
      </trkpt>
      <trkpt lat="43.12168" lon="5.80524">
        <ele>9.1999998092651</ele>
        <time>2016-04-27T13:57:22.000Z</time>
      </trkpt>
      <trkpt lat="43.12176" lon="5.80511">
        <ele>9.6000003814697</ele>
        <time>2016-04-27T13:57:25.000Z</time>
      </trkpt>
      <trkpt lat="43.12184" lon="5.80506">
        <ele>10</ele>
        <time>2016-04-27T13:57:27.000Z</time>
      </trkpt>
      <trkpt lat="43.12187" lon="5.80502">
        <ele>10.39999961853</ele>
        <time>2016-04-27T13:57:28.000Z</time>
      </trkpt>
      <trkpt lat="43.12193" lon="5.80487">
        <ele>11</ele>
        <time>2016-04-27T13:57:31.000Z</time>
      </trkpt>
      <trkpt lat="43.12194" lon="5.8048">
        <ele>11.199999809265</ele>
        <time>2016-04-27T13:57:32.000Z</time>
      </trkpt>
      <trkpt lat="43.12196" lon="5.80468">
        <ele>11.39999961853</ele>
        <time>2016-04-27T13:57:34.000Z</time>
      </trkpt>
      <trkpt lat="43.12198" lon="5.80463">
        <ele>11.800000190735</ele>
        <time>2016-04-27T13:57:35.000Z</time>
      </trkpt>
      <trkpt lat="43.12201" lon="5.80458">
        <ele>12</ele>
        <time>2016-04-27T13:57:36.000Z</time>
      </trkpt>
      <trkpt lat="43.12211" lon="5.80443">
        <ele>13.199999809265</ele>
        <time>2016-04-27T13:57:39.000Z</time>
      </trkpt>
      <trkpt lat="43.12217" lon="5.80433">
        <ele>13.800000190735</ele>
        <time>2016-04-27T13:57:41.000Z</time>
      </trkpt>
      <trkpt lat="43.12238" lon="5.80404">
        <ele>14.39999961853</ele>
        <time>2016-04-27T13:57:47.000Z</time>
      </trkpt>
      <trkpt lat="43.12242" lon="5.804">
        <ele>14.39999961853</ele>
        <time>2016-04-27T13:57:48.000Z</time>
      </trkpt>
      <trkpt lat="43.12281" lon="5.80365">
        <ele>15.199999809265</ele>
        <time>2016-04-27T13:57:57.000Z</time>
      </trkpt>
      <trkpt lat="43.12318" lon="5.80339">
        <ele>15.60000038147</ele>
        <time>2016-04-27T13:58:05.000Z</time>
      </trkpt>
      <trkpt lat="43.12359" lon="5.80321">
        <ele>16.200000762939</ele>
        <time>2016-04-27T13:58:13.000Z</time>
      </trkpt>
      <trkpt lat="43.12394" lon="5.80317">
        <ele>16.200000762939</ele>
        <time>2016-04-27T13:58:20.000Z</time>
      </trkpt>
      <trkpt lat="43.12407" lon="5.80317">
        <ele>16.200000762939</ele>
        <time>2016-04-27T13:58:23.000Z</time>
      </trkpt>
      <trkpt lat="43.12409" lon="5.80313">
        <ele>16</ele>
        <time>2016-04-27T13:58:24.000Z</time>
      </trkpt>
      <trkpt lat="43.12412" lon="5.80293">
        <ele>16.60000038147</ele>
        <time>2016-04-27T13:58:27.000Z</time>
      </trkpt>
      <trkpt lat="43.12414" lon="5.80286">
        <ele>16.60000038147</ele>
        <time>2016-04-27T13:58:28.000Z</time>
      </trkpt>
      <trkpt lat="43.12421" lon="5.80276">
        <ele>16.60000038147</ele>
        <time>2016-04-27T13:58:30.000Z</time>
      </trkpt>
      <trkpt lat="43.12425" lon="5.80271">
        <ele>16.39999961853</ele>
        <time>2016-04-27T13:58:31.000Z</time>
      </trkpt>
      <trkpt lat="43.12428" lon="5.80266">
        <ele>16.39999961853</ele>
        <time>2016-04-27T13:58:32.000Z</time>
      </trkpt>
      <trkpt lat="43.12435" lon="5.80256">
        <ele>16.799999237061</ele>
        <time>2016-04-27T13:58:34.000Z</time>
      </trkpt>
      <trkpt lat="43.12438" lon="5.80251">
        <ele>17</ele>
        <time>2016-04-27T13:58:35.000Z</time>
      </trkpt>
      <trkpt lat="43.12443" lon="5.80239">
        <ele>17.200000762939</ele>
        <time>2016-04-27T13:58:37.000Z</time>
      </trkpt>
      <trkpt lat="43.12447" lon="5.80226">
        <ele>17.60000038147</ele>
        <time>2016-04-27T13:58:39.000Z</time>
      </trkpt>
      <trkpt lat="43.12454" lon="5.80202">
        <ele>19.39999961853</ele>
        <time>2016-04-27T13:58:43.000Z</time>
      </trkpt>
      <trkpt lat="43.12457" lon="5.80196">
        <ele>20</ele>
        <time>2016-04-27T13:58:44.000Z</time>
      </trkpt>
      <trkpt lat="43.1246" lon="5.80191">
        <ele>20.39999961853</ele>
        <time>2016-04-27T13:58:45.000Z</time>
      </trkpt>
      <trkpt lat="43.12486" lon="5.8016">
        <ele>20.799999237061</ele>
        <time>2016-04-27T13:58:52.000Z</time>
      </trkpt>
      <trkpt lat="43.1249" lon="5.80156">
        <ele>20.799999237061</ele>
        <time>2016-04-27T13:58:53.000Z</time>
      </trkpt>
      <trkpt lat="43.1251" lon="5.80142">
        <ele>20</ele>
        <time>2016-04-27T13:58:58.000Z</time>
      </trkpt>
      <trkpt lat="43.12514" lon="5.80139">
        <ele>20.200000762939</ele>
        <time>2016-04-27T13:58:59.000Z</time>
      </trkpt>
      <trkpt lat="43.12541" lon="5.80126">
        <ele>21.799999237061</ele>
        <time>2016-04-27T13:59:05.000Z</time>
      </trkpt>
      <trkpt lat="43.12545" lon="5.80124">
        <ele>22</ele>
        <time>2016-04-27T13:59:06.000Z</time>
      </trkpt>
      <trkpt lat="43.12579" lon="5.80116">
        <ele>23.60000038147</ele>
        <time>2016-04-27T13:59:13.000Z</time>
      </trkpt>
      <trkpt lat="43.12615" lon="5.80105">
        <ele>25</ele>
        <time>2016-04-27T13:59:21.000Z</time>
      </trkpt>
      <trkpt lat="43.12628" lon="5.80101">
        <ele>25.60000038147</ele>
        <time>2016-04-27T13:59:24.000Z</time>
      </trkpt>
      <trkpt lat="43.12636" lon="5.80102">
        <ele>26</ele>
        <time>2016-04-27T13:59:26.000Z</time>
      </trkpt>
      <trkpt lat="43.12641" lon="5.80103">
        <ele>26.200000762939</ele>
        <time>2016-04-27T13:59:27.000Z</time>
      </trkpt>
      <trkpt lat="43.12657" lon="5.80105">
        <ele>27</ele>
        <time>2016-04-27T13:59:31.000Z</time>
      </trkpt>
      <trkpt lat="43.12661" lon="5.80104">
        <ele>27.200000762939</ele>
        <time>2016-04-27T13:59:32.000Z</time>
      </trkpt>
      <trkpt lat="43.12665" lon="5.80101">
        <ele>27.39999961853</ele>
        <time>2016-04-27T13:59:33.000Z</time>
      </trkpt>
      <trkpt lat="43.12673" lon="5.80093">
        <ele>27.799999237061</ele>
        <time>2016-04-27T13:59:35.000Z</time>
      </trkpt>
      <trkpt lat="43.12684" lon="5.80081">
        <ele>28</ele>
        <time>2016-04-27T13:59:38.000Z</time>
      </trkpt>
      <trkpt lat="43.12688" lon="5.80078">
        <ele>28.200000762939</ele>
        <time>2016-04-27T13:59:39.000Z</time>
      </trkpt>
      <trkpt lat="43.12697" lon="5.80072">
        <ele>28.200000762939</ele>
        <time>2016-04-27T13:59:41.000Z</time>
      </trkpt>
      <trkpt lat="43.12726" lon="5.80048">
        <ele>27.799999237061</ele>
        <time>2016-04-27T13:59:48.000Z</time>
      </trkpt>
      <trkpt lat="43.12744" lon="5.80016">
        <ele>27.39999961853</ele>
        <time>2016-04-27T13:59:54.000Z</time>
      </trkpt>
      <trkpt lat="43.1275" lon="5.79999">
        <ele>27.200000762939</ele>
        <time>2016-04-27T13:59:57.000Z</time>
      </trkpt>
      <trkpt lat="43.12755" lon="5.79974">
        <ele>27</ele>
        <time>2016-04-27T14:00:01.000Z</time>
      </trkpt>
      <trkpt lat="43.12759" lon="5.79939">
        <ele>27</ele>
        <time>2016-04-27T14:00:07.000Z</time>
      </trkpt>
      <trkpt lat="43.12762" lon="5.79935">
        <ele>27</ele>
        <time>2016-04-27T14:00:08.000Z</time>
      </trkpt>
      <trkpt lat="43.12771" lon="5.79923">
        <ele>27.60000038147</ele>
        <time>2016-04-27T14:00:11.000Z</time>
      </trkpt>
      <trkpt lat="43.12798" lon="5.79896">
        <ele>29</ele>
        <time>2016-04-27T14:00:18.000Z</time>
      </trkpt>
      <trkpt lat="43.12811" lon="5.79885">
        <ele>29.39999961853</ele>
        <time>2016-04-27T14:00:21.000Z</time>
      </trkpt>
      <trkpt lat="43.12828" lon="5.79874">
        <ele>30.60000038147</ele>
        <time>2016-04-27T14:00:25.000Z</time>
      </trkpt>
      <trkpt lat="43.12864" lon="5.79859">
        <ele>31.200000762939</ele>
        <time>2016-04-27T14:00:34.000Z</time>
      </trkpt>
      <trkpt lat="43.12868" lon="5.79859">
        <ele>31.200000762939</ele>
        <time>2016-04-27T14:00:38.000Z</time>
      </trkpt>
      <trkpt lat="43.12876" lon="5.79862">
        <ele>31.39999961853</ele>
        <time>2016-04-27T14:00:45.000Z</time>
      </trkpt>
      <trkpt lat="43.12884" lon="5.79864">
        <ele>31.39999961853</ele>
        <time>2016-04-27T14:00:47.000Z</time>
      </trkpt>
      <trkpt lat="43.12888" lon="5.79863">
        <ele>31.60000038147</ele>
        <time>2016-04-27T14:00:48.000Z</time>
      </trkpt>
      <trkpt lat="43.12894" lon="5.79845">
        <ele>32</ele>
        <time>2016-04-27T14:00:51.000Z</time>
      </trkpt>
      <trkpt lat="43.12893" lon="5.79838">
        <ele>32.200000762939</ele>
        <time>2016-04-27T14:00:52.000Z</time>
      </trkpt>
      <trkpt lat="43.12892" lon="5.79815">
        <ele>33</ele>
        <time>2016-04-27T14:00:55.000Z</time>
      </trkpt>
      <trkpt lat="43.12895" lon="5.79768">
        <ele>34.400001525879</ele>
        <time>2016-04-27T14:01:01.000Z</time>
      </trkpt>
      <trkpt lat="43.129" lon="5.79716">
        <ele>36</ele>
        <time>2016-04-27T14:01:08.000Z</time>
      </trkpt>
      <trkpt lat="43.12901" lon="5.79709">
        <ele>36.200000762939</ele>
        <time>2016-04-27T14:01:09.000Z</time>
      </trkpt>
      <trkpt lat="43.12903" lon="5.7968">
        <ele>37.200000762939</ele>
        <time>2016-04-27T14:01:13.000Z</time>
      </trkpt>
      <trkpt lat="43.12904" lon="5.79666">
        <ele>37.599998474121</ele>
        <time>2016-04-27T14:01:15.000Z</time>
      </trkpt>
      <trkpt lat="43.12905" lon="5.79651">
        <ele>37.799999237061</ele>
        <time>2016-04-27T14:01:17.000Z</time>
      </trkpt>
      <trkpt lat="43.12907" lon="5.7963">
        <ele>38.799999237061</ele>
        <time>2016-04-27T14:01:20.000Z</time>
      </trkpt>
      <trkpt lat="43.12908" lon="5.79609">
        <ele>40</ele>
        <time>2016-04-27T14:01:23.000Z</time>
      </trkpt>
      <trkpt lat="43.12908" lon="5.79595">
        <ele>41</ele>
        <time>2016-04-27T14:01:25.000Z</time>
      </trkpt>
      <trkpt lat="43.12909" lon="5.79588">
        <ele>41.400001525879</ele>
        <time>2016-04-27T14:01:26.000Z</time>
      </trkpt>
      <trkpt lat="43.12909" lon="5.79574">
        <ele>42.200000762939</ele>
        <time>2016-04-27T14:01:28.000Z</time>
      </trkpt>
      <trkpt lat="43.1291" lon="5.79561">
        <ele>43</ele>
        <time>2016-04-27T14:01:30.000Z</time>
      </trkpt>
      <trkpt lat="43.12911" lon="5.79554">
        <ele>43.400001525879</ele>
        <time>2016-04-27T14:01:31.000Z</time>
      </trkpt>
      <trkpt lat="43.12914" lon="5.79548">
        <ele>43.799999237061</ele>
        <time>2016-04-27T14:01:32.000Z</time>
      </trkpt>
      <trkpt lat="43.12916" lon="5.79542">
        <ele>44</ele>
        <time>2016-04-27T14:01:33.000Z</time>
      </trkpt>
      <trkpt lat="43.1292" lon="5.7953">
        <ele>44.799999237061</ele>
        <time>2016-04-27T14:01:35.000Z</time>
      </trkpt>
      <trkpt lat="43.12924" lon="5.79517">
        <ele>45.599998474121</ele>
        <time>2016-04-27T14:01:37.000Z</time>
      </trkpt>
      <trkpt lat="43.12929" lon="5.79505">
        <ele>46.400001525879</ele>
        <time>2016-04-27T14:01:39.000Z</time>
      </trkpt>
      <trkpt lat="43.12932" lon="5.795">
        <ele>46.599998474121</ele>
        <time>2016-04-27T14:01:40.000Z</time>
      </trkpt>
      <trkpt lat="43.12941" lon="5.79483">
        <ele>47.400001525879</ele>
        <time>2016-04-27T14:01:43.000Z</time>
      </trkpt>
      <trkpt lat="43.1295" lon="5.79466">
        <ele>48</ele>
        <time>2016-04-27T14:01:46.000Z</time>
      </trkpt>
      <trkpt lat="43.12958" lon="5.79457">
        <ele>48.200000762939</ele>
        <time>2016-04-27T14:01:48.000Z</time>
      </trkpt>
      <trkpt lat="43.12963" lon="5.79452">
        <ele>48.200000762939</ele>
        <time>2016-04-27T14:01:49.000Z</time>
      </trkpt>
      <trkpt lat="43.12975" lon="5.79439">
        <ele>48.400001525879</ele>
        <time>2016-04-27T14:01:52.000Z</time>
      </trkpt>
      <trkpt lat="43.12988" lon="5.79426">
        <ele>50.400001525879</ele>
        <time>2016-04-27T14:01:55.000Z</time>
      </trkpt>
      <trkpt lat="43.12997" lon="5.79419">
        <ele>52</ele>
        <time>2016-04-27T14:01:57.000Z</time>
      </trkpt>
      <trkpt lat="43.13011" lon="5.79408">
        <ele>54</ele>
        <time>2016-04-27T14:02:00.000Z</time>
      </trkpt>
      <trkpt lat="43.13029" lon="5.79393">
        <ele>55.799999237061</ele>
        <time>2016-04-27T14:02:04.000Z</time>
      </trkpt>
      <trkpt lat="43.13057" lon="5.79372">
        <ele>57</ele>
        <time>2016-04-27T14:02:10.000Z</time>
      </trkpt>
      <trkpt lat="43.13066" lon="5.79366">
        <ele>57.200000762939</ele>
        <time>2016-04-27T14:02:12.000Z</time>
      </trkpt>
      <trkpt lat="43.13075" lon="5.79359">
        <ele>58.200000762939</ele>
        <time>2016-04-27T14:02:14.000Z</time>
      </trkpt>
      <trkpt lat="43.13084" lon="5.79352">
        <ele>59.599998474121</ele>
        <time>2016-04-27T14:02:16.000Z</time>
      </trkpt>
      <trkpt lat="43.13097" lon="5.79341">
        <ele>61.400001525879</ele>
        <time>2016-04-27T14:02:19.000Z</time>
      </trkpt>
      <trkpt lat="43.1311" lon="5.7933">
        <ele>62.599998474121</ele>
        <time>2016-04-27T14:02:22.000Z</time>
      </trkpt>
      <trkpt lat="43.13115" lon="5.79326">
        <ele>63</ele>
        <time>2016-04-27T14:02:23.000Z</time>
      </trkpt>
      <trkpt lat="43.13128" lon="5.79314">
        <ele>63.599998474121</ele>
        <time>2016-04-27T14:02:26.000Z</time>
      </trkpt>
      <trkpt lat="43.13145" lon="5.79295">
        <ele>63.799999237061</ele>
        <time>2016-04-27T14:02:30.000Z</time>
      </trkpt>
      <trkpt lat="43.1316" lon="5.79274">
        <ele>64.599998474121</ele>
        <time>2016-04-27T14:02:34.000Z</time>
      </trkpt>
      <trkpt lat="43.13174" lon="5.79251">
        <ele>66.800003051758</ele>
        <time>2016-04-27T14:02:38.000Z</time>
      </trkpt>
      <trkpt lat="43.13178" lon="5.79246">
        <ele>67.199996948242</ele>
        <time>2016-04-27T14:02:39.000Z</time>
      </trkpt>
      <trkpt lat="43.13195" lon="5.79218">
        <ele>69.400001525879</ele>
        <time>2016-04-27T14:02:44.000Z</time>
      </trkpt>
      <trkpt lat="43.13202" lon="5.79207">
        <ele>69.800003051758</ele>
        <time>2016-04-27T14:02:46.000Z</time>
      </trkpt>
      <trkpt lat="43.13212" lon="5.7919">
        <ele>70.199996948242</ele>
        <time>2016-04-27T14:02:49.000Z</time>
      </trkpt>
      <trkpt lat="43.13229" lon="5.79162">
        <ele>72.199996948242</ele>
        <time>2016-04-27T14:02:54.000Z</time>
      </trkpt>
      <trkpt lat="43.13245" lon="5.79143">
        <ele>74.599998474121</ele>
        <time>2016-04-27T14:02:58.000Z</time>
      </trkpt>
      <trkpt lat="43.1328" lon="5.79112">
        <ele>76.400001525879</ele>
        <time>2016-04-27T14:03:06.000Z</time>
      </trkpt>
      <trkpt lat="43.13288" lon="5.79105">
        <ele>76.599998474121</ele>
        <time>2016-04-27T14:03:08.000Z</time>
      </trkpt>
      <trkpt lat="43.13312" lon="5.79079">
        <ele>77.199996948242</ele>
        <time>2016-04-27T14:03:14.000Z</time>
      </trkpt>
      <trkpt lat="43.13344" lon="5.79044">
        <ele>77.599998474121</ele>
        <time>2016-04-27T14:03:22.000Z</time>
      </trkpt>
      <trkpt lat="43.13378" lon="5.79">
        <ele>77.800003051758</ele>
        <time>2016-04-27T14:03:31.000Z</time>
      </trkpt>
      <trkpt lat="43.13385" lon="5.7899">
        <ele>78</ele>
        <time>2016-04-27T14:03:33.000Z</time>
      </trkpt>
      <trkpt lat="43.13399" lon="5.78972">
        <ele>78.400001525879</ele>
        <time>2016-04-27T14:03:37.000Z</time>
      </trkpt>
      <trkpt lat="43.13406" lon="5.78963">
        <ele>78.599998474121</ele>
        <time>2016-04-27T14:03:39.000Z</time>
      </trkpt>
      <trkpt lat="43.13442" lon="5.78919">
        <ele>78.800003051758</ele>
        <time>2016-04-27T14:03:49.000Z</time>
      </trkpt>
      <trkpt lat="43.13466" lon="5.78891">
        <ele>78</ele>
        <time>2016-04-27T14:03:55.000Z</time>
      </trkpt>
      <trkpt lat="43.13471" lon="5.78885">
        <ele>78</ele>
        <time>2016-04-27T14:03:56.000Z</time>
      </trkpt>
      <trkpt lat="43.13481" lon="5.78873">
        <ele>78.400001525879</ele>
        <time>2016-04-27T14:03:58.000Z</time>
      </trkpt>
      <trkpt lat="43.13508" lon="5.78844">
        <ele>77.400001525879</ele>
        <time>2016-04-27T14:04:03.000Z</time>
      </trkpt>
      <trkpt lat="43.13518" lon="5.78834">
        <ele>77.400001525879</ele>
        <time>2016-04-27T14:04:05.000Z</time>
      </trkpt>
      <trkpt lat="43.13537" lon="5.78814">
        <ele>76.400001525879</ele>
        <time>2016-04-27T14:04:09.000Z</time>
      </trkpt>
      <trkpt lat="43.13541" lon="5.78809">
        <ele>76</ele>
        <time>2016-04-27T14:04:10.000Z</time>
      </trkpt>
      <trkpt lat="43.13546" lon="5.78806">
        <ele>75.599998474121</ele>
        <time>2016-04-27T14:04:11.000Z</time>
      </trkpt>
      <trkpt lat="43.13555" lon="5.788">
        <ele>75.199996948242</ele>
        <time>2016-04-27T14:04:13.000Z</time>
      </trkpt>
      <trkpt lat="43.13558" lon="5.78796">
        <ele>75</ele>
        <time>2016-04-27T14:04:14.000Z</time>
      </trkpt>
      <trkpt lat="43.13566" lon="5.78778">
        <ele>73.800003051758</ele>
        <time>2016-04-27T14:04:17.000Z</time>
      </trkpt>
      <trkpt lat="43.1357" lon="5.78772">
        <ele>73.400001525879</ele>
        <time>2016-04-27T14:04:18.000Z</time>
      </trkpt>
      <trkpt lat="43.13574" lon="5.78766">
        <ele>73</ele>
        <time>2016-04-27T14:04:19.000Z</time>
      </trkpt>
      <trkpt lat="43.13602" lon="5.78729">
        <ele>71</ele>
        <time>2016-04-27T14:04:26.000Z</time>
      </trkpt>
      <trkpt lat="43.13624" lon="5.78704">
        <ele>70.199996948242</ele>
        <time>2016-04-27T14:04:31.000Z</time>
      </trkpt>
      <trkpt lat="43.13644" lon="5.78687">
        <ele>70</ele>
        <time>2016-04-27T14:04:35.000Z</time>
      </trkpt>
      <trkpt lat="43.13677" lon="5.7866">
        <ele>68.599998474121</ele>
        <time>2016-04-27T14:04:41.000Z</time>
      </trkpt>
      <trkpt lat="43.13683" lon="5.78654">
        <ele>68</ele>
        <time>2016-04-27T14:04:42.000Z</time>
      </trkpt>
      <trkpt lat="43.137" lon="5.78632">
        <ele>66</ele>
        <time>2016-04-27T14:04:46.000Z</time>
      </trkpt>
      <trkpt lat="43.1371" lon="5.78616">
        <ele>65.199996948242</ele>
        <time>2016-04-27T14:04:48.000Z</time>
      </trkpt>
      <trkpt lat="43.13719" lon="5.78599">
        <ele>64.599998474121</ele>
        <time>2016-04-27T14:04:50.000Z</time>
      </trkpt>
      <trkpt lat="43.1374" lon="5.78569">
        <ele>63</ele>
        <time>2016-04-27T14:04:54.000Z</time>
      </trkpt>
      <trkpt lat="43.13745" lon="5.78562">
        <ele>62.799999237061</ele>
        <time>2016-04-27T14:04:55.000Z</time>
      </trkpt>
      <trkpt lat="43.13784" lon="5.78514">
        <ele>58.599998474121</ele>
        <time>2016-04-27T14:05:02.000Z</time>
      </trkpt>
      <trkpt lat="43.13795" lon="5.78499">
        <ele>57</ele>
        <time>2016-04-27T14:05:04.000Z</time>
      </trkpt>
      <trkpt lat="43.13816" lon="5.78476">
        <ele>54.799999237061</ele>
        <time>2016-04-27T14:05:07.000Z</time>
      </trkpt>
      <trkpt lat="43.13823" lon="5.78469">
        <ele>54</ele>
        <time>2016-04-27T14:05:08.000Z</time>
      </trkpt>
      <trkpt lat="43.1383" lon="5.78462">
        <ele>53.200000762939</ele>
        <time>2016-04-27T14:05:09.000Z</time>
      </trkpt>
      <trkpt lat="43.13846" lon="5.78448">
        <ele>50.799999237061</ele>
        <time>2016-04-27T14:05:11.000Z</time>
      </trkpt>
      <trkpt lat="43.13862" lon="5.78433">
        <ele>49.200000762939</ele>
        <time>2016-04-27T14:05:13.000Z</time>
      </trkpt>
      <trkpt lat="43.13878" lon="5.7842">
        <ele>47.799999237061</ele>
        <time>2016-04-27T14:05:15.000Z</time>
      </trkpt>
      <trkpt lat="43.13894" lon="5.78405">
        <ele>46</ele>
        <time>2016-04-27T14:05:17.000Z</time>
      </trkpt>
      <trkpt lat="43.13901" lon="5.78395">
        <ele>45</ele>
        <time>2016-04-27T14:05:18.000Z</time>
      </trkpt>
      <trkpt lat="43.13908" lon="5.78385">
        <ele>44.200000762939</ele>
        <time>2016-04-27T14:05:19.000Z</time>
      </trkpt>
      <trkpt lat="43.13914" lon="5.78374">
        <ele>44</ele>
        <time>2016-04-27T14:05:20.000Z</time>
      </trkpt>
      <trkpt lat="43.13925" lon="5.78349">
        <ele>41.400001525879</ele>
        <time>2016-04-27T14:05:22.000Z</time>
      </trkpt>
      <trkpt lat="43.13935" lon="5.78324">
        <ele>40.599998474121</ele>
        <time>2016-04-27T14:05:24.000Z</time>
      </trkpt>
      <trkpt lat="43.1394" lon="5.78313">
        <ele>40.400001525879</ele>
        <time>2016-04-27T14:05:25.000Z</time>
      </trkpt>
      <trkpt lat="43.13945" lon="5.78301">
        <ele>40.200000762939</ele>
        <time>2016-04-27T14:05:26.000Z</time>
      </trkpt>
      <trkpt lat="43.1395" lon="5.7829">
        <ele>40</ele>
        <time>2016-04-27T14:05:27.000Z</time>
      </trkpt>
      <trkpt lat="43.13955" lon="5.78278">
        <ele>40</ele>
        <time>2016-04-27T14:05:28.000Z</time>
      </trkpt>
      <trkpt lat="43.13965" lon="5.78255">
        <ele>39.799999237061</ele>
        <time>2016-04-27T14:05:30.000Z</time>
      </trkpt>
      <trkpt lat="43.13971" lon="5.78244">
        <ele>39</ele>
        <time>2016-04-27T14:05:31.000Z</time>
      </trkpt>
      <trkpt lat="43.13981" lon="5.78224">
        <ele>37.400001525879</ele>
        <time>2016-04-27T14:05:33.000Z</time>
      </trkpt>
      <trkpt lat="43.1399" lon="5.78204">
        <ele>37.599998474121</ele>
        <time>2016-04-27T14:05:35.000Z</time>
      </trkpt>
      <trkpt lat="43.14002" lon="5.78177">
        <ele>36</ele>
        <time>2016-04-27T14:05:38.000Z</time>
      </trkpt>
      <trkpt lat="43.14009" lon="5.78161">
        <ele>35.200000762939</ele>
        <time>2016-04-27T14:05:40.000Z</time>
      </trkpt>
      <trkpt lat="43.14017" lon="5.78148">
        <ele>35.200000762939</ele>
        <time>2016-04-27T14:05:42.000Z</time>
      </trkpt>
      <trkpt lat="43.14021" lon="5.78143">
        <ele>35</ele>
        <time>2016-04-27T14:05:43.000Z</time>
      </trkpt>
      <trkpt lat="43.14029" lon="5.78133">
        <ele>35</ele>
        <time>2016-04-27T14:05:45.000Z</time>
      </trkpt>
      <trkpt lat="43.14056" lon="5.78099">
        <ele>36.400001525879</ele>
        <time>2016-04-27T14:05:52.000Z</time>
      </trkpt>
      <trkpt lat="43.14063" lon="5.78089">
        <ele>37.599998474121</ele>
        <time>2016-04-27T14:05:54.000Z</time>
      </trkpt>
      <trkpt lat="43.14067" lon="5.78084">
        <ele>38.400001525879</ele>
        <time>2016-04-27T14:05:55.000Z</time>
      </trkpt>
      <trkpt lat="43.14077" lon="5.78069">
        <ele>40.200000762939</ele>
        <time>2016-04-27T14:05:58.000Z</time>
      </trkpt>
      <trkpt lat="43.14087" lon="5.78054">
        <ele>42.200000762939</ele>
        <time>2016-04-27T14:06:01.000Z</time>
      </trkpt>
      <trkpt lat="43.14101" lon="5.78032">
        <ele>44</ele>
        <time>2016-04-27T14:06:05.000Z</time>
      </trkpt>
      <trkpt lat="43.14112" lon="5.78016">
        <ele>45</ele>
        <time>2016-04-27T14:06:08.000Z</time>
      </trkpt>
      <trkpt lat="43.14144" lon="5.77974">
        <ele>46</ele>
        <time>2016-04-27T14:06:16.000Z</time>
      </trkpt>
      <trkpt lat="43.14177" lon="5.77933">
        <ele>43.599998474121</ele>
        <time>2016-04-27T14:06:24.000Z</time>
      </trkpt>
      <trkpt lat="43.1418" lon="5.77927">
        <ele>43.599998474121</ele>
        <time>2016-04-27T14:06:25.000Z</time>
      </trkpt>
      <trkpt lat="43.14191" lon="5.77902">
        <ele>43.400001525879</ele>
        <time>2016-04-27T14:06:29.000Z</time>
      </trkpt>
      <trkpt lat="43.14202" lon="5.77876">
        <ele>41.400001525879</ele>
        <time>2016-04-27T14:06:33.000Z</time>
      </trkpt>
      <trkpt lat="43.14212" lon="5.77854">
        <ele>40.599998474121</ele>
        <time>2016-04-27T14:06:36.000Z</time>
      </trkpt>
      <trkpt lat="43.14224" lon="5.77833">
        <ele>39.599998474121</ele>
        <time>2016-04-27T14:06:39.000Z</time>
      </trkpt>
      <trkpt lat="43.14229" lon="5.77827">
        <ele>39.200000762939</ele>
        <time>2016-04-27T14:06:40.000Z</time>
      </trkpt>
      <trkpt lat="43.14234" lon="5.77821">
        <ele>38.799999237061</ele>
        <time>2016-04-27T14:06:41.000Z</time>
      </trkpt>
      <trkpt lat="43.14262" lon="5.77787">
        <ele>38</ele>
        <time>2016-04-27T14:06:47.000Z</time>
      </trkpt>
      <trkpt lat="43.1427" lon="5.77775">
        <ele>38.599998474121</ele>
        <time>2016-04-27T14:06:49.000Z</time>
      </trkpt>
      <trkpt lat="43.14273" lon="5.77768">
        <ele>38.799999237061</ele>
        <time>2016-04-27T14:06:50.000Z</time>
      </trkpt>
      <trkpt lat="43.14285" lon="5.77741">
        <ele>39.400001525879</ele>
        <time>2016-04-27T14:06:54.000Z</time>
      </trkpt>
      <trkpt lat="43.14296" lon="5.77702">
        <ele>39.799999237061</ele>
        <time>2016-04-27T14:07:00.000Z</time>
      </trkpt>
      <trkpt lat="43.14297" lon="5.77695">
        <ele>40.200000762939</ele>
        <time>2016-04-27T14:07:01.000Z</time>
      </trkpt>
      <trkpt lat="43.14308" lon="5.77643">
        <ele>39.599998474121</ele>
        <time>2016-04-27T14:07:08.000Z</time>
      </trkpt>
      <trkpt lat="43.14314" lon="5.77595">
        <ele>41</ele>
        <time>2016-04-27T14:07:14.000Z</time>
      </trkpt>
      <trkpt lat="43.14316" lon="5.77579">
        <ele>41.400001525879</ele>
        <time>2016-04-27T14:07:16.000Z</time>
      </trkpt>
      <trkpt lat="43.14321" lon="5.77541">
        <ele>42.400001525879</ele>
        <time>2016-04-27T14:07:21.000Z</time>
      </trkpt>
      <trkpt lat="43.14326" lon="5.77506">
        <ele>42.799999237061</ele>
        <time>2016-04-27T14:07:26.000Z</time>
      </trkpt>
      <trkpt lat="43.14328" lon="5.775">
        <ele>42.799999237061</ele>
        <time>2016-04-27T14:07:27.000Z</time>
      </trkpt>
      <trkpt lat="43.14338" lon="5.77475">
        <ele>43</ele>
        <time>2016-04-27T14:07:31.000Z</time>
      </trkpt>
      <trkpt lat="43.14341" lon="5.77469">
        <ele>43</ele>
        <time>2016-04-27T14:07:32.000Z</time>
      </trkpt>
      <trkpt lat="43.14362" lon="5.77424">
        <ele>42.799999237061</ele>
        <time>2016-04-27T14:07:38.000Z</time>
      </trkpt>
      <trkpt lat="43.14365" lon="5.77416">
        <ele>42.799999237061</ele>
        <time>2016-04-27T14:07:39.000Z</time>
      </trkpt>
      <trkpt lat="43.14378" lon="5.77391">
        <ele>41.400001525879</ele>
        <time>2016-04-27T14:07:42.000Z</time>
      </trkpt>
      <trkpt lat="43.14386" lon="5.77372">
        <ele>40</ele>
        <time>2016-04-27T14:07:44.000Z</time>
      </trkpt>
      <trkpt lat="43.14389" lon="5.77362">
        <ele>39.200000762939</ele>
        <time>2016-04-27T14:07:45.000Z</time>
      </trkpt>
      <trkpt lat="43.14396" lon="5.77341">
        <ele>37.599998474121</ele>
        <time>2016-04-27T14:07:47.000Z</time>
      </trkpt>
      <trkpt lat="43.14406" lon="5.77308">
        <ele>35.200000762939</ele>
        <time>2016-04-27T14:07:50.000Z</time>
      </trkpt>
      <trkpt lat="43.14413" lon="5.77285">
        <ele>34</ele>
        <time>2016-04-27T14:07:52.000Z</time>
      </trkpt>
      <trkpt lat="43.14419" lon="5.77261">
        <ele>32</ele>
        <time>2016-04-27T14:07:54.000Z</time>
      </trkpt>
      <trkpt lat="43.14427" lon="5.77236">
        <ele>29.799999237061</ele>
        <time>2016-04-27T14:07:56.000Z</time>
      </trkpt>
      <trkpt lat="43.14431" lon="5.77223">
        <ele>29</ele>
        <time>2016-04-27T14:07:57.000Z</time>
      </trkpt>
      <trkpt lat="43.14436" lon="5.77202">
        <ele>28.200000762939</ele>
        <time>2016-04-27T14:07:59.000Z</time>
      </trkpt>
      <trkpt lat="43.14437" lon="5.77192">
        <ele>28</ele>
        <time>2016-04-27T14:08:00.000Z</time>
      </trkpt>
      <trkpt lat="43.14438" lon="5.77185">
        <ele>28</ele>
        <time>2016-04-27T14:08:01.000Z</time>
      </trkpt>
      <trkpt lat="43.14438" lon="5.77175">
        <ele>27.799999237061</ele>
        <time>2016-04-27T14:08:03.000Z</time>
      </trkpt>
      <trkpt lat="43.14439" lon="5.77171">
        <ele>27.799999237061</ele>
        <time>2016-04-27T14:08:04.000Z</time>
      </trkpt>
      <trkpt lat="43.14439" lon="5.77169">
        <ele>27.60000038147</ele>
        <time>2016-04-27T14:08:05.000Z</time>
      </trkpt>
      <trkpt lat="43.1444" lon="5.77164">
        <ele>27.60000038147</ele>
        <time>2016-04-27T14:08:07.000Z</time>
      </trkpt>
      <trkpt lat="43.14441" lon="5.7716">
        <ele>27.39999961853</ele>
        <time>2016-04-27T14:08:09.000Z</time>
      </trkpt>
      <trkpt lat="43.14443" lon="5.77157">
        <ele>27.200000762939</ele>
        <time>2016-04-27T14:08:12.000Z</time>
      </trkpt>
      <trkpt lat="43.14444" lon="5.77156">
        <ele>27.200000762939</ele>
        <time>2016-04-27T14:08:13.000Z</time>
      </trkpt>
      <trkpt lat="43.14445" lon="5.77153">
        <ele>27.200000762939</ele>
        <time>2016-04-27T14:08:16.000Z</time>
      </trkpt>
      <trkpt lat="43.14449" lon="5.7715">
        <ele>27</ele>
        <time>2016-04-27T14:08:26.000Z</time>
      </trkpt>
      <trkpt lat="43.14451" lon="5.7715">
        <ele>26.799999237061</ele>
        <time>2016-04-27T14:08:27.000Z</time>
      </trkpt>
      <trkpt lat="43.14461" lon="5.77142">
        <ele>26.39999961853</ele>
        <time>2016-04-27T14:08:30.000Z</time>
      </trkpt>
      <trkpt lat="43.14463" lon="5.77119">
        <ele>25.39999961853</ele>
        <time>2016-04-27T14:08:33.000Z</time>
      </trkpt>
      <trkpt lat="43.14465" lon="5.77089">
        <ele>24</ele>
        <time>2016-04-27T14:08:36.000Z</time>
      </trkpt>
      <trkpt lat="43.14466" lon="5.77079">
        <ele>24.39999961853</ele>
        <time>2016-04-27T14:08:37.000Z</time>
      </trkpt>
      <trkpt lat="43.14477" lon="5.77016">
        <ele>23</ele>
        <time>2016-04-27T14:08:44.000Z</time>
      </trkpt>
      <trkpt lat="43.14486" lon="5.76982">
        <ele>19.60000038147</ele>
        <time>2016-04-27T14:08:48.000Z</time>
      </trkpt>
      <trkpt lat="43.14496" lon="5.7694">
        <ele>16.60000038147</ele>
        <time>2016-04-27T14:08:53.000Z</time>
      </trkpt>
      <trkpt lat="43.14498" lon="5.76932">
        <ele>16</ele>
        <time>2016-04-27T14:08:54.000Z</time>
      </trkpt>
      <trkpt lat="43.14514" lon="5.76867">
        <ele>13.39999961853</ele>
        <time>2016-04-27T14:09:02.000Z</time>
      </trkpt>
      <trkpt lat="43.14518" lon="5.76851">
        <ele>13.800000190735</ele>
        <time>2016-04-27T14:09:04.000Z</time>
      </trkpt>
      <trkpt lat="43.14529" lon="5.76812">
        <ele>13.60000038147</ele>
        <time>2016-04-27T14:09:09.000Z</time>
      </trkpt>
      <trkpt lat="43.14535" lon="5.76798">
        <ele>13.199999809265</ele>
        <time>2016-04-27T14:09:11.000Z</time>
      </trkpt>
      <trkpt lat="43.14554" lon="5.76774">
        <ele>14</ele>
        <time>2016-04-27T14:09:16.000Z</time>
      </trkpt>
      <trkpt lat="43.14562" lon="5.76765">
        <ele>14</ele>
        <time>2016-04-27T14:09:18.000Z</time>
      </trkpt>
      <trkpt lat="43.14573" lon="5.76749">
        <ele>13.39999961853</ele>
        <time>2016-04-27T14:09:21.000Z</time>
      </trkpt>
      <trkpt lat="43.1458" lon="5.76738">
        <ele>12.800000190735</ele>
        <time>2016-04-27T14:09:23.000Z</time>
      </trkpt>
      <trkpt lat="43.14589" lon="5.76711">
        <ele>12.800000190735</ele>
        <time>2016-04-27T14:09:27.000Z</time>
      </trkpt>
      <trkpt lat="43.14605" lon="5.76654">
        <ele>13.39999961853</ele>
        <time>2016-04-27T14:09:35.000Z</time>
      </trkpt>
      <trkpt lat="43.14606" lon="5.76647">
        <ele>13.60000038147</ele>
        <time>2016-04-27T14:09:36.000Z</time>
      </trkpt>
      <trkpt lat="43.14625" lon="5.76592">
        <ele>15</ele>
        <time>2016-04-27T14:09:44.000Z</time>
      </trkpt>
      <trkpt lat="43.14649" lon="5.76559">
        <ele>14</ele>
        <time>2016-04-27T14:09:50.000Z</time>
      </trkpt>
      <trkpt lat="43.14668" lon="5.76542">
        <ele>13.60000038147</ele>
        <time>2016-04-27T14:09:54.000Z</time>
      </trkpt>
      <trkpt lat="43.14683" lon="5.76531">
        <ele>12.800000190735</ele>
        <time>2016-04-27T14:09:57.000Z</time>
      </trkpt>
      <trkpt lat="43.14725" lon="5.76504">
        <ele>15</ele>
        <time>2016-04-27T14:10:05.000Z</time>
      </trkpt>
      <trkpt lat="43.14777" lon="5.76474">
        <ele>13.800000190735</ele>
        <time>2016-04-27T14:10:15.000Z</time>
      </trkpt>
      <trkpt lat="43.14782" lon="5.76472">
        <ele>13.800000190735</ele>
        <time>2016-04-27T14:10:16.000Z</time>
      </trkpt>
      <trkpt lat="43.14825" lon="5.76464">
        <ele>15.60000038147</ele>
        <time>2016-04-27T14:10:24.000Z</time>
      </trkpt>
      <trkpt lat="43.1483" lon="5.76463">
        <ele>15.800000190735</ele>
        <time>2016-04-27T14:10:25.000Z</time>
      </trkpt>
      <trkpt lat="43.14878" lon="5.76457">
        <ele>16.60000038147</ele>
        <time>2016-04-27T14:10:34.000Z</time>
      </trkpt>
      <trkpt lat="43.14883" lon="5.76456">
        <ele>16.799999237061</ele>
        <time>2016-04-27T14:10:35.000Z</time>
      </trkpt>
      <trkpt lat="43.14901" lon="5.76445">
        <ele>17</ele>
        <time>2016-04-27T14:10:39.000Z</time>
      </trkpt>
      <trkpt lat="43.14905" lon="5.76444">
        <ele>17</ele>
        <time>2016-04-27T14:10:40.000Z</time>
      </trkpt>
      <trkpt lat="43.14918" lon="5.76443">
        <ele>17.200000762939</ele>
        <time>2016-04-27T14:10:43.000Z</time>
      </trkpt>
      <trkpt lat="43.14937" lon="5.7645">
        <ele>17.799999237061</ele>
        <time>2016-04-27T14:10:47.000Z</time>
      </trkpt>
      <trkpt lat="43.14942" lon="5.76454">
        <ele>18.200000762939</ele>
        <time>2016-04-27T14:10:48.000Z</time>
      </trkpt>
      <trkpt lat="43.14973" lon="5.76474">
        <ele>20</ele>
        <time>2016-04-27T14:10:54.000Z</time>
      </trkpt>
      <trkpt lat="43.15002" lon="5.76483">
        <ele>22.39999961853</ele>
        <time>2016-04-27T14:10:59.000Z</time>
      </trkpt>
      <trkpt lat="43.15008" lon="5.76485">
        <ele>23</ele>
        <time>2016-04-27T14:11:00.000Z</time>
      </trkpt>
      <trkpt lat="43.15055" lon="5.76492">
        <ele>25.39999961853</ele>
        <time>2016-04-27T14:11:08.000Z</time>
      </trkpt>
      <trkpt lat="43.15072" lon="5.76488">
        <ele>25.799999237061</ele>
        <time>2016-04-27T14:11:11.000Z</time>
      </trkpt>
      <trkpt lat="43.15093" lon="5.76481">
        <ele>26</ele>
        <time>2016-04-27T14:11:15.000Z</time>
      </trkpt>
      <trkpt lat="43.15134" lon="5.76461">
        <ele>24</ele>
        <time>2016-04-27T14:11:23.000Z</time>
      </trkpt>
      <trkpt lat="43.15138" lon="5.76458">
        <ele>24</ele>
        <time>2016-04-27T14:11:24.000Z</time>
      </trkpt>
      <trkpt lat="43.15152" lon="5.76447">
        <ele>24</ele>
        <time>2016-04-27T14:11:27.000Z</time>
      </trkpt>
      <trkpt lat="43.15181" lon="5.76422">
        <ele>23.200000762939</ele>
        <time>2016-04-27T14:11:33.000Z</time>
      </trkpt>
      <trkpt lat="43.15223" lon="5.76384">
        <ele>22.200000762939</ele>
        <time>2016-04-27T14:11:42.000Z</time>
      </trkpt>
      <trkpt lat="43.15247" lon="5.7637">
        <ele>23</ele>
        <time>2016-04-27T14:11:47.000Z</time>
      </trkpt>
      <trkpt lat="43.15252" lon="5.76368">
        <ele>22.39999961853</ele>
        <time>2016-04-27T14:11:48.000Z</time>
      </trkpt>
      <trkpt lat="43.15262" lon="5.76365">
        <ele>21.60000038147</ele>
        <time>2016-04-27T14:11:50.000Z</time>
      </trkpt>
      <trkpt lat="43.15277" lon="5.7636">
        <ele>21.60000038147</ele>
        <time>2016-04-27T14:11:53.000Z</time>
      </trkpt>
      <trkpt lat="43.15299" lon="5.76354">
        <ele>21.60000038147</ele>
        <time>2016-04-27T14:11:57.000Z</time>
      </trkpt>
      <trkpt lat="43.1531" lon="5.76354">
        <ele>21.200000762939</ele>
        <time>2016-04-27T14:11:59.000Z</time>
      </trkpt>
      <trkpt lat="43.15326" lon="5.76359">
        <ele>20.799999237061</ele>
        <time>2016-04-27T14:12:02.000Z</time>
      </trkpt>
      <trkpt lat="43.15359" lon="5.7637">
        <ele>20</ele>
        <time>2016-04-27T14:12:08.000Z</time>
      </trkpt>
      <trkpt lat="43.15371" lon="5.7637">
        <ele>20</ele>
        <time>2016-04-27T14:12:10.000Z</time>
      </trkpt>
      <trkpt lat="43.15409" lon="5.76376">
        <ele>19.200000762939</ele>
        <time>2016-04-27T14:12:16.000Z</time>
      </trkpt>
      <trkpt lat="43.15426" lon="5.7638">
        <ele>18.60000038147</ele>
        <time>2016-04-27T14:12:19.000Z</time>
      </trkpt>
      <trkpt lat="43.15461" lon="5.76387">
        <ele>18.39999961853</ele>
        <time>2016-04-27T14:12:25.000Z</time>
      </trkpt>
      <trkpt lat="43.15517" lon="5.76399">
        <ele>19.60000038147</ele>
        <time>2016-04-27T14:12:35.000Z</time>
      </trkpt>
      <trkpt lat="43.15523" lon="5.76401">
        <ele>19.60000038147</ele>
        <time>2016-04-27T14:12:36.000Z</time>
      </trkpt>
      <trkpt lat="43.15581" lon="5.76413">
        <ele>21.200000762939</ele>
        <time>2016-04-27T14:12:46.000Z</time>
      </trkpt>
      <trkpt lat="43.1562" lon="5.76423">
        <ele>22.39999961853</ele>
        <time>2016-04-27T14:12:53.000Z</time>
      </trkpt>
      <trkpt lat="43.15657" lon="5.76425">
        <ele>23.799999237061</ele>
        <time>2016-04-27T14:13:00.000Z</time>
      </trkpt>
      <trkpt lat="43.15687" lon="5.76429">
        <ele>24.39999961853</ele>
        <time>2016-04-27T14:13:05.000Z</time>
      </trkpt>
      <trkpt lat="43.15693" lon="5.76431">
        <ele>24.39999961853</ele>
        <time>2016-04-27T14:13:06.000Z</time>
      </trkpt>
      <trkpt lat="43.15711" lon="5.76443">
        <ele>24.200000762939</ele>
        <time>2016-04-27T14:13:09.000Z</time>
      </trkpt>
      <trkpt lat="43.15721" lon="5.76452">
        <ele>24.200000762939</ele>
        <time>2016-04-27T14:13:11.000Z</time>
      </trkpt>
      <trkpt lat="43.15741" lon="5.76469">
        <ele>24.200000762939</ele>
        <time>2016-04-27T14:13:15.000Z</time>
      </trkpt>
      <trkpt lat="43.15767" lon="5.76488">
        <ele>25</ele>
        <time>2016-04-27T14:13:20.000Z</time>
      </trkpt>
      <trkpt lat="43.15778" lon="5.76495">
        <ele>25</ele>
        <time>2016-04-27T14:13:22.000Z</time>
      </trkpt>
      <trkpt lat="43.15811" lon="5.76512">
        <ele>26.39999961853</ele>
        <time>2016-04-27T14:13:28.000Z</time>
      </trkpt>
      <trkpt lat="43.15822" lon="5.76515">
        <ele>27.39999961853</ele>
        <time>2016-04-27T14:13:30.000Z</time>
      </trkpt>
      <trkpt lat="43.15845" lon="5.76516">
        <ele>29.799999237061</ele>
        <time>2016-04-27T14:13:34.000Z</time>
      </trkpt>
      <trkpt lat="43.15855" lon="5.76516">
        <ele>29.60000038147</ele>
        <time>2016-04-27T14:13:36.000Z</time>
      </trkpt>
      <trkpt lat="43.15865" lon="5.76516">
        <ele>29.60000038147</ele>
        <time>2016-04-27T14:13:38.000Z</time>
      </trkpt>
      <trkpt lat="43.1588" lon="5.76516">
        <ele>29.39999961853</ele>
        <time>2016-04-27T14:13:41.000Z</time>
      </trkpt>
      <trkpt lat="43.1589" lon="5.76513">
        <ele>29.39999961853</ele>
        <time>2016-04-27T14:13:43.000Z</time>
      </trkpt>
      <trkpt lat="43.15899" lon="5.76506">
        <ele>29.799999237061</ele>
        <time>2016-04-27T14:13:45.000Z</time>
      </trkpt>
      <trkpt lat="43.15907" lon="5.76496">
        <ele>30.39999961853</ele>
        <time>2016-04-27T14:13:47.000Z</time>
      </trkpt>
      <trkpt lat="43.15919" lon="5.76472">
        <ele>32</ele>
        <time>2016-04-27T14:13:51.000Z</time>
      </trkpt>
      <trkpt lat="43.15925" lon="5.7646">
        <ele>34</ele>
        <time>2016-04-27T14:13:53.000Z</time>
      </trkpt>
      <trkpt lat="43.15948" lon="5.76417">
        <ele>39.799999237061</ele>
        <time>2016-04-27T14:13:59.000Z</time>
      </trkpt>
      <trkpt lat="43.15953" lon="5.76411">
        <ele>40.200000762939</ele>
        <time>2016-04-27T14:14:00.000Z</time>
      </trkpt>
      <trkpt lat="43.15958" lon="5.76405">
        <ele>39.400001525879</ele>
        <time>2016-04-27T14:14:01.000Z</time>
      </trkpt>
      <trkpt lat="43.1597" lon="5.76396">
        <ele>37.200000762939</ele>
        <time>2016-04-27T14:14:03.000Z</time>
      </trkpt>
      <trkpt lat="43.16004" lon="5.76376">
        <ele>33</ele>
        <time>2016-04-27T14:14:09.000Z</time>
      </trkpt>
      <trkpt lat="43.16039" lon="5.7637">
        <ele>32</ele>
        <time>2016-04-27T14:14:15.000Z</time>
      </trkpt>
      <trkpt lat="43.16074" lon="5.76377">
        <ele>29.200000762939</ele>
        <time>2016-04-27T14:14:21.000Z</time>
      </trkpt>
      <trkpt lat="43.16118" lon="5.76396">
        <ele>26.799999237061</ele>
        <time>2016-04-27T14:14:29.000Z</time>
      </trkpt>
      <trkpt lat="43.16157" lon="5.76411">
        <ele>28</ele>
        <time>2016-04-27T14:14:36.000Z</time>
      </trkpt>
      <trkpt lat="43.16168" lon="5.76415">
        <ele>28.39999961853</ele>
        <time>2016-04-27T14:14:38.000Z</time>
      </trkpt>
      <trkpt lat="43.16209" lon="5.76427">
        <ele>29.60000038147</ele>
        <time>2016-04-27T14:14:45.000Z</time>
      </trkpt>
      <trkpt lat="43.16263" lon="5.7644">
        <ele>31.39999961853</ele>
        <time>2016-04-27T14:14:54.000Z</time>
      </trkpt>
      <trkpt lat="43.16269" lon="5.76441">
        <ele>31.799999237061</ele>
        <time>2016-04-27T14:14:55.000Z</time>
      </trkpt>
      <trkpt lat="43.16312" lon="5.76447">
        <ele>33.799999237061</ele>
        <time>2016-04-27T14:15:02.000Z</time>
      </trkpt>
      <trkpt lat="43.16354" lon="5.76465">
        <ele>37</ele>
        <time>2016-04-27T14:15:09.000Z</time>
      </trkpt>
      <trkpt lat="43.16383" lon="5.7649">
        <ele>37.799999237061</ele>
        <time>2016-04-27T14:15:15.000Z</time>
      </trkpt>
      <trkpt lat="43.164" lon="5.76509">
        <ele>37.799999237061</ele>
        <time>2016-04-27T14:15:19.000Z</time>
      </trkpt>
      <trkpt lat="43.16409" lon="5.76519">
        <ele>37.799999237061</ele>
        <time>2016-04-27T14:15:21.000Z</time>
      </trkpt>
      <trkpt lat="43.16414" lon="5.76524">
        <ele>37.799999237061</ele>
        <time>2016-04-27T14:15:22.000Z</time>
      </trkpt>
      <trkpt lat="43.16432" lon="5.76545">
        <ele>37.799999237061</ele>
        <time>2016-04-27T14:15:26.000Z</time>
      </trkpt>
      <trkpt lat="43.16453" lon="5.76576">
        <ele>38.400001525879</ele>
        <time>2016-04-27T14:15:31.000Z</time>
      </trkpt>
      <trkpt lat="43.16456" lon="5.76583">
        <ele>38.400001525879</ele>
        <time>2016-04-27T14:15:32.000Z</time>
      </trkpt>
      <trkpt lat="43.16472" lon="5.76619">
        <ele>41</ele>
        <time>2016-04-27T14:15:37.000Z</time>
      </trkpt>
      <trkpt lat="43.16476" lon="5.76627">
        <ele>41.400001525879</ele>
        <time>2016-04-27T14:15:38.000Z</time>
      </trkpt>
      <trkpt lat="43.16491" lon="5.76676">
        <ele>42</ele>
        <time>2016-04-27T14:15:44.000Z</time>
      </trkpt>
      <trkpt lat="43.16507" lon="5.76746">
        <ele>41.400001525879</ele>
        <time>2016-04-27T14:15:52.000Z</time>
      </trkpt>
      <trkpt lat="43.16523" lon="5.76786">
        <ele>40.200000762939</ele>
        <time>2016-04-27T14:15:57.000Z</time>
      </trkpt>
      <trkpt lat="43.16546" lon="5.76818">
        <ele>40.599998474121</ele>
        <time>2016-04-27T14:16:02.000Z</time>
      </trkpt>
      <trkpt lat="43.16575" lon="5.76838">
        <ele>42</ele>
        <time>2016-04-27T14:16:07.000Z</time>
      </trkpt>
      <trkpt lat="43.16612" lon="5.76846">
        <ele>41.200000762939</ele>
        <time>2016-04-27T14:16:13.000Z</time>
      </trkpt>
      <trkpt lat="43.16654" lon="5.76858">
        <ele>39.799999237061</ele>
        <time>2016-04-27T14:16:20.000Z</time>
      </trkpt>
      <trkpt lat="43.16692" lon="5.76882">
        <ele>40.200000762939</ele>
        <time>2016-04-27T14:16:27.000Z</time>
      </trkpt>
      <trkpt lat="43.16723" lon="5.76907">
        <ele>39.599998474121</ele>
        <time>2016-04-27T14:16:33.000Z</time>
      </trkpt>
      <trkpt lat="43.16745" lon="5.76923">
        <ele>39.200000762939</ele>
        <time>2016-04-27T14:16:37.000Z</time>
      </trkpt>
      <trkpt lat="43.1675" lon="5.76927">
        <ele>39</ele>
        <time>2016-04-27T14:16:38.000Z</time>
      </trkpt>
      <trkpt lat="43.16795" lon="5.76962">
        <ele>40.599998474121</ele>
        <time>2016-04-27T14:16:46.000Z</time>
      </trkpt>
      <trkpt lat="43.16817" lon="5.76982">
        <ele>41.799999237061</ele>
        <time>2016-04-27T14:16:50.000Z</time>
      </trkpt>
      <trkpt lat="43.16831" lon="5.77">
        <ele>42.400001525879</ele>
        <time>2016-04-27T14:16:53.000Z</time>
      </trkpt>
      <trkpt lat="43.16843" lon="5.77021">
        <ele>42.400001525879</ele>
        <time>2016-04-27T14:16:56.000Z</time>
      </trkpt>
      <trkpt lat="43.16849" lon="5.77036">
        <ele>42.599998474121</ele>
        <time>2016-04-27T14:16:58.000Z</time>
      </trkpt>
      <trkpt lat="43.16851" lon="5.77045">
        <ele>42.599998474121</ele>
        <time>2016-04-27T14:16:59.000Z</time>
      </trkpt>
      <trkpt lat="43.16858" lon="5.77079">
        <ele>43.200000762939</ele>
        <time>2016-04-27T14:17:03.000Z</time>
      </trkpt>
      <trkpt lat="43.16859" lon="5.77087">
        <ele>43.599998474121</ele>
        <time>2016-04-27T14:17:04.000Z</time>
      </trkpt>
      <trkpt lat="43.16861" lon="5.77096">
        <ele>44</ele>
        <time>2016-04-27T14:17:05.000Z</time>
      </trkpt>
      <trkpt lat="43.16865" lon="5.77112">
        <ele>44.799999237061</ele>
        <time>2016-04-27T14:17:07.000Z</time>
      </trkpt>
      <trkpt lat="43.16873" lon="5.77134">
        <ele>46.200000762939</ele>
        <time>2016-04-27T14:17:10.000Z</time>
      </trkpt>
      <trkpt lat="43.1688" lon="5.77148">
        <ele>46.200000762939</ele>
        <time>2016-04-27T14:17:12.000Z</time>
      </trkpt>
      <trkpt lat="43.16892" lon="5.77157">
        <ele>46.799999237061</ele>
        <time>2016-04-27T14:17:14.000Z</time>
      </trkpt>
      <trkpt lat="43.16904" lon="5.77163">
        <ele>47.799999237061</ele>
        <time>2016-04-27T14:17:16.000Z</time>
      </trkpt>
      <trkpt lat="43.16924" lon="5.7717">
        <ele>49.400001525879</ele>
        <time>2016-04-27T14:17:19.000Z</time>
      </trkpt>
      <trkpt lat="43.16964" lon="5.77174">
        <ele>49.599998474121</ele>
        <time>2016-04-27T14:17:25.000Z</time>
      </trkpt>
      <trkpt lat="43.17017" lon="5.7717">
        <ele>49.799999237061</ele>
        <time>2016-04-27T14:17:33.000Z</time>
      </trkpt>
      <trkpt lat="43.17024" lon="5.77169">
        <ele>50</ele>
        <time>2016-04-27T14:17:34.000Z</time>
      </trkpt>
      <trkpt lat="43.1705" lon="5.77164">
        <ele>49.799999237061</ele>
        <time>2016-04-27T14:17:38.000Z</time>
      </trkpt>
      <trkpt lat="43.17074" lon="5.77155">
        <ele>48.599998474121</ele>
        <time>2016-04-27T14:17:42.000Z</time>
      </trkpt>
      <trkpt lat="43.1712" lon="5.77133">
        <ele>48.400001525879</ele>
        <time>2016-04-27T14:17:50.000Z</time>
      </trkpt>
      <trkpt lat="43.17153" lon="5.77108">
        <ele>50.400001525879</ele>
        <time>2016-04-27T14:17:56.000Z</time>
      </trkpt>
      <trkpt lat="43.17163" lon="5.77099">
        <ele>51.200000762939</ele>
        <time>2016-04-27T14:17:58.000Z</time>
      </trkpt>
      <trkpt lat="43.17189" lon="5.77079">
        <ele>53</ele>
        <time>2016-04-27T14:18:03.000Z</time>
      </trkpt>
      <trkpt lat="43.17201" lon="5.77074">
        <ele>53.400001525879</ele>
        <time>2016-04-27T14:18:05.000Z</time>
      </trkpt>
      <trkpt lat="43.17232" lon="5.77073">
        <ele>52</ele>
        <time>2016-04-27T14:18:10.000Z</time>
      </trkpt>
      <trkpt lat="43.1725" lon="5.77075">
        <ele>51</ele>
        <time>2016-04-27T14:18:13.000Z</time>
      </trkpt>
      <trkpt lat="43.17294" lon="5.77076">
        <ele>49.599998474121</ele>
        <time>2016-04-27T14:18:20.000Z</time>
      </trkpt>
      <trkpt lat="43.17313" lon="5.77076">
        <ele>49.200000762939</ele>
        <time>2016-04-27T14:18:23.000Z</time>
      </trkpt>
      <trkpt lat="43.17348" lon="5.77076">
        <ele>48.599998474121</ele>
        <time>2016-04-27T14:18:29.000Z</time>
      </trkpt>
      <trkpt lat="43.17398" lon="5.77077">
        <ele>48.799999237061</ele>
        <time>2016-04-27T14:18:37.000Z</time>
      </trkpt>
      <trkpt lat="43.17416" lon="5.77077">
        <ele>48.799999237061</ele>
        <time>2016-04-27T14:18:40.000Z</time>
      </trkpt>
      <trkpt lat="43.17422" lon="5.77078">
        <ele>48.799999237061</ele>
        <time>2016-04-27T14:18:41.000Z</time>
      </trkpt>
      <trkpt lat="43.17434" lon="5.7708">
        <ele>48.799999237061</ele>
        <time>2016-04-27T14:18:43.000Z</time>
      </trkpt>
      <trkpt lat="43.17445" lon="5.77085">
        <ele>49</ele>
        <time>2016-04-27T14:18:45.000Z</time>
      </trkpt>
      <trkpt lat="43.17456" lon="5.77087">
        <ele>49.200000762939</ele>
        <time>2016-04-27T14:18:47.000Z</time>
      </trkpt>
      <trkpt lat="43.17461" lon="5.77085">
        <ele>49.400001525879</ele>
        <time>2016-04-27T14:18:48.000Z</time>
      </trkpt>
      <trkpt lat="43.1748" lon="5.77072">
        <ele>49.599998474121</ele>
        <time>2016-04-27T14:18:52.000Z</time>
      </trkpt>
      <trkpt lat="43.17485" lon="5.77068">
        <ele>49.599998474121</ele>
        <time>2016-04-27T14:18:53.000Z</time>
      </trkpt>
      <trkpt lat="43.17495" lon="5.77051">
        <ele>50</ele>
        <time>2016-04-27T14:18:56.000Z</time>
      </trkpt>
      <trkpt lat="43.17498" lon="5.77037">
        <ele>50.400001525879</ele>
        <time>2016-04-27T14:18:58.000Z</time>
      </trkpt>
      <trkpt lat="43.175" lon="5.77021">
        <ele>50.799999237061</ele>
        <time>2016-04-27T14:19:00.000Z</time>
      </trkpt>
      <trkpt lat="43.175" lon="5.77004">
        <ele>51.200000762939</ele>
        <time>2016-04-27T14:19:02.000Z</time>
      </trkpt>
      <trkpt lat="43.17498" lon="5.76978">
        <ele>51.799999237061</ele>
        <time>2016-04-27T14:19:05.000Z</time>
      </trkpt>
      <trkpt lat="43.17498" lon="5.76969">
        <ele>52.200000762939</ele>
        <time>2016-04-27T14:19:06.000Z</time>
      </trkpt>
      <trkpt lat="43.17496" lon="5.76952">
        <ele>53.400001525879</ele>
        <time>2016-04-27T14:19:08.000Z</time>
      </trkpt>
      <trkpt lat="43.17495" lon="5.76926">
        <ele>55.599998474121</ele>
        <time>2016-04-27T14:19:11.000Z</time>
      </trkpt>
      <trkpt lat="43.17492" lon="5.76911">
        <ele>56.799999237061</ele>
        <time>2016-04-27T14:19:13.000Z</time>
      </trkpt>
      <trkpt lat="43.1749" lon="5.76903">
        <ele>57.400001525879</ele>
        <time>2016-04-27T14:19:14.000Z</time>
      </trkpt>
      <trkpt lat="43.17483" lon="5.7689">
        <ele>58.599998474121</ele>
        <time>2016-04-27T14:19:16.000Z</time>
      </trkpt>
      <trkpt lat="43.17476" lon="5.76877">
        <ele>59.799999237061</ele>
        <time>2016-04-27T14:19:18.000Z</time>
      </trkpt>
      <trkpt lat="43.17473" lon="5.7687">
        <ele>60.599998474121</ele>
        <time>2016-04-27T14:19:19.000Z</time>
      </trkpt>
      <trkpt lat="43.17471" lon="5.76862">
        <ele>61.599998474121</ele>
        <time>2016-04-27T14:19:20.000Z</time>
      </trkpt>
      <trkpt lat="43.17472" lon="5.76846">
        <ele>63.400001525879</ele>
        <time>2016-04-27T14:19:22.000Z</time>
      </trkpt>
      <trkpt lat="43.17482" lon="5.76826">
        <ele>64.800003051758</ele>
        <time>2016-04-27T14:19:25.000Z</time>
      </trkpt>
      <trkpt lat="43.17497" lon="5.7681">
        <ele>65.800003051758</ele>
        <time>2016-04-27T14:19:28.000Z</time>
      </trkpt>
      <trkpt lat="43.17512" lon="5.76796">
        <ele>66.400001525879</ele>
        <time>2016-04-27T14:19:31.000Z</time>
      </trkpt>
      <trkpt lat="43.17525" lon="5.76783">
        <ele>66.800003051758</ele>
        <time>2016-04-27T14:19:34.000Z</time>
      </trkpt>
      <trkpt lat="43.17534" lon="5.76773">
        <ele>67</ele>
        <time>2016-04-27T14:19:36.000Z</time>
      </trkpt>
      <trkpt lat="43.17543" lon="5.76763">
        <ele>67.400001525879</ele>
        <time>2016-04-27T14:19:38.000Z</time>
      </trkpt>
      <trkpt lat="43.17558" lon="5.76748">
        <ele>68</ele>
        <time>2016-04-27T14:19:41.000Z</time>
      </trkpt>
      <trkpt lat="43.17568" lon="5.76739">
        <ele>68.400001525879</ele>
        <time>2016-04-27T14:19:43.000Z</time>
      </trkpt>
      <trkpt lat="43.17578" lon="5.7673">
        <ele>68.800003051758</ele>
        <time>2016-04-27T14:19:45.000Z</time>
      </trkpt>
      <trkpt lat="43.17584" lon="5.76727">
        <ele>68.800003051758</ele>
        <time>2016-04-27T14:19:46.000Z</time>
      </trkpt>
      <trkpt lat="43.17602" lon="5.76718">
        <ele>69</ele>
        <time>2016-04-27T14:19:49.000Z</time>
      </trkpt>
      <trkpt lat="43.17614" lon="5.76711">
        <ele>68.800003051758</ele>
        <time>2016-04-27T14:19:51.000Z</time>
      </trkpt>
      <trkpt lat="43.17619" lon="5.76707">
        <ele>69</ele>
        <time>2016-04-27T14:19:52.000Z</time>
      </trkpt>
      <trkpt lat="43.1764" lon="5.76688">
        <ele>69.599998474121</ele>
        <time>2016-04-27T14:19:56.000Z</time>
      </trkpt>
      <trkpt lat="43.17675" lon="5.76666">
        <ele>72.199996948242</ele>
        <time>2016-04-27T14:20:02.000Z</time>
      </trkpt>
      <trkpt lat="43.17696" lon="5.76655">
        <ele>74</ele>
        <time>2016-04-27T14:20:06.000Z</time>
      </trkpt>
      <trkpt lat="43.17712" lon="5.76645">
        <ele>74.599998474121</ele>
        <time>2016-04-27T14:20:09.000Z</time>
      </trkpt>
      <trkpt lat="43.17717" lon="5.76641">
        <ele>74.800003051758</ele>
        <time>2016-04-27T14:20:10.000Z</time>
      </trkpt>
      <trkpt lat="43.17722" lon="5.76637">
        <ele>75</ele>
        <time>2016-04-27T14:20:11.000Z</time>
      </trkpt>
      <trkpt lat="43.17737" lon="5.76624">
        <ele>76.199996948242</ele>
        <time>2016-04-27T14:20:14.000Z</time>
      </trkpt>
      <trkpt lat="43.17754" lon="5.76614">
        <ele>76.599998474121</ele>
        <time>2016-04-27T14:20:17.000Z</time>
      </trkpt>
      <trkpt lat="43.17771" lon="5.76607">
        <ele>76.599998474121</ele>
        <time>2016-04-27T14:20:20.000Z</time>
      </trkpt>
      <trkpt lat="43.1779" lon="5.76603">
        <ele>76.400001525879</ele>
        <time>2016-04-27T14:20:23.000Z</time>
      </trkpt>
      <trkpt lat="43.17807" lon="5.76595">
        <ele>76.400001525879</ele>
        <time>2016-04-27T14:20:26.000Z</time>
      </trkpt>
      <trkpt lat="43.17817" lon="5.76586">
        <ele>76.400001525879</ele>
        <time>2016-04-27T14:20:28.000Z</time>
      </trkpt>
      <trkpt lat="43.17832" lon="5.76559">
        <ele>77.400001525879</ele>
        <time>2016-04-27T14:20:32.000Z</time>
      </trkpt>
      <trkpt lat="43.17836" lon="5.76552">
        <ele>77.599998474121</ele>
        <time>2016-04-27T14:20:33.000Z</time>
      </trkpt>
      <trkpt lat="43.17849" lon="5.76523">
        <ele>77.800003051758</ele>
        <time>2016-04-27T14:20:37.000Z</time>
      </trkpt>
      <trkpt lat="43.17857" lon="5.7651">
        <ele>77.800003051758</ele>
        <time>2016-04-27T14:20:39.000Z</time>
      </trkpt>
      <trkpt lat="43.17862" lon="5.76505">
        <ele>77.800003051758</ele>
        <time>2016-04-27T14:20:40.000Z</time>
      </trkpt>
      <trkpt lat="43.1788" lon="5.76498">
        <ele>77.400001525879</ele>
        <time>2016-04-27T14:20:43.000Z</time>
      </trkpt>
      <trkpt lat="43.17893" lon="5.76497">
        <ele>77.599998474121</ele>
        <time>2016-04-27T14:20:45.000Z</time>
      </trkpt>
      <trkpt lat="43.17925" lon="5.76492">
        <ele>78</ele>
        <time>2016-04-27T14:20:50.000Z</time>
      </trkpt>
      <trkpt lat="43.17949" lon="5.76488">
        <ele>79.599998474121</ele>
        <time>2016-04-27T14:20:54.000Z</time>
      </trkpt>
      <trkpt lat="43.17954" lon="5.76485">
        <ele>80.199996948242</ele>
        <time>2016-04-27T14:20:55.000Z</time>
      </trkpt>
      <trkpt lat="43.1796" lon="5.76482">
        <ele>80.800003051758</ele>
        <time>2016-04-27T14:20:56.000Z</time>
      </trkpt>
      <trkpt lat="43.17965" lon="5.76478">
        <ele>81.599998474121</ele>
        <time>2016-04-27T14:20:57.000Z</time>
      </trkpt>
      <trkpt lat="43.17981" lon="5.76468">
        <ele>83.400001525879</ele>
        <time>2016-04-27T14:21:00.000Z</time>
      </trkpt>
      <trkpt lat="43.17997" lon="5.76456">
        <ele>85.400001525879</ele>
        <time>2016-04-27T14:21:03.000Z</time>
      </trkpt>
      <trkpt lat="43.18013" lon="5.76445">
        <ele>87.599998474121</ele>
        <time>2016-04-27T14:21:06.000Z</time>
      </trkpt>
      <trkpt lat="43.18029" lon="5.76436">
        <ele>88.800003051758</ele>
        <time>2016-04-27T14:21:09.000Z</time>
      </trkpt>
      <trkpt lat="43.18041" lon="5.76431">
        <ele>89.599998474121</ele>
        <time>2016-04-27T14:21:11.000Z</time>
      </trkpt>
      <trkpt lat="43.18046" lon="5.76429">
        <ele>89.800003051758</ele>
        <time>2016-04-27T14:21:12.000Z</time>
      </trkpt>
      <trkpt lat="43.18057" lon="5.76425">
        <ele>90.400001525879</ele>
        <time>2016-04-27T14:21:14.000Z</time>
      </trkpt>
      <trkpt lat="43.18067" lon="5.76419">
        <ele>91</ele>
        <time>2016-04-27T14:21:16.000Z</time>
      </trkpt>
      <trkpt lat="43.18071" lon="5.76415">
        <ele>91.400001525879</ele>
        <time>2016-04-27T14:21:17.000Z</time>
      </trkpt>
      <trkpt lat="43.18076" lon="5.7641">
        <ele>91.800003051758</ele>
        <time>2016-04-27T14:21:18.000Z</time>
      </trkpt>
      <trkpt lat="43.18084" lon="5.76399">
        <ele>93</ele>
        <time>2016-04-27T14:21:20.000Z</time>
      </trkpt>
      <trkpt lat="43.18089" lon="5.76386">
        <ele>94</ele>
        <time>2016-04-27T14:21:22.000Z</time>
      </trkpt>
      <trkpt lat="43.18091" lon="5.76379">
        <ele>94.400001525879</ele>
        <time>2016-04-27T14:21:23.000Z</time>
      </trkpt>
      <trkpt lat="43.18093" lon="5.76372">
        <ele>95</ele>
        <time>2016-04-27T14:21:24.000Z</time>
      </trkpt>
      <trkpt lat="43.18097" lon="5.76357">
        <ele>96</ele>
        <time>2016-04-27T14:21:26.000Z</time>
      </trkpt>
      <trkpt lat="43.181" lon="5.76342">
        <ele>97</ele>
        <time>2016-04-27T14:21:28.000Z</time>
      </trkpt>
      <trkpt lat="43.18103" lon="5.76327">
        <ele>97.800003051758</ele>
        <time>2016-04-27T14:21:30.000Z</time>
      </trkpt>
      <trkpt lat="43.1811" lon="5.76283">
        <ele>98.599998474121</ele>
        <time>2016-04-27T14:21:36.000Z</time>
      </trkpt>
      <trkpt lat="43.18115" lon="5.76239">
        <ele>99.199996948242</ele>
        <time>2016-04-27T14:21:42.000Z</time>
      </trkpt>
      <trkpt lat="43.18121" lon="5.76229">
        <ele>99.800003051758</ele>
        <time>2016-04-27T14:21:44.000Z</time>
      </trkpt>
      <trkpt lat="43.1814" lon="5.76223">
        <ele>99.199996948242</ele>
        <time>2016-04-27T14:21:47.000Z</time>
      </trkpt>
      <trkpt lat="43.18147" lon="5.76221">
        <ele>98.800003051758</ele>
        <time>2016-04-27T14:21:48.000Z</time>
      </trkpt>
      <trkpt lat="43.18169" lon="5.76219">
        <ele>97.800003051758</ele>
        <time>2016-04-27T14:21:51.000Z</time>
      </trkpt>
      <trkpt lat="43.18184" lon="5.76219">
        <ele>97</ele>
        <time>2016-04-27T14:21:53.000Z</time>
      </trkpt>
      <trkpt lat="43.18216" lon="5.76222">
        <ele>95.199996948242</ele>
        <time>2016-04-27T14:21:57.000Z</time>
      </trkpt>
      <trkpt lat="43.18241" lon="5.76223">
        <ele>93.800003051758</ele>
        <time>2016-04-27T14:22:00.000Z</time>
      </trkpt>
      <trkpt lat="43.18265" lon="5.76224">
        <ele>92.599998474121</ele>
        <time>2016-04-27T14:22:03.000Z</time>
      </trkpt>
      <trkpt lat="43.18287" lon="5.76221">
        <ele>91.199996948242</ele>
        <time>2016-04-27T14:22:06.000Z</time>
      </trkpt>
      <trkpt lat="43.18294" lon="5.7622">
        <ele>90.800003051758</ele>
        <time>2016-04-27T14:22:07.000Z</time>
      </trkpt>
      <trkpt lat="43.18338" lon="5.76215">
        <ele>88.199996948242</ele>
        <time>2016-04-27T14:22:13.000Z</time>
      </trkpt>
      <trkpt lat="43.18391" lon="5.76215">
        <ele>85.599998474121</ele>
        <time>2016-04-27T14:22:20.000Z</time>
      </trkpt>
      <trkpt lat="43.18409" lon="5.76213">
        <ele>84.800003051758</ele>
        <time>2016-04-27T14:22:22.000Z</time>
      </trkpt>
      <trkpt lat="43.18427" lon="5.76207">
        <ele>84.199996948242</ele>
        <time>2016-04-27T14:22:24.000Z</time>
      </trkpt>
      <trkpt lat="43.18444" lon="5.76197">
        <ele>83.199996948242</ele>
        <time>2016-04-27T14:22:26.000Z</time>
      </trkpt>
      <trkpt lat="43.18461" lon="5.76186">
        <ele>82.400001525879</ele>
        <time>2016-04-27T14:22:28.000Z</time>
      </trkpt>
      <trkpt lat="43.18476" lon="5.76176">
        <ele>81.800003051758</ele>
        <time>2016-04-27T14:22:30.000Z</time>
      </trkpt>
      <trkpt lat="43.1849" lon="5.76167">
        <ele>81.400001525879</ele>
        <time>2016-04-27T14:22:32.000Z</time>
      </trkpt>
      <trkpt lat="43.18496" lon="5.76164">
        <ele>81.199996948242</ele>
        <time>2016-04-27T14:22:33.000Z</time>
      </trkpt>
      <trkpt lat="43.18507" lon="5.76157">
        <ele>80.800003051758</ele>
        <time>2016-04-27T14:22:35.000Z</time>
      </trkpt>
      <trkpt lat="43.18522" lon="5.76148">
        <ele>81.199996948242</ele>
        <time>2016-04-27T14:22:38.000Z</time>
      </trkpt>
      <trkpt lat="43.18545" lon="5.76131">
        <ele>81.599998474121</ele>
        <time>2016-04-27T14:22:43.000Z</time>
      </trkpt>
      <trkpt lat="43.18551" lon="5.7612">
        <ele>82.400001525879</ele>
        <time>2016-04-27T14:22:45.000Z</time>
      </trkpt>
      <trkpt lat="43.18557" lon="5.76107">
        <ele>83</ele>
        <time>2016-04-27T14:22:47.000Z</time>
      </trkpt>
      <trkpt lat="43.1856" lon="5.76101">
        <ele>83.400001525879</ele>
        <time>2016-04-27T14:22:48.000Z</time>
      </trkpt>
      <trkpt lat="43.18566" lon="5.76088">
        <ele>84.199996948242</ele>
        <time>2016-04-27T14:22:50.000Z</time>
      </trkpt>
      <trkpt lat="43.18574" lon="5.76068">
        <ele>85.400001525879</ele>
        <time>2016-04-27T14:22:53.000Z</time>
      </trkpt>
      <trkpt lat="43.18577" lon="5.76062">
        <ele>85.800003051758</ele>
        <time>2016-04-27T14:22:54.000Z</time>
      </trkpt>
      <trkpt lat="43.18599" lon="5.76026">
        <ele>87.800003051758</ele>
        <time>2016-04-27T14:23:00.000Z</time>
      </trkpt>
      <trkpt lat="43.18628" lon="5.75991">
        <ele>89</ele>
        <time>2016-04-27T14:23:07.000Z</time>
      </trkpt>
      <trkpt lat="43.18659" lon="5.7597">
        <ele>88.199996948242</ele>
        <time>2016-04-27T14:23:13.000Z</time>
      </trkpt>
      <trkpt lat="43.1867" lon="5.75964">
        <ele>88.199996948242</ele>
        <time>2016-04-27T14:23:15.000Z</time>
      </trkpt>
      <trkpt lat="43.187" lon="5.75948">
        <ele>86.599998474121</ele>
        <time>2016-04-27T14:23:21.000Z</time>
      </trkpt>
      <trkpt lat="43.18716" lon="5.7594">
        <ele>85.800003051758</ele>
        <time>2016-04-27T14:23:24.000Z</time>
      </trkpt>
      <trkpt lat="43.18727" lon="5.75937">
        <ele>85.199996948242</ele>
        <time>2016-04-27T14:23:26.000Z</time>
      </trkpt>
      <trkpt lat="43.18739" lon="5.75936">
        <ele>84</ele>
        <time>2016-04-27T14:23:28.000Z</time>
      </trkpt>
      <trkpt lat="43.18745" lon="5.75935">
        <ele>83.400001525879</ele>
        <time>2016-04-27T14:23:29.000Z</time>
      </trkpt>
      <trkpt lat="43.18758" lon="5.75931">
        <ele>82</ele>
        <time>2016-04-27T14:23:31.000Z</time>
      </trkpt>
      <trkpt lat="43.18779" lon="5.75925">
        <ele>80.199996948242</ele>
        <time>2016-04-27T14:23:34.000Z</time>
      </trkpt>
      <trkpt lat="43.18786" lon="5.75922">
        <ele>79.599998474121</ele>
        <time>2016-04-27T14:23:35.000Z</time>
      </trkpt>
      <trkpt lat="43.188" lon="5.75918">
        <ele>78.800003051758</ele>
        <time>2016-04-27T14:23:37.000Z</time>
      </trkpt>
      <trkpt lat="43.1882" lon="5.75913">
        <ele>77.800003051758</ele>
        <time>2016-04-27T14:23:40.000Z</time>
      </trkpt>
      <trkpt lat="43.18827" lon="5.75913">
        <ele>77.599998474121</ele>
        <time>2016-04-27T14:23:41.000Z</time>
      </trkpt>
      <trkpt lat="43.18846" lon="5.75911">
        <ele>76.800003051758</ele>
        <time>2016-04-27T14:23:44.000Z</time>
      </trkpt>
      <trkpt lat="43.18864" lon="5.7591">
        <ele>76.599998474121</ele>
        <time>2016-04-27T14:23:47.000Z</time>
      </trkpt>
      <trkpt lat="43.18893" lon="5.75908">
        <ele>76.800003051758</ele>
        <time>2016-04-27T14:23:52.000Z</time>
      </trkpt>
      <trkpt lat="43.18907" lon="5.75901">
        <ele>77.199996948242</ele>
        <time>2016-04-27T14:23:55.000Z</time>
      </trkpt>
      <trkpt lat="43.18919" lon="5.75886">
        <ele>78</ele>
        <time>2016-04-27T14:23:58.000Z</time>
      </trkpt>
      <trkpt lat="43.18923" lon="5.75879">
        <ele>78</ele>
        <time>2016-04-27T14:23:59.000Z</time>
      </trkpt>
      <trkpt lat="43.18939" lon="5.7586">
        <ele>77.599998474121</ele>
        <time>2016-04-27T14:24:03.000Z</time>
      </trkpt>
      <trkpt lat="43.18944" lon="5.75857">
        <ele>77.599998474121</ele>
        <time>2016-04-27T14:24:04.000Z</time>
      </trkpt>
      <trkpt lat="43.18961" lon="5.75852">
        <ele>78</ele>
        <time>2016-04-27T14:24:07.000Z</time>
      </trkpt>
      <trkpt lat="43.18971" lon="5.75848">
        <ele>78</ele>
        <time>2016-04-27T14:24:09.000Z</time>
      </trkpt>
      <trkpt lat="43.18995" lon="5.7584">
        <ele>78.800003051758</ele>
        <time>2016-04-27T14:24:14.000Z</time>
      </trkpt>
      <trkpt lat="43.19003" lon="5.75837">
        <ele>79.199996948242</ele>
        <time>2016-04-27T14:24:16.000Z</time>
      </trkpt>
      <trkpt lat="43.19012" lon="5.75834">
        <ele>79.400001525879</ele>
        <time>2016-04-27T14:24:18.000Z</time>
      </trkpt>
      <trkpt lat="43.19031" lon="5.75827">
        <ele>80.599998474121</ele>
        <time>2016-04-27T14:24:22.000Z</time>
      </trkpt>
      <trkpt lat="43.1904" lon="5.75821">
        <ele>81.400001525879</ele>
        <time>2016-04-27T14:24:24.000Z</time>
      </trkpt>
      <trkpt lat="43.19044" lon="5.75819">
        <ele>82</ele>
        <time>2016-04-27T14:24:25.000Z</time>
      </trkpt>
      <trkpt lat="43.19054" lon="5.75814">
        <ele>83</ele>
        <time>2016-04-27T14:24:27.000Z</time>
      </trkpt>
      <trkpt lat="43.19058" lon="5.75812">
        <ele>83.400001525879</ele>
        <time>2016-04-27T14:24:28.000Z</time>
      </trkpt>
      <trkpt lat="43.19073" lon="5.75808">
        <ele>84.800003051758</ele>
        <time>2016-04-27T14:24:31.000Z</time>
      </trkpt>
      <trkpt lat="43.19088" lon="5.758">
        <ele>86.400001525879</ele>
        <time>2016-04-27T14:24:34.000Z</time>
      </trkpt>
      <trkpt lat="43.19097" lon="5.75794">
        <ele>87.199996948242</ele>
        <time>2016-04-27T14:24:36.000Z</time>
      </trkpt>
      <trkpt lat="43.19106" lon="5.75787">
        <ele>87.800003051758</ele>
        <time>2016-04-27T14:24:38.000Z</time>
      </trkpt>
      <trkpt lat="43.1911" lon="5.75782">
        <ele>88</ele>
        <time>2016-04-27T14:24:39.000Z</time>
      </trkpt>
      <trkpt lat="43.19119" lon="5.75773">
        <ele>88.599998474121</ele>
        <time>2016-04-27T14:24:41.000Z</time>
      </trkpt>
      <trkpt lat="43.19127" lon="5.75763">
        <ele>89</ele>
        <time>2016-04-27T14:24:43.000Z</time>
      </trkpt>
      <trkpt lat="43.19135" lon="5.75753">
        <ele>89.800003051758</ele>
        <time>2016-04-27T14:24:45.000Z</time>
      </trkpt>
      <trkpt lat="43.1915" lon="5.75735">
        <ele>91.400001525879</ele>
        <time>2016-04-27T14:24:49.000Z</time>
      </trkpt>
      <trkpt lat="43.19162" lon="5.75722">
        <ele>92.800003051758</ele>
        <time>2016-04-27T14:24:52.000Z</time>
      </trkpt>
      <trkpt lat="43.19174" lon="5.75707">
        <ele>93.800003051758</ele>
        <time>2016-04-27T14:24:55.000Z</time>
      </trkpt>
      <trkpt lat="43.1919" lon="5.75687">
        <ele>94</ele>
        <time>2016-04-27T14:24:59.000Z</time>
      </trkpt>
      <trkpt lat="43.19194" lon="5.75682">
        <ele>94</ele>
        <time>2016-04-27T14:25:00.000Z</time>
      </trkpt>
      <trkpt lat="43.19217" lon="5.75638">
        <ele>94</ele>
        <time>2016-04-27T14:25:08.000Z</time>
      </trkpt>
      <trkpt lat="43.19221" lon="5.75626">
        <ele>93.800003051758</ele>
        <time>2016-04-27T14:25:10.000Z</time>
      </trkpt>
      <trkpt lat="43.19222" lon="5.75607">
        <ele>93.199996948242</ele>
        <time>2016-04-27T14:25:13.000Z</time>
      </trkpt>
      <trkpt lat="43.19223" lon="5.756">
        <ele>93.199996948242</ele>
        <time>2016-04-27T14:25:14.000Z</time>
      </trkpt>
      <trkpt lat="43.1923" lon="5.75592">
        <ele>93.800003051758</ele>
        <time>2016-04-27T14:25:16.000Z</time>
      </trkpt>
      <trkpt lat="43.19244" lon="5.75589">
        <ele>94.800003051758</ele>
        <time>2016-04-27T14:25:20.000Z</time>
      </trkpt>
      <trkpt lat="43.1925" lon="5.75592">
        <ele>95</ele>
        <time>2016-04-27T14:25:24.000Z</time>
      </trkpt>
      <trkpt lat="43.19253" lon="5.75592">
        <ele>95.199996948242</ele>
        <time>2016-04-27T14:25:32.000Z</time>
      </trkpt>
      <trkpt lat="43.19256" lon="5.75589">
        <ele>95.400001525879</ele>
        <time>2016-04-27T14:25:33.000Z</time>
      </trkpt>
      <trkpt lat="43.19269" lon="5.75575">
        <ele>96.599998474121</ele>
        <time>2016-04-27T14:25:37.000Z</time>
      </trkpt>
      <trkpt lat="43.19283" lon="5.75566">
        <ele>98</ele>
        <time>2016-04-27T14:25:41.000Z</time>
      </trkpt>
      <trkpt lat="43.19287" lon="5.75564">
        <ele>98.400001525879</ele>
        <time>2016-04-27T14:25:42.000Z</time>
      </trkpt>
      <trkpt lat="43.19298" lon="5.75557">
        <ele>100</ele>
        <time>2016-04-27T14:25:45.000Z</time>
      </trkpt>
      <trkpt lat="43.19303" lon="5.75547">
        <ele>100.40000152588</ele>
        <time>2016-04-27T14:25:47.000Z</time>
      </trkpt>
      <trkpt lat="43.19307" lon="5.75536">
        <ele>100.80000305176</ele>
        <time>2016-04-27T14:25:49.000Z</time>
      </trkpt>
      <trkpt lat="43.1931" lon="5.75524">
        <ele>101</ele>
        <time>2016-04-27T14:25:51.000Z</time>
      </trkpt>
      <trkpt lat="43.19312" lon="5.75518">
        <ele>101.40000152588</ele>
        <time>2016-04-27T14:25:53.000Z</time>
      </trkpt>
      <trkpt lat="43.19311" lon="5.75516">
        <ele>101.40000152588</ele>
        <time>2016-04-27T14:35:02.000Z</time>
      </trkpt>
      <trkpt lat="43.19313" lon="5.755">
        <ele>102.40000152588</ele>
        <time>2016-04-27T14:35:06.000Z</time>
      </trkpt>
      <trkpt lat="43.19316" lon="5.75497">
        <ele>103</ele>
        <time>2016-04-27T14:35:07.000Z</time>
      </trkpt>
      <trkpt lat="43.19325" lon="5.7549">
        <ele>104.40000152588</ele>
        <time>2016-04-27T14:35:10.000Z</time>
      </trkpt>
      <trkpt lat="43.19337" lon="5.7549">
        <ele>106</ele>
        <time>2016-04-27T14:35:13.000Z</time>
      </trkpt>
      <trkpt lat="43.19343" lon="5.75495">
        <ele>106.59999847412</ele>
        <time>2016-04-27T14:35:15.000Z</time>
      </trkpt>
      <trkpt lat="43.19351" lon="5.75511">
        <ele>107</ele>
        <time>2016-04-27T14:35:18.000Z</time>
      </trkpt>
      <trkpt lat="43.19357" lon="5.75523">
        <ele>107.40000152588</ele>
        <time>2016-04-27T14:35:20.000Z</time>
      </trkpt>
      <trkpt lat="43.19361" lon="5.75528">
        <ele>107.80000305176</ele>
        <time>2016-04-27T14:35:21.000Z</time>
      </trkpt>
      <trkpt lat="43.1937" lon="5.7553">
        <ele>109.19999694824</ele>
        <time>2016-04-27T14:35:23.000Z</time>
      </trkpt>
      <trkpt lat="43.19376" lon="5.75528">
        <ele>110</ele>
        <time>2016-04-27T14:35:24.000Z</time>
      </trkpt>
      <trkpt lat="43.1938" lon="5.75526">
        <ele>111</ele>
        <time>2016-04-27T14:35:25.000Z</time>
      </trkpt>
      <trkpt lat="43.19385" lon="5.75523">
        <ele>111.80000305176</ele>
        <time>2016-04-27T14:35:26.000Z</time>
      </trkpt>
      <trkpt lat="43.19395" lon="5.75518">
        <ele>113.40000152588</ele>
        <time>2016-04-27T14:35:28.000Z</time>
      </trkpt>
      <trkpt lat="43.19399" lon="5.75515">
        <ele>114.19999694824</ele>
        <time>2016-04-27T14:35:29.000Z</time>
      </trkpt>
      <trkpt lat="43.19409" lon="5.75508">
        <ele>115.80000305176</ele>
        <time>2016-04-27T14:35:31.000Z</time>
      </trkpt>
      <trkpt lat="43.19427" lon="5.75496">
        <ele>119</ele>
        <time>2016-04-27T14:35:35.000Z</time>
      </trkpt>
      <trkpt lat="43.19436" lon="5.75491">
        <ele>120.40000152588</ele>
        <time>2016-04-27T14:35:37.000Z</time>
      </trkpt>
      <trkpt lat="43.19445" lon="5.75485">
        <ele>121.80000305176</ele>
        <time>2016-04-27T14:35:39.000Z</time>
      </trkpt>
      <trkpt lat="43.19462" lon="5.75475">
        <ele>124</ele>
        <time>2016-04-27T14:35:43.000Z</time>
      </trkpt>
      <trkpt lat="43.19466" lon="5.75472">
        <ele>124.40000152588</ele>
        <time>2016-04-27T14:35:44.000Z</time>
      </trkpt>
      <trkpt lat="43.19469" lon="5.75468">
        <ele>125</ele>
        <time>2016-04-27T14:35:45.000Z</time>
      </trkpt>
      <trkpt lat="43.19472" lon="5.75464">
        <ele>125.40000152588</ele>
        <time>2016-04-27T14:35:46.000Z</time>
      </trkpt>
      <trkpt lat="43.19475" lon="5.75458">
        <ele>125.80000305176</ele>
        <time>2016-04-27T14:35:47.000Z</time>
      </trkpt>
      <trkpt lat="43.19476" lon="5.75438">
        <ele>126.59999847412</ele>
        <time>2016-04-27T14:35:50.000Z</time>
      </trkpt>
      <trkpt lat="43.19477" lon="5.75431">
        <ele>126.80000305176</ele>
        <time>2016-04-27T14:35:51.000Z</time>
      </trkpt>
      <trkpt lat="43.19478" lon="5.75411">
        <ele>128</ele>
        <time>2016-04-27T14:35:54.000Z</time>
      </trkpt>
      <trkpt lat="43.19478" lon="5.75393">
        <ele>129</ele>
        <time>2016-04-27T14:35:57.000Z</time>
      </trkpt>
      <trkpt lat="43.19478" lon="5.75387">
        <ele>129.19999694824</ele>
        <time>2016-04-27T14:35:58.000Z</time>
      </trkpt>
      <trkpt lat="43.19478" lon="5.75374">
        <ele>129.19999694824</ele>
        <time>2016-04-27T14:36:01.000Z</time>
      </trkpt>
      <trkpt lat="43.19483" lon="5.75369">
        <ele>129.80000305176</ele>
        <time>2016-04-27T14:36:03.000Z</time>
      </trkpt>
      <trkpt lat="43.19499" lon="5.75368">
        <ele>132.19999694824</ele>
        <time>2016-04-27T14:36:07.000Z</time>
      </trkpt>
      <trkpt lat="43.19508" lon="5.75367">
        <ele>133.19999694824</ele>
        <time>2016-04-27T14:36:09.000Z</time>
      </trkpt>
      <trkpt lat="43.19512" lon="5.75368">
        <ele>133.80000305176</ele>
        <time>2016-04-27T14:36:10.000Z</time>
      </trkpt>
      <trkpt lat="43.19521" lon="5.75369">
        <ele>135.60000610352</ele>
        <time>2016-04-27T14:36:13.000Z</time>
      </trkpt>
      <trkpt lat="43.19526" lon="5.75358">
        <ele>136.39999389648</ele>
        <time>2016-04-27T14:36:16.000Z</time>
      </trkpt>
      <trkpt lat="43.19526" lon="5.75352">
        <ele>136.39999389648</ele>
        <time>2016-04-27T14:36:17.000Z</time>
      </trkpt>
      <trkpt lat="43.19527" lon="5.75333">
        <ele>136.39999389648</ele>
        <time>2016-04-27T14:36:20.000Z</time>
      </trkpt>
      <trkpt lat="43.19528" lon="5.75321">
        <ele>136.19999694824</ele>
        <time>2016-04-27T14:36:22.000Z</time>
      </trkpt>
      <trkpt lat="43.19528" lon="5.75316">
        <ele>136.39999389648</ele>
        <time>2016-04-27T14:36:23.000Z</time>
      </trkpt>
      <trkpt lat="43.1953" lon="5.75295">
        <ele>137</ele>
        <time>2016-04-27T14:36:28.000Z</time>
      </trkpt>
      <trkpt lat="43.1953" lon="5.75293">
        <ele>137</ele>
        <time>2016-04-27T14:36:29.000Z</time>
      </trkpt>
      <trkpt lat="43.1953" lon="5.75291">
        <ele>137</ele>
        <time>2016-04-27T14:36:45.000Z</time>
      </trkpt>
      <trkpt lat="43.19531" lon="5.75288">
        <ele>137</ele>
        <time>2016-04-27T14:36:46.000Z</time>
      </trkpt>
      <trkpt lat="43.19531" lon="5.75278">
        <ele>136.80000305176</ele>
        <time>2016-04-27T14:36:48.000Z</time>
      </trkpt>
      <trkpt lat="43.19533" lon="5.75263">
        <ele>137</ele>
        <time>2016-04-27T14:36:50.000Z</time>
      </trkpt>
      <trkpt lat="43.19535" lon="5.75256">
        <ele>137</ele>
        <time>2016-04-27T14:36:51.000Z</time>
      </trkpt>
      <trkpt lat="43.19536" lon="5.75249">
        <ele>137.19999694824</ele>
        <time>2016-04-27T14:36:52.000Z</time>
      </trkpt>
      <trkpt lat="43.19539" lon="5.75235">
        <ele>138.19999694824</ele>
        <time>2016-04-27T14:36:54.000Z</time>
      </trkpt>
      <trkpt lat="43.1954" lon="5.75228">
        <ele>138.60000610352</ele>
        <time>2016-04-27T14:36:55.000Z</time>
      </trkpt>
      <trkpt lat="43.19545" lon="5.75201">
        <ele>140</ele>
        <time>2016-04-27T14:36:59.000Z</time>
      </trkpt>
      <trkpt lat="43.19552" lon="5.75192">
        <ele>142</ele>
        <time>2016-04-27T14:37:01.000Z</time>
      </trkpt>
      <trkpt lat="43.19557" lon="5.75193">
        <ele>143.39999389648</ele>
        <time>2016-04-27T14:37:02.000Z</time>
      </trkpt>
      <trkpt lat="43.19563" lon="5.75202">
        <ele>145</ele>
        <time>2016-04-27T14:37:04.000Z</time>
      </trkpt>
      <trkpt lat="43.19565" lon="5.7521">
        <ele>145.19999694824</ele>
        <time>2016-04-27T14:37:05.000Z</time>
      </trkpt>
      <trkpt lat="43.19566" lon="5.75225">
        <ele>145.39999389648</ele>
        <time>2016-04-27T14:37:07.000Z</time>
      </trkpt>
      <trkpt lat="43.19567" lon="5.75233">
        <ele>145.39999389648</ele>
        <time>2016-04-27T14:37:08.000Z</time>
      </trkpt>
      <trkpt lat="43.19567" lon="5.7524">
        <ele>145.39999389648</ele>
        <time>2016-04-27T14:37:09.000Z</time>
      </trkpt>
      <trkpt lat="43.19568" lon="5.75254">
        <ele>145.39999389648</ele>
        <time>2016-04-27T14:37:11.000Z</time>
      </trkpt>
      <trkpt lat="43.1957" lon="5.75269">
        <ele>145.80000305176</ele>
        <time>2016-04-27T14:37:13.000Z</time>
      </trkpt>
      <trkpt lat="43.19571" lon="5.75277">
        <ele>145.80000305176</ele>
        <time>2016-04-27T14:37:14.000Z</time>
      </trkpt>
      <trkpt lat="43.19571" lon="5.75284">
        <ele>146.19999694824</ele>
        <time>2016-04-27T14:37:15.000Z</time>
      </trkpt>
      <trkpt lat="43.19573" lon="5.75329">
        <ele>146.39999389648</ele>
        <time>2016-04-27T14:37:21.000Z</time>
      </trkpt>
      <trkpt lat="43.19574" lon="5.75336">
        <ele>146.39999389648</ele>
        <time>2016-04-27T14:37:22.000Z</time>
      </trkpt>
      <trkpt lat="43.19583" lon="5.75357">
        <ele>148</ele>
        <time>2016-04-27T14:37:25.000Z</time>
      </trkpt>
      <trkpt lat="43.19591" lon="5.75368">
        <ele>149.39999389648</ele>
        <time>2016-04-27T14:37:27.000Z</time>
      </trkpt>
      <trkpt lat="43.19594" lon="5.75373">
        <ele>150.19999694824</ele>
        <time>2016-04-27T14:37:28.000Z</time>
      </trkpt>
      <trkpt lat="43.19602" lon="5.75383">
        <ele>151.60000610352</ele>
        <time>2016-04-27T14:37:30.000Z</time>
      </trkpt>
      <trkpt lat="43.19605" lon="5.75388">
        <ele>152.19999694824</ele>
        <time>2016-04-27T14:37:31.000Z</time>
      </trkpt>
      <trkpt lat="43.19619" lon="5.75408">
        <ele>155.39999389648</ele>
        <time>2016-04-27T14:37:35.000Z</time>
      </trkpt>
      <trkpt lat="43.19625" lon="5.75417">
        <ele>156.80000305176</ele>
        <time>2016-04-27T14:37:37.000Z</time>
      </trkpt>
      <trkpt lat="43.19627" lon="5.75422">
        <ele>157.19999694824</ele>
        <time>2016-04-27T14:37:38.000Z</time>
      </trkpt>
      <trkpt lat="43.19629" lon="5.75428">
        <ele>157.39999389648</ele>
        <time>2016-04-27T14:37:39.000Z</time>
      </trkpt>
      <trkpt lat="43.1963" lon="5.7544">
        <ele>157.19999694824</ele>
        <time>2016-04-27T14:37:41.000Z</time>
      </trkpt>
      <trkpt lat="43.19631" lon="5.75446">
        <ele>157</ele>
        <time>2016-04-27T14:37:42.000Z</time>
      </trkpt>
      <trkpt lat="43.19631" lon="5.75459">
        <ele>156.39999389648</ele>
        <time>2016-04-27T14:37:44.000Z</time>
      </trkpt>
      <trkpt lat="43.1963" lon="5.75474">
        <ele>155.60000610352</ele>
        <time>2016-04-27T14:37:46.000Z</time>
      </trkpt>
      <trkpt lat="43.19629" lon="5.75524">
        <ele>154.19999694824</ele>
        <time>2016-04-27T14:37:52.000Z</time>
      </trkpt>
      <trkpt lat="43.19627" lon="5.75533">
        <ele>154</ele>
        <time>2016-04-27T14:37:53.000Z</time>
      </trkpt>
      <trkpt lat="43.19624" lon="5.75552">
        <ele>153.60000610352</ele>
        <time>2016-04-27T14:37:55.000Z</time>
      </trkpt>
      <trkpt lat="43.19624" lon="5.75581">
        <ele>151.39999389648</ele>
        <time>2016-04-27T14:37:58.000Z</time>
      </trkpt>
      <trkpt lat="43.19625" lon="5.75591">
        <ele>151.19999694824</ele>
        <time>2016-04-27T14:37:59.000Z</time>
      </trkpt>
      <trkpt lat="43.19628" lon="5.75618">
        <ele>151.39999389648</ele>
        <time>2016-04-27T14:38:02.000Z</time>
      </trkpt>
      <trkpt lat="43.19631" lon="5.75635">
        <ele>151.60000610352</ele>
        <time>2016-04-27T14:38:04.000Z</time>
      </trkpt>
      <trkpt lat="43.19641" lon="5.75672">
        <ele>149.39999389648</ele>
        <time>2016-04-27T14:38:10.000Z</time>
      </trkpt>
      <trkpt lat="43.19643" lon="5.75687">
        <ele>148.19999694824</ele>
        <time>2016-04-27T14:38:15.000Z</time>
      </trkpt>
      <trkpt lat="43.19653" lon="5.75705">
        <ele>148.19999694824</ele>
        <time>2016-04-27T14:38:31.000Z</time>
      </trkpt>
      <trkpt lat="43.19655" lon="5.7571">
        <ele>148</ele>
        <time>2016-04-27T14:38:34.000Z</time>
      </trkpt>
      <trkpt lat="43.19664" lon="5.75732">
        <ele>146.80000305176</ele>
        <time>2016-04-27T14:38:40.000Z</time>
      </trkpt>
      <trkpt lat="43.19685" lon="5.75741">
        <ele>145.19999694824</ele>
        <time>2016-04-27T14:38:45.000Z</time>
      </trkpt>
      <trkpt lat="43.19686" lon="5.75756">
        <ele>142.80000305176</ele>
        <time>2016-04-27T14:38:49.000Z</time>
      </trkpt>
      <trkpt lat="43.19685" lon="5.75759">
        <ele>142.60000610352</ele>
        <time>2016-04-27T14:38:50.000Z</time>
      </trkpt>
      <trkpt lat="43.19677" lon="5.75771">
        <ele>142.19999694824</ele>
        <time>2016-04-27T14:38:53.000Z</time>
      </trkpt>
      <trkpt lat="43.19675" lon="5.75774">
        <ele>141.39999389648</ele>
        <time>2016-04-27T14:38:54.000Z</time>
      </trkpt>
      <trkpt lat="43.19674" lon="5.75778">
        <ele>140.60000610352</ele>
        <time>2016-04-27T14:38:55.000Z</time>
      </trkpt>
      <trkpt lat="43.1967" lon="5.75786">
        <ele>139</ele>
        <time>2016-04-27T14:38:57.000Z</time>
      </trkpt>
      <trkpt lat="43.19667" lon="5.75793">
        <ele>137.60000610352</ele>
        <time>2016-04-27T14:38:59.000Z</time>
      </trkpt>
      <trkpt lat="43.19664" lon="5.75798">
        <ele>136.80000305176</ele>
        <time>2016-04-27T14:39:01.000Z</time>
      </trkpt>
      <trkpt lat="43.19662" lon="5.75801">
        <ele>136.39999389648</ele>
        <time>2016-04-27T14:39:03.000Z</time>
      </trkpt>
      <trkpt lat="43.19658" lon="5.75801">
        <ele>136.39999389648</ele>
        <time>2016-04-27T14:39:05.000Z</time>
      </trkpt>
      <trkpt lat="43.19653" lon="5.75796">
        <ele>136.60000610352</ele>
        <time>2016-04-27T14:39:07.000Z</time>
      </trkpt>
      <trkpt lat="43.1965" lon="5.75794">
        <ele>136.60000610352</ele>
        <time>2016-04-27T14:39:08.000Z</time>
      </trkpt>
      <trkpt lat="43.19645" lon="5.75786">
        <ele>137.19999694824</ele>
        <time>2016-04-27T14:39:10.000Z</time>
      </trkpt>
      <trkpt lat="43.19623" lon="5.75751">
        <ele>139.60000610352</ele>
        <time>2016-04-27T14:39:18.000Z</time>
      </trkpt>
      <trkpt lat="43.19611" lon="5.75725">
        <ele>142</ele>
        <time>2016-04-27T14:39:25.000Z</time>
      </trkpt>
      <trkpt lat="43.19607" lon="5.75727">
        <ele>141.39999389648</ele>
        <time>2016-04-27T14:39:30.000Z</time>
      </trkpt>
      <trkpt lat="43.19604" lon="5.75731">
        <ele>140.39999389648</ele>
        <time>2016-04-27T14:39:32.000Z</time>
      </trkpt>
      <trkpt lat="43.196" lon="5.75736">
        <ele>139.80000305176</ele>
        <time>2016-04-27T14:39:34.000Z</time>
      </trkpt>
      <trkpt lat="43.19581" lon="5.75749">
        <ele>135.60000610352</ele>
        <time>2016-04-27T14:41:50.000Z</time>
      </trkpt>
      <trkpt lat="43.19582" lon="5.7575">
        <ele>135.60000610352</ele>
        <time>2016-04-27T14:41:51.000Z</time>
      </trkpt>
    </trkseg>
  </trk>
</gpx>